GFSCGP_sfc_temp_003.txt.gz
Temp
57 52 46 48 50 52 50 46 43 47 54 53 48 48 53 53 52 52 50 53 55 57 54 56 56 55 56 56 57 58 58 57 55 53 53 52 53 53 53 53 55 55 56 55
54 48 54 57 56 53 50 46 45 50 55 50 50 49 52 54 52 52 52 52 55 55 56 56 56 54 57 57 57 57 58 58 56 54 54 54 52 52 53 53 53 55 56 56
49 53 59 56 52 51 47 45 44 47 50 48 48 47 50 55 55 57 56 55 55 55 56 56 57 56 55 56 56 58 59 58 57 56 53 52 51 51 50 52 51 54 55 57
52 57 55 52 51 49 43 51 49 48 44 39 46 38 47 50 50 53 54 52 53 56 57 57 57 56 55 56 55 56 56 56 57 56 54 52 54 55 59 57 56 56 52 56
50 52 52 51 52 52 49 52 48 47 42 40 45 38 45 49 48 49 49 52 52 54 55 55 56 55 53 54 54 53 55 56 57 55 54 52 51 54 56 54 49 51 51 51
51 56 54 52 54 54 56 49 47 44 41 33 40 39 39 44 48 49 52 52 52 54 54 56 55 54 54 53 53 54 55 56 57 56 54 51 49 51 50 50 48 50 46 47
50 51 54 56 50 53 50 41 29 29 27 29 43 39 42 50 52 52 52 54 54 53 52 52 50 53 53 52 51 53 52 53 53 52 52 53 51 48 47 48 48 46 43 43
39 37 50 56 49 46 45 42 29 25 23 28 41 35 44 52 55 56 58 53 54 53 52 52 53 51 50 50 50 50 51 51 52 51 51 50 48 47 47 45 45 42 41 40
36 41 52 53 52 50 46 38 45 32 23 25 33 42 49 51 52 53 51 51 49 49 50 50 49 50 50 50 51 49 50 51 50 49 47 47 46 46 45 43 41 40 41 43
45 38 48 52 53 52 49 49 36 32 21 24 32 34 39 46 47 50 47 46 48 48 49 50 50 51 52 51 49 48 49 48 48 47 47 48 46 44 43 41 41 41 41 42
46 43 42 47 46 42 43 39 41 41 33 26 22 31 45 45 48 48 47 47 47 48 48 49 50 51 51 50 49 48 48 47 46 45 45 44 45 42 41 40 40 41 43 44
46 39 31 40 48 50 47 42 41 32 30 29 25 33 49 49 49 48 46 49 49 50 50 50 50 50 49 48 48 47 46 44 45 45 44 45 42 41 40 40 41 42 44 45
46 36 29 37 43 45 42 43 42 37 31 30 23 30 49 52 47 48 46 47 48 49 50 50 50 51 50 48 47 47 46 44 44 44 44 43 39 38 38 41 43 44 45 45
49 40 35 30 36 40 37 41 42 38 24 30 32 39 46 45 44 45 46 47 48 48 50 49 49 48 47 47 47 46 43 43 43 42 41 38 38 38 38 39 41 40 43 42
45 35 37 39 41 41 41 40 42 37 37 33 36 36 42 43 42 44 47 47 47 49 48 47 48 47 46 45 44 43 43 42 42 40 39 38 41 41 39 39 40 41 42 43
43 32 34 33 40 39 37 40 39 39 39 37 38 37 45 44 45 45 45 46 45 45 46 48 48 47 45 45 43 42 42 41 40 40 40 42 42 41 41 40 41 40 40 40
39 31 29 27 34 32 29 34 37 38 41 40 32 38 41 42 43 43 44 45 44 44 44 46 46 45 44 42 42 40 39 40 40 39 41 42 41 41 40 40 40 39 37 36
33 30 29 24 32 23 40 44 45 41 42 43 41 41 43 43 46 45 46 43 43 45 48 48 47 43 43 42 40 38 39 39 39 39 38 39 40 39 37 37 36 34 33 33
39 34 30 30 29 32 40 43 38 37 38 43 42 42 43 47 41 40 45 43 45 46 47 47 44 43 41 38 37 37 37 38 38 38 38 39 38 36 35 34 32 32 31 30
36 31 28 29 26 25 36 43 45 43 31 44 42 42 45 42 36 42 44 45 44 46 48 44 42 41 38 39 39 39 37 38 37 39 38 37 37 35 33 31 31 31 29 29
27 30 27 28 27 29 40 44 45 30 34 43 45 46 44 40 44 43 44 44 46 46 44 43 40 38 39 40 39 36 36 35 38 38 37 36 36 34 32 31 30 28 27 26
32 29 25 27 26 24 44 45 37 42 43 44 43 42 41 43 43 42 44 44 45 41 40 39 37 37 39 39 37 35 34 36 36 35 34 33 32 32 32 29 27 27 25 21
33 37 31 36 33 42 45 48 49 48 44 41 41 45 44 42 41 42 43 44 42 39 37 37 35 36 41 39 38 36 35 36 34 32 31 30 31 30 29 27 26 25 23 19
39 44 33 37 43 46 48 50 53 48 44 46 46 43 39 37 41 43 44 41 40 38 35 34 35 35 35 39 38 37 36 35 33 31 31 30 28 27 26 27 27 25 19 17
42 41 38 40 45 46 48 48 46 47 45 42 43 41 41 42 43 44 42 40 39 36 35 36 35 35 36 36 34 35 34 34 32 32 31 28 27 25 26 26 25 25 23 20
43 42 37 36 47 45 47 45 44 42 42 43 42 42 44 45 43 42 39 38 36 36 35 36 36 35 35 34 32 33 34 32 30 30 29 23 21 21 25 24 24 29 28 30

GFSCGP_sfc_temp_006.txt.gz
Temp
55 51 45 46 48 49 47 43 41 43 50 50 45 46 50 50 50 50 49 50 52 53 52 52 53 53 54 54 56 57 56 56 54 52 52 51 52 52 52 52 53 53 54 54
52 46 51 54 53 50 48 43 42 48 50 47 46 47 50 52 50 48 49 50 52 52 53 56 55 53 55 56 56 56 57 56 54 52 52 51 50 51 51 51 52 53 53 54
47 50 56 54 50 48 45 43 42 45 48 45 45 44 47 52 53 53 53 50 52 53 55 53 54 53 54 55 54 55 55 55 54 54 52 52 50 51 51 54 52 54 53 54
50 54 53 51 49 47 41 49 47 45 41 38 43 36 45 47 49 50 51 51 50 51 53 55 54 52 52 53 53 54 54 54 56 54 52 50 49 49 52 52 53 55 52 51
47 49 50 49 48 49 48 49 45 44 40 38 42 37 44 47 46 46 48 51 50 53 52 51 52 54 49 50 50 50 53 54 53 52 51 50 50 49 50 50 48 50 50 48
48 53 51 49 52 50 53 46 45 42 39 32 37 37 38 42 46 47 49 50 53 51 54 53 51 52 50 50 50 50 52 53 53 51 50 48 46 46 47 49 46 47 46 44
48 48 52 53 48 51 48 39 29 29 27 28 40 36 41 48 49 50 51 51 51 51 49 50 49 49 50 50 50 51 50 51 51 49 48 47 46 46 45 47 47 45 43 40
37 36 48 54 47 43 43 40 28 25 21 27 38 34 42 51 51 53 53 50 49 48 49 49 50 48 49 50 49 48 48 49 48 48 48 47 47 46 47 47 45 41 40 39
35 39 50 50 49 48 43 36 42 31 22 23 32 39 47 48 50 52 48 48 47 48 49 49 51 51 51 52 51 48 47 48 48 46 45 45 45 46 47 46 41 39 39 41
43 37 45 49 50 51 47 48 35 31 21 22 30 32 36 43 45 46 45 46 47 48 49 51 51 51 52 50 48 48 47 47 47 45 45 46 45 46 46 42 39 39 39 41
44 41 41 45 43 40 42 37 38 38 32 23 21 30 42 42 44 44 44 46 46 47 48 49 49 49 49 48 48 47 46 46 45 43 43 43 45 45 43 38 38 39 40 41
44 37 31 39 45 46 43 40 39 27 29 28 25 29 45 46 45 46 44 46 47 48 48 49 48 48 47 47 47 46 45 44 43 43 43 43 41 40 37 38 39 40 42 43
44 35 28 36 41 44 40 41 40 34 31 29 22 30 46 46 45 45 44 45 46 47 47 48 50 48 47 47 46 46 45 43 43 43 41 39 38 36 36 37 38 40 41 42
48 38 35 28 35 37 35 39 39 37 30 30 32 37 45 47 44 43 44 44 45 46 46 46 46 47 46 47 45 44 43 43 42 41 38 36 35 35 35 36 37 39 40 42
44 35 36 38 40 39 39 38 38 34 36 33 38 35 41 43 42 43 45 45 45 46 46 45 45 49 48 47 45 42 43 42 40 39 39 38 40 39 37 38 38 39 39 40
41 32 32 32 36 36 33 37 37 37 37 36 37 36 45 43 41 42 44 45 44 43 43 44 45 46 46 45 42 42 41 40 40 39 39 40 42 42 40 40 39 39 39 39
38 30 29 26 32 31 28 35 35 36 39 38 33 41 40 39 42 43 45 42 42 41 44 43 46 47 46 43 41 40 40 39 39 41 41 39 41 41 40 39 38 37 35 34
32 29 28 25 32 24 39 43 44 39 41 43 40 40 41 42 43 44 43 41 40 42 43 45 47 46 42 42 40 37 37 37 37 36 37 39 38 36 35 35 34 33 33 32
37 32 29 30 29 32 40 43 37 36 36 41 38 41 42 44 41 40 41 41 42 43 44 45 44 42 40 38 36 36 36 36 36 36 36 36 35 34 33 32 30 31 30 30
36 30 27 29 26 25 36 41 43 41 30 40 43 45 46 42 34 41 42 43 44 46 46 44 42 40 38 38 37 39 35 35 35 36 35 34 33 31 29 29 29 30 28 29
27 30 32 32 28 30 39 42 45 31 33 43 43 46 41 37 39 39 41 43 46 46 44 43 40 37 38 38 38 36 35 34 36 35 34 33 31 30 29 28 28 27 26 26
30 25 22 27 26 23 42 42 36 41 43 46 45 42 41 40 40 40 42 43 44 42 41 41 37 36 38 38 37 36 33 36 36 33 31 30 30 30 30 27 26 27 24 21
31 35 33 36 32 41 47 46 49 48 44 42 39 41 40 38 39 41 40 42 43 41 40 38 34 35 36 37 38 34 36 35 34 32 30 30 29 29 29 26 25 24 22 18
39 42 36 37 41 43 47 50 47 44 43 42 41 40 41 40 40 39 40 41 42 38 36 34 34 34 34 36 36 34 34 33 32 31 30 29 28 27 26 27 27 25 19 17
39 41 38 37 44 45 45 42 42 42 43 42 43 43 42 40 38 38 38 37 37 36 35 35 34 34 34 34 33 33 32 32 31 31 31 29 27 25 26 26 25 24 22 19
41 39 34 38 45 43 44 44 44 43 42 43 42 40 40 39 38 38 37 36 35 35 35 34 34 33 34 34 33 32 31 30 29 30 28 22 21 21 24 24 23 29 27 29

GFSCGP_sfc_temp_009.txt.gz
Temp
61 60 54 56 57 57 56 53 52 56 58 58 54 56 60 60 60 59 60 62 64 66 64 65 64 64 65 66 68 70 69 67 67 67 67 68 67 67 68 69 67 65 66 65
59 53 59 58 57 57 56 53 52 55 56 56 56 57 58 60 57 58 60 61 63 64 65 64 65 65 66 67 67 66 65 65 65 67 66 65 64 66 65 65 65 66 64 65
54 57 59 58 55 54 53 53 51 51 55 55 54 55 56 60 60 61 62 62 64 66 66 66 66 66 64 64 62 64 64 65 64 64 66 66 65 65 66 67 67 66 64 64
56 59 56 55 53 54 49 55 53 51 50 49 52 48 54 55 58 59 61 62 64 65 66 66 65 63 62 61 62 64 64 65 64 63 62 60 60 60 62 62 63 63 62 62
54 55 54 53 54 55 53 53 51 51 49 49 50 50 53 55 55 57 60 61 63 62 62 60 60 60 60 60 60 61 63 63 62 61 60 60 59 60 60 60 59 59 60 60
54 59 58 56 57 56 55 52 50 49 48 42 45 46 49 53 54 56 60 61 60 60 60 60 60 61 61 61 60 61 62 62 62 61 59 58 56 56 57 58 58 59 59 58
52 54 57 57 55 57 54 48 42 40 39 40 46 45 49 54 55 57 58 58 57 57 58 59 59 60 60 60 60 61 61 61 60 59 58 57 56 56 56 56 56 56 56 55
44 44 53 56 53 50 49 47 39 32 34 38 44 42 48 54 57 58 56 56 57 57 57 58 58 58 60 60 60 59 60 60 60 58 57 56 56 56 55 55 55 54 52 52
42 45 54 54 55 55 50 44 48 37 28 34 42 47 52 55 56 55 54 55 55 57 58 58 59 60 59 59 59 57 57 59 59 57 55 55 54 53 53 53 52 51 49 51
48 42 50 53 56 55 53 52 43 41 31 30 40 40 46 48 51 51 52 53 55 57 59 60 61 60 59 59 58 57 58 57 56 55 54 53 53 52 51 49 48 48 49 50
50 46 47 50 48 46 49 46 44 44 39 33 29 40 50 50 52 52 52 52 54 56 58 59 59 59 58 57 58 57 57 56 55 53 51 51 50 49 48 47 47 48 49 50
49 43 39 45 50 52 50 46 45 38 35 36 33 37 53 53 54 53 53 53 55 56 57 58 57 57 57 57 58 56 55 53 51 51 51 49 48 47 46 46 47 48 48 49
50 41 36 42 46 50 47 47 43 40 38 36 31 39 52 52 51 54 53 54 55 55 56 56 56 55 56 55 54 53 52 50 52 50 49 47 46 46 45 45 46 47 47 47
50 42 40 37 42 44 40 43 44 43 35 37 38 43 50 53 52 52 52 53 55 54 54 54 53 54 54 53 51 50 50 51 49 48 47 46 45 45 45 45 45 46 46 46
48 40 41 42 44 43 42 42 42 40 42 36 42 43 48 51 51 51 53 53 52 53 51 50 50 50 52 51 50 49 50 48 47 47 46 45 46 46 43 45 46 46 47 46
45 39 38 35 39 39 35 41 41 42 42 41 42 41 52 52 51 50 51 51 50 48 46 47 47 48 50 49 48 47 47 46 46 45 44 45 45 46 46 45 45 45 44 43
42 37 34 32 35 35 33 39 40 42 44 44 39 48 48 48 48 51 51 49 43 43 44 46 50 50 49 49 46 46 46 45 45 44 44 45 44 44 43 43 43 42 41 41
34 34 33 32 33 28 45 48 48 44 46 48 46 46 47 49 51 51 46 43 42 42 45 48 50 49 49 49 47 45 45 44 44 43 44 44 43 41 42 41 40 40 40 39
41 35 32 30 31 36 43 47 45 42 44 47 46 46 48 51 49 45 43 43 42 42 47 49 50 49 48 47 46 44 44 44 43 43 42 42 41 40 39 38 38 38 38 37
38 36 35 31 29 27 40 47 49 47 37 47 48 47 47 47 36 42 40 42 45 48 51 50 50 48 46 47 45 44 44 43 42 42 41 41 40 39 38 37 37 37 37 36
31 32 31 33 30 35 44 46 48 34 36 44 47 48 44 39 38 40 42 43 48 49 49 50 48 46 46 46 45 43 42 41 43 42 41 40 39 38 38 37 37 37 36 33
36 33 29 29 29 27 47 46 39 45 45 46 46 45 39 41 41 42 45 45 47 47 48 48 46 45 45 45 44 43 42 44 43 41 40 39 39 38 37 36 37 36 34 31
35 39 36 36 37 46 49 50 50 47 45 42 42 41 41 39 40 45 44 45 46 46 47 46 45 43 44 45 44 42 44 42 42 40 39 39 38 37 37 36 35 34 34 31
41 44 38 37 44 47 49 50 46 45 42 44 44 42 43 43 44 43 44 44 44 45 44 44 42 42 42 44 43 42 42 41 40 38 38 38 37 36 37 36 35 33 31 29
44 43 39 38 46 47 47 47 44 44 44 44 45 45 44 44 44 44 43 43 42 42 42 42 41 41 41 42 41 42 40 39 38 38 38 36 35 34 34 34 33 32 31 29
44 42 38 38 48 44 45 46 45 43 43 45 44 44 45 44 43 43 42 41 40 40 41 40 41 40 39 39 38 38 37 37 36 35 35 34 33 33 33 33 32 31 29 28

GFSCGP_sfc_temp_012.txt.gz
Temp
74 74 66 66 67 67 66 63 62 67 68 66 65 67 70 72 74 73 74 75 76 77 79 79 77 77 78 77 77 79 77 73 79 80 77 79 77 78 79 79 75 74 75 73
72 63 67 68 67 65 64 62 62 64 65 64 66 66 69 71 69 72 73 75 75 76 78 76 77 76 75 74 75 75 75 75 76 79 77 75 73 76 75 76 75 75 72 72
66 64 66 66 65 63 62 60 59 58 64 66 64 64 66 68 70 72 74 75 77 76 75 75 75 74 73 72 73 74 74 74 73 73 77 77 77 76 75 72 73 72 71 71
65 66 64 64 61 63 58 62 61 59 59 59 64 57 61 65 66 69 71 73 73 74 74 73 72 71 71 70 72 73 73 73 72 71 72 68 70 67 69 69 70 70 70 69
59 63 63 61 60 63 59 61 60 59 59 59 60 59 60 66 63 66 69 69 71 71 71 70 70 71 71 71 70 72 72 72 71 70 68 69 67 68 69 68 66 67 68 68
64 68 66 64 64 63 64 60 59 60 60 51 55 56 57 63 60 64 68 68 68 69 70 69 70 71 72 72 70 70 71 70 70 69 67 64 64 64 64 65 64 65 65 66
62 62 66 65 63 65 65 59 51 46 47 47 55 54 55 60 63 64 64 66 67 68 68 69 69 71 70 69 69 69 70 69 69 67 66 66 65 64 63 62 62 60 62 62
55 51 60 64 60 57 58 57 48 38 43 48 55 51 56 63 65 65 66 66 67 67 68 68 69 70 69 68 68 68 69 69 69 67 66 66 64 64 62 61 60 59 59 59
53 52 62 61 63 61 57 53 56 45 36 42 55 55 60 63 63 64 64 64 65 66 66 67 69 69 68 67 67 66 67 68 68 65 64 62 62 60 58 58 58 58 58 59
55 50 57 60 63 63 60 60 51 52 36 36 51 52 56 57 59 60 61 63 65 66 67 68 69 68 68 68 67 66 66 66 65 64 62 61 59 59 57 56 55 55 56 56
59 55 54 57 56 55 57 55 53 54 49 40 38 49 61 59 60 60 61 63 63 64 66 66 67 67 67 66 67 66 65 64 63 62 60 59 57 56 56 55 55 55 55 55
57 54 49 52 57 59 58 54 54 46 40 45 41 45 62 62 62 61 62 61 63 64 66 66 66 65 65 65 64 64 62 61 61 60 59 57 55 56 55 54 53 53 52 54
58 51 46 49 53 57 54 55 54 50 46 41 36 47 62 63 61 64 62 62 63 64 65 65 64 63 62 62 61 61 60 59 59 59 58 57 55 54 52 52 51 52 50 49
55 53 49 46 50 53 49 52 54 51 41 44 46 50 58 61 61 63 62 61 63 63 62 61 60 60 59 60 60 58 57 58 58 57 56 55 52 50 51 52 52 52 51 50
57 47 50 52 54 54 51 50 52 50 50 42 47 50 56 59 59 60 60 61 60 59 57 56 56 56 59 58 57 58 57 56 56 55 54 52 52 52 52 52 52 51 51 51
55 47 45 43 49 51 47 52 53 52 52 51 51 50 59 60 60 57 57 56 54 53 52 49 50 56 57 56 56 55 56 56 55 54 52 52 52 52 51 50 50 49 49 49
50 46 41 37 44 44 37 47 51 52 53 52 45 54 57 55 54 54 55 54 49 47 45 49 54 57 56 57 55 55 55 55 54 52 52 51 50 49 49 49 49 48 47 47
41 43 39 36 37 31 49 58 56 52 54 57 57 54 54 55 56 59 53 49 42 45 51 54 57 56 57 57 57 56 56 54 52 51 51 50 49 48 48 48 47 46 46 45
51 43 35 32 36 44 49 52 50 48 48 54 52 54 56 57 57 54 45 43 45 51 54 56 58 57 57 57 57 55 54 54 53 49 48 49 48 47 47 46 45 45 45 44
46 44 41 35 30 30 47 53 55 54 43 53 50 48 49 51 38 39 44 50 52 54 56 56 57 57 57 57 57 54 53 53 50 50 49 50 48 46 46 45 45 45 45 43
35 35 34 36 32 41 53 54 55 36 40 52 47 46 45 39 40 45 47 52 55 56 56 57 57 56 56 57 55 52 52 50 52 51 50 49 48 46 46 45 45 44 43 40
43 37 34 35 31 30 54 54 41 50 52 46 45 44 43 43 46 49 52 53 55 55 56 56 54 54 55 56 54 52 51 53 53 50 49 47 47 46 45 45 45 43 41 37
42 48 45 44 45 57 59 56 58 54 50 43 45 50 46 47 49 51 52 53 55 55 55 55 53 51 53 54 54 50 52 51 48 45 46 46 46 45 45 44 42 40 39 33
52 54 45 44 52 55 56 59 56 50 44 48 50 50 50 49 50 51 52 53 53 54 52 52 50 49 49 51 49 47 46 43 43 45 45 46 45 43 44 43 41 39 34 31
53 52 48 47 52 54 57 52 50 46 46 46 52 51 50 51 51 52 51 51 51 51 50 50 48 48 48 49 47 47 46 45 44 44 44 43 42 41 41 41 40 37 35 31
55 52 42 38 51 47 49 48 48 45 48 50 49 50 52 52 51 51 50 50 50 49 49 48 48 47 47 46 45 44 43 42 40 39 41 41 39 39 39 39 38 31 30 28

GFSCGP_sfc_temp_015.txt.gz
Temp
80 75 71 71 73 73 71 69 68 73 74 70 71 73 75 78 80 78 80 81 82 83 85 84 82 83 83 82 83 84 81 78 82 83 79 80 78 80 81 82 79 77 77 75
75 69 72 73 72 71 69 67 67 70 71 70 72 72 74 76 75 79 79 79 80 79 80 80 79 79 78 79 80 80 79 78 79 81 79 77 75 78 78 79 77 77 75 73
70 70 72 71 70 68 68 66 64 64 70 73 70 69 70 73 76 78 79 80 80 78 77 78 77 77 77 76 77 78 78 77 76 76 80 78 78 78 77 77 75 75 73 72
70 72 69 69 66 68 63 68 65 65 64 62 72 61 68 71 71 73 75 76 77 77 78 77 77 75 74 74 76 77 76 77 76 74 74 71 72 70 72 72 73 72 71 71
65 67 67 65 65 68 64 67 66 66 64 65 66 63 63 71 67 69 72 73 74 75 75 74 75 75 75 75 74 75 76 75 75 74 71 69 68 69 71 70 69 68 69 69
69 74 71 68 69 68 70 66 66 66 65 53 62 62 62 66 67 68 71 71 72 74 74 74 75 76 75 75 74 74 74 75 74 72 71 68 66 67 66 66 65 66 65 66
67 66 71 70 67 70 70 64 53 49 50 50 62 59 60 66 69 70 69 71 71 73 73 73 74 75 73 73 73 73 74 73 74 72 70 69 68 66 65 64 63 60 61 61
60 54 65 69 65 62 63 62 50 41 45 52 61 55 61 69 70 71 71 71 71 71 71 72 72 73 73 73 73 71 71 72 73 71 69 69 67 65 64 62 59 59 59 59
59 57 67 67 69 68 62 57 62 50 46 46 58 62 66 69 67 69 68 69 69 71 71 71 73 73 72 72 72 70 69 70 71 69 68 65 64 62 60 59 58 58 58 59
62 54 63 65 68 68 64 66 54 56 39 39 54 57 57 60 64 65 67 68 69 71 71 71 72 71 71 71 70 70 69 69 67 65 66 64 62 61 59 58 57 57 57 58
65 60 59 63 61 60 62 60 58 59 52 42 41 51 65 64 65 64 66 68 69 69 70 71 71 70 71 71 70 69 68 67 66 65 64 62 61 59 59 58 57 54 54 54
62 59 52 58 63 65 63 60 59 48 45 49 45 47 67 66 67 66 67 69 68 69 69 68 67 66 67 67 68 67 66 65 64 63 62 61 60 60 58 56 52 53 51 53
63 56 49 54 58 62 59 60 59 55 50 44 40 47 67 67 67 69 68 68 67 65 64 64 64 65 63 64 65 65 64 62 63 62 61 60 59 57 53 51 52 53 53 52
58 59 52 47 53 59 54 58 60 57 45 46 48 54 62 64 64 65 66 67 64 63 61 61 62 63 63 63 64 63 62 61 60 61 59 58 57 55 53 54 53 53 54 53
61 50 55 57 59 59 57 56 57 55 55 46 51 54 59 62 62 63 64 64 62 62 60 59 59 60 61 63 62 62 60 60 60 59 58 57 56 55 53 53 52 52 52 52
60 49 49 47 56 57 52 56 58 58 57 56 56 53 64 65 65 62 60 60 58 56 56 56 58 60 61 61 60 60 60 59 59 57 56 57 54 51 51 51 51 51 51 50
54 50 46 41 49 46 39 50 56 57 59 56 47 55 63 60 57 54 55 56 55 50 49 55 58 60 60 61 61 60 60 60 59 57 57 55 52 50 50 50 51 50 49 49
48 48 43 38 38 33 54 63 61 57 58 61 61 61 60 55 56 55 57 55 49 51 54 57 59 60 61 62 62 62 61 59 58 57 55 53 52 50 50 50 50 49 48 47
58 49 38 35 40 47 53 55 53 51 51 61 57 57 58 58 57 53 52 52 52 53 57 59 61 61 61 62 62 61 58 58 57 56 55 53 51 49 49 49 48 48 47 46
52 50 44 38 32 32 49 59 60 59 44 56 57 54 52 51 41 46 54 55 56 59 60 60 61 61 61 60 60 58 57 56 55 55 55 54 51 49 48 48 47 48 47 46
37 38 37 37 34 43 58 58 60 40 44 56 54 52 46 44 46 50 53 56 59 60 60 62 61 59 59 59 58 55 56 55 56 55 55 52 48 48 49 48 48 47 46 44
41 37 34 38 33 32 59 57 43 52 57 55 49 46 46 51 51 53 56 57 58 59 60 61 58 57 57 58 56 54 54 55 54 52 48 44 45 47 48 47 47 46 44 40
46 51 47 48 47 61 61 57 59 59 55 50 45 48 50 52 53 55 55 56 58 59 59 59 57 55 55 56 55 52 52 52 48 46 43 44 47 46 48 46 45 43 42 37
57 62 49 49 56 57 58 59 57 56 52 50 48 51 55 53 54 54 55 56 56 57 56 57 54 53 52 54 53 52 49 47 46 43 44 45 45 45 46 46 45 42 39 33
56 58 52 50 57 57 60 55 53 53 51 48 55 55 54 54 54 55 55 55 55 55 55 54 52 51 51 52 51 49 47 45 43 43 44 43 44 44 43 44 42 40 38 33
57 54 48 44 55 50 50 51 53 51 50 54 53 53 56 56 55 55 53 54 53 52 52 53 52 51 51 49 46 45 46 43 40 38 41 41 41 40 38 41 40 33 31 30

GFSCGP_sfc_temp_018.txt.gz
Temp
80 72 67 70 72 73 72 69 68 72 74 70 70 72 76 78 79 78 79 80 81 76 78 79 78 77 78 78 77 77 72 72 73 72 69 68 67 68 70 70 70 69 69 67
74 67 73 75 74 72 71 67 67 72 73 69 70 70 74 75 76 78 78 78 76 75 75 75 74 73 72 73 74 74 74 72 72 72 70 69 67 69 69 69 69 69 66 65
66 69 75 72 71 68 70 65 64 63 70 72 69 66 68 73 76 77 78 78 77 74 73 74 73 71 70 70 70 73 72 71 69 68 71 69 68 68 67 66 66 67 65 65
70 74 71 70 68 68 62 68 66 65 63 57 70 54 65 68 69 72 73 73 73 74 75 74 72 70 69 68 70 72 72 72 71 68 66 63 63 62 63 63 64 64 63 62
66 68 68 66 65 69 64 68 66 65 62 62 64 59 63 69 65 67 70 71 72 72 72 72 71 72 71 69 68 69 71 72 70 68 66 62 61 61 62 61 60 59 59 59
70 76 71 68 70 70 71 67 67 66 62 50 61 60 55 63 65 68 70 71 72 72 72 72 73 73 71 70 69 69 70 71 71 68 66 63 61 59 58 58 57 56 56 56
67 67 72 72 66 71 69 63 49 44 47 45 62 58 58 66 69 70 68 69 70 71 70 71 72 72 71 69 69 69 69 68 69 67 65 63 60 59 57 56 54 53 53 53
59 52 66 71 65 62 64 61 47 39 39 46 62 54 56 68 70 71 71 70 70 70 70 70 70 70 70 69 68 68 67 67 67 64 63 62 61 58 56 54 53 51 51 52
58 56 68 68 70 68 61 55 63 51 44 42 54 59 64 67 66 68 68 69 69 70 71 70 71 69 68 67 66 65 65 66 65 63 61 59 57 56 54 53 52 51 51 54
63 54 65 67 69 69 65 67 52 52 38 38 50 54 51 59 62 65 67 67 68 70 70 69 70 68 68 67 65 64 64 64 63 61 59 58 57 56 54 53 51 50 50 51
65 61 58 65 61 59 61 59 59 58 51 40 38 48 63 62 65 63 65 68 67 67 68 68 67 67 66 65 63 63 63 63 61 60 58 56 55 55 54 52 50 49 49 49
63 59 49 58 65 67 64 60 59 44 44 46 43 45 67 66 67 66 65 66 67 67 65 65 65 65 64 63 63 63 62 60 59 59 57 56 56 55 53 50 49 49 48 49
62 56 47 52 58 64 59 62 60 56 48 41 37 44 67 66 61 64 63 65 63 64 64 64 63 62 62 62 61 62 60 59 59 59 58 56 54 53 50 49 49 49 49 49
58 59 53 45 53 59 54 58 61 57 42 43 45 50 59 63 61 62 63 64 63 62 61 61 60 60 60 61 61 60 59 58 58 58 56 54 52 51 49 49 49 49 49 47
62 51 55 56 58 59 57 56 57 55 55 45 50 53 59 59 61 61 61 61 61 60 60 58 57 57 59 59 59 60 59 58 58 56 55 53 53 52 49 48 48 47 47 47
62 48 48 46 58 56 51 54 55 57 57 56 55 53 64 61 59 57 56 57 58 56 55 54 56 59 59 59 59 59 59 58 57 56 54 55 53 52 49 47 47 47 45 45
55 49 44 40 47 45 38 49 56 56 58 56 46 55 58 56 56 56 56 57 54 52 53 54 56 58 58 58 59 58 59 59 56 55 56 54 52 50 48 48 47 46 43 43
48 47 41 37 37 32 54 62 60 56 58 60 59 58 58 56 56 58 55 52 51 52 53 55 57 58 58 59 59 58 59 57 56 56 55 53 50 49 49 47 46 45 43 41
59 47 37 34 38 45 52 56 52 50 49 59 56 56 55 56 55 54 54 55 54 54 56 58 59 59 59 58 58 56 55 55 55 54 50 49 49 49 47 46 44 42 41 40
55 51 43 36 32 31 49 59 61 59 41 57 55 52 50 51 40 47 53 54 56 58 59 59 60 60 58 57 56 54 53 52 52 51 49 49 48 45 41 39 41 42 42 41
36 39 36 36 34 41 56 60 60 40 42 53 54 52 49 45 47 50 54 56 58 58 59 59 59 56 56 56 55 52 51 50 51 50 48 47 46 42 41 41 43 41 39 36
38 36 33 38 34 32 60 58 43 51 54 54 52 50 47 48 52 54 56 55 57 57 58 58 55 54 55 55 53 51 49 50 49 48 46 44 42 42 45 42 41 40 37 33
45 49 45 45 43 58 62 57 58 56 54 49 51 50 50 51 53 54 53 55 56 56 56 56 54 52 53 54 53 49 48 48 46 44 43 43 43 45 44 41 38 36 35 30
58 63 49 49 55 58 60 59 56 55 52 53 51 52 53 52 53 53 54 54 54 54 53 54 52 51 51 53 52 48 47 46 44 41 41 42 41 41 41 41 39 35 30 28
54 58 53 50 57 58 59 56 54 53 52 51 53 55 54 54 53 53 53 53 53 53 53 52 51 49 49 50 48 47 46 44 41 40 39 37 37 37 37 39 34 32 30 29
56 53 46 44 56 53 52 53 53 49 48 52 54 53 55 55 53 53 51 52 52 50 51 50 50 48 48 47 45 45 45 42 37 34 34 34 34 34 34 35 34 34 31 32

GFSCGP_sfc_temp_021.txt.gz
Temp
68 58 53 57 61 64 62 59 56 56 65 61 59 59 61 64 64 62 63 64 64 65 66 68 67 66 65 67 68 65 63 62 63 62 60 60 59 61 62 63 64 63 62 61
61 54 64 68 66 63 63 59 55 60 66 60 55 57 59 65 63 65 64 63 63 63 65 66 64 61 61 62 63 64 64 63 63 61 60 60 58 60 60 60 61 61 59 59
56 61 70 68 62 61 59 55 55 55 61 58 56 52 57 64 66 68 66 66 65 63 62 64 64 59 59 60 61 64 63 63 61 61 60 59 59 58 58 58 59 58 57 58
61 68 66 63 61 61 54 62 60 59 53 45 55 41 51 59 60 63 63 60 61 62 64 64 61 59 59 58 60 62 63 63 62 61 58 57 54 54 55 54 54 55 55 55
57 61 60 59 60 63 57 61 58 57 51 48 52 45 49 58 56 58 59 61 60 60 61 60 60 61 60 60 60 61 63 62 61 60 59 55 54 54 54 52 52 51 52 53
61 67 63 60 65 64 65 59 58 56 51 36 50 48 48 52 58 58 60 61 62 60 60 62 62 62 60 60 59 59 61 61 60 61 58 54 53 53 50 49 48 48 49 49
60 60 62 66 58 62 59 51 35 34 32 33 52 50 47 56 61 61 59 57 58 59 58 59 60 63 62 58 58 60 59 60 59 58 56 54 52 50 48 47 46 46 46 46
48 44 58 65 59 53 55 52 33 31 29 34 52 44 47 59 62 63 63 60 61 60 61 60 61 60 59 59 58 58 59 60 58 57 54 53 52 49 48 48 47 46 45 45
49 49 61 63 63 60 55 45 54 41 35 30 43 50 57 60 62 63 61 61 58 60 61 62 59 58 57 57 57 56 57 57 58 54 53 52 52 50 49 48 46 44 44 49
56 47 59 62 62 62 57 59 42 38 30 30 40 43 42 52 55 58 60 59 60 60 59 57 57 57 57 56 56 56 57 56 54 53 53 51 50 50 48 45 44 44 44 45
55 51 50 58 53 51 52 49 50 49 38 29 26 36 52 52 55 55 57 58 56 55 54 55 56 56 56 56 56 55 54 53 52 52 51 50 49 49 46 45 45 45 44 44
54 49 36 50 57 60 56 52 51 32 36 32 30 35 55 53 57 56 56 56 55 56 55 54 55 55 54 54 54 54 52 52 51 52 51 50 49 48 46 45 45 45 43 44
53 46 33 42 50 56 52 56 55 46 36 34 25 32 58 60 55 58 55 54 56 55 54 53 53 52 52 53 53 52 52 51 52 52 50 48 48 47 45 44 44 45 44 43
53 51 42 34 44 49 45 51 53 46 30 33 34 42 51 51 52 53 52 52 52 53 52 51 50 50 51 53 52 52 52 52 52 51 49 49 47 48 45 44 44 45 44 43
52 42 46 48 51 52 49 49 49 47 45 35 40 45 48 48 48 50 52 53 53 51 51 50 49 49 50 51 51 51 51 51 51 50 49 48 49 48 45 45 45 45 44 43
52 36 38 37 49 48 43 47 48 49 49 47 47 45 52 51 52 50 51 51 49 49 50 50 50 52 52 52 51 52 50 50 51 50 50 50 47 46 45 43 45 42 43 41
45 36 32 31 40 37 30 41 48 49 51 48 38 45 49 47 48 46 45 47 48 47 47 49 50 51 51 50 51 47 48 49 48 49 47 47 45 45 44 43 43 42 41 39
40 36 32 26 29 22 45 54 52 49 50 51 50 48 48 46 47 46 48 46 45 47 49 50 50 50 50 49 48 48 48 47 47 46 45 45 44 43 41 41 40 40 39 38
50 35 27 26 27 36 46 51 47 43 42 50 47 47 47 47 48 43 48 47 46 48 49 49 49 49 48 47 47 47 46 45 46 43 43 42 41 39 38 37 35 36 38 36
46 39 31 28 21 19 39 52 55 52 31 48 48 44 43 44 30 38 46 49 48 50 50 50 49 48 46 47 47 45 44 43 42 43 43 43 42 39 39 36 37 37 36 34
32 33 26 23 20 31 47 54 55 32 34 46 47 44 42 38 39 44 47 48 49 50 50 49 48 45 45 47 46 44 42 41 43 43 42 41 39 38 39 36 35 36 33 30
30 28 25 30 29 24 52 52 39 43 47 47 45 43 44 45 45 47 49 49 50 47 48 48 45 44 45 47 45 42 40 42 42 41 39 39 38 39 41 38 37 34 29 28
35 38 33 35 33 47 52 49 49 50 46 44 44 47 47 45 47 47 47 48 47 46 45 46 43 44 45 45 43 40 40 41 39 37 36 36 37 38 38 33 30 29 28 23
47 51 37 40 47 50 49 49 49 48 46 47 49 48 49 46 47 46 46 45 45 44 43 44 44 43 42 43 43 40 40 39 37 34 34 34 33 33 33 33 31 27 22 20
44 49 46 40 47 49 49 49 49 47 48 49 51 51 49 48 46 45 44 43 43 42 43 43 42 41 41 41 40 40 40 38 35 33 33 30 29 30 30 30 28 27 25 24
48 45 37 34 47 46 44 47 49 47 48 49 48 48 50 47 44 44 42 42 41 41 42 42 42 40 39 39 39 39 39 36 33 30 29 27 26 26 28 28 27 32 31 33

GFSCGP_sfc_temp_027.txt.gz
Temp
61 55 49 51 53 56 54 49 48 49 55 55 52 52 51 51 52 50 51 53 54 55 56 57 59 60 59 57 58 58 58 57 57 55 55 55 52 53 53 55 54 53 56 55
56 50 56 61 58 57 55 51 48 52 58 55 50 47 51 52 50 51 53 53 54 54 56 57 56 55 55 56 57 58 58 59 57 57 55 55 53 52 52 51 52 54 53 52
51 55 62 60 55 55 51 49 48 50 53 54 50 46 47 53 55 56 54 55 56 55 54 55 55 54 53 55 56 58 57 58 57 57 55 54 54 52 50 49 48 50 50 50
55 60 59 56 54 53 47 54 54 52 48 42 49 35 45 49 50 52 52 51 53 55 55 56 54 53 53 54 55 56 57 57 57 56 55 54 52 49 48 47 47 48 49 48
51 53 54 54 53 55 52 55 52 51 44 42 45 38 41 49 45 48 49 52 53 56 57 54 55 56 56 55 53 54 55 55 55 54 53 51 50 49 48 47 47 48 47 47
55 58 56 54 57 56 57 53 50 46 44 34 43 40 39 43 47 49 51 54 56 55 56 55 55 56 55 54 52 52 53 53 53 53 52 51 48 47 46 45 45 44 44 44
53 53 57 58 52 55 53 45 33 32 30 31 45 41 41 49 52 53 51 51 52 52 52 53 56 56 56 53 51 52 53 53 52 51 50 49 48 47 46 46 44 43 42 42
43 41 52 58 52 49 48 46 32 33 28 32 45 36 42 50 54 55 55 54 53 52 54 54 52 52 52 53 52 52 52 52 51 50 49 48 48 47 46 46 43 42 42 42
43 44 54 55 55 54 48 41 48 35 31 29 36 42 50 50 52 53 53 55 52 50 49 50 51 51 51 52 52 51 51 50 50 49 48 47 47 46 45 44 43 41 41 44
50 42 52 56 56 55 52 53 39 34 28 29 34 36 37 46 48 52 49 48 48 49 50 50 50 51 52 53 51 50 50 50 50 49 48 48 46 46 45 43 42 41 41 41
50 46 45 51 48 45 48 44 43 41 33 27 24 32 45 48 49 48 46 48 49 49 49 49 51 52 52 51 49 48 48 49 48 47 47 46 45 45 44 42 41 41 41 41
48 43 34 44 52 53 49 45 43 30 34 28 27 32 48 48 50 50 49 50 48 48 49 49 52 52 51 49 48 48 47 47 47 46 45 45 44 44 43 41 41 40 40 43
49 41 32 39 46 50 45 47 43 39 33 32 24 31 49 49 47 48 46 47 46 46 46 47 47 48 48 48 49 48 46 46 45 45 44 43 43 42 41 41 41 40 41 40
51 43 39 34 39 43 40 44 43 41 29 31 31 36 43 43 44 45 45 45 44 45 46 45 46 46 48 49 46 45 45 44 45 44 43 42 41 42 41 40 40 40 40 39
47 39 40 41 43 43 43 43 42 40 39 34 37 38 43 43 43 44 46 44 44 45 47 47 46 48 46 45 44 44 44 44 44 43 42 41 41 41 40 40 40 40 38 39
45 35 37 36 41 40 38 43 41 41 41 41 40 38 45 45 45 45 45 44 44 48 47 47 46 46 45 44 43 45 44 44 43 42 41 41 41 40 39 38 37 37 40 38
40 34 32 29 34 35 30 39 42 43 44 43 34 41 43 42 43 42 42 43 44 44 44 44 44 45 43 43 44 43 43 43 41 41 41 40 39 38 37 37 36 37 36 34
36 31 26 24 26 21 41 45 46 44 44 43 41 41 44 43 42 43 43 43 42 43 44 43 43 43 43 43 43 42 42 41 39 39 39 39 38 37 36 35 37 37 36 31
43 31 26 22 25 34 41 45 43 41 40 44 42 42 42 41 41 39 44 44 43 44 44 43 43 43 42 42 42 41 39 38 39 38 37 37 37 36 35 34 33 33 31 30
39 34 29 26 19 19 37 45 49 47 32 45 43 41 41 39 29 37 43 44 45 45 44 43 42 42 41 41 40 39 37 37 37 37 37 37 36 35 34 33 32 34 33 32
29 25 23 16 17 29 41 47 49 33 35 43 44 43 39 37 39 42 45 45 45 44 44 43 41 40 39 40 39 37 36 36 38 38 37 36 34 33 33 32 32 30 28 28
31 29 27 26 19 26 46 45 38 42 41 44 43 42 41 44 44 45 46 43 44 42 41 40 39 39 39 39 38 36 35 38 37 36 34 33 32 33 33 29 28 29 28 27
32 36 32 34 34 44 46 44 46 45 44 43 43 43 45 43 45 44 42 43 41 39 38 39 37 38 38 38 37 35 36 36 35 33 32 32 32 32 31 29 27 27 26 21
41 44 34 37 44 44 45 46 45 45 44 44 45 46 46 45 44 42 40 39 38 37 36 37 37 35 35 37 37 35 35 35 33 33 33 32 30 30 29 30 29 26 20 18
40 42 40 36 42 43 46 46 45 44 45 46 47 47 46 44 40 39 38 37 37 36 36 36 35 34 34 35 34 34 34 34 34 34 33 31 30 28 29 29 27 27 26 23
43 42 35 35 45 44 44 45 45 43 44 46 46 44 44 41 39 39 37 36 36 35 35 34 34 33 33 33 32 33 34 33 34 32 32 30 28 24 27 28 27 31 30 32

GFSCGP_sfc_temp_033.txt.gz
Temp
64 63 58 61 61 61 59 57 56 58 61 57 52 52 54 56 59 58 59 60 60 59 59 61 61 62 63 63 63 63 57 56 57 57 57 60 59 61 61 63 62 61 61 61
61 56 61 60 61 58 57 56 55 57 58 57 53 52 53 55 54 57 59 58 59 58 60 60 61 62 64 61 58 60 63 61 64 66 65 65 63 62 61 61 60 61 60 60
57 60 61 60 58 58 55 55 54 55 57 57 55 53 52 54 55 55 56 57 59 60 59 59 60 61 62 61 63 65 65 65 66 65 63 61 60 60 60 60 61 60 59 59
58 61 59 58 56 58 53 58 57 55 55 52 55 50 51 51 51 52 55 57 59 59 60 60 60 60 61 61 63 65 65 65 64 63 63 62 64 62 61 60 61 61 58 58
56 57 57 56 56 59 55 58 56 54 52 52 51 52 51 50 49 51 54 57 58 59 61 60 61 62 63 62 63 64 64 63 63 64 63 63 60 59 59 59 57 57 57 56
57 63 61 60 58 59 57 56 54 51 51 44 47 49 50 49 52 53 55 57 58 58 60 61 62 62 62 62 61 61 64 61 62 62 61 60 59 58 60 59 59 58 58 57
55 56 60 61 58 59 57 53 43 41 41 40 47 45 52 54 55 57 56 58 58 59 60 61 60 60 61 61 62 62 63 61 60 60 60 60 60 59 59 59 58 57 57 57
48 47 57 60 58 55 52 53 43 36 36 41 47 43 52 55 58 61 60 61 59 59 60 60 60 61 62 61 61 62 62 60 59 59 60 60 59 59 57 55 55 55 55 54
48 48 59 58 60 59 52 48 52 40 36 38 45 49 55 53 55 57 58 58 58 59 59 60 60 60 59 59 59 59 60 58 57 59 59 56 56 55 55 55 54 53 53 54
53 46 54 58 60 57 56 55 46 44 34 34 41 42 48 49 51 55 56 57 59 58 58 58 58 57 58 59 58 58 58 55 57 57 56 55 55 54 54 53 52 52 53 53
54 52 50 54 53 52 52 48 45 46 41 37 34 44 52 53 54 54 57 59 57 57 56 56 56 57 58 57 57 56 54 57 56 54 54 54 53 53 52 52 52 52 51 52
53 48 43 49 55 56 55 51 49 41 39 36 37 44 53 53 56 56 57 55 55 55 55 55 56 57 57 57 54 52 55 54 53 55 54 53 52 52 52 51 51 50 49 49
52 46 41 45 51 54 52 50 46 43 41 38 36 44 52 52 52 56 56 53 52 52 53 54 54 55 56 53 54 55 53 53 54 55 54 52 51 50 49 49 49 48 47 47
52 46 45 42 46 48 46 46 47 47 39 40 41 46 51 52 51 51 51 52 52 52 52 54 54 54 53 54 54 52 52 53 54 54 53 50 49 48 48 48 47 46 45 45
52 45 45 44 44 46 47 46 45 46 45 43 46 44 51 54 54 53 51 50 49 50 50 52 52 53 53 53 51 52 52 52 53 51 50 48 48 48 47 46 45 44 43 44
48 42 43 41 42 42 43 46 46 45 45 45 45 45 53 52 52 50 49 49 48 50 51 51 51 52 52 50 52 50 51 51 50 48 48 47 47 46 45 45 43 43 43 42
44 40 39 36 37 39 36 43 46 45 46 49 43 52 49 48 48 50 49 49 49 50 50 51 50 51 51 51 50 51 51 49 47 47 46 46 45 45 44 44 43 43 42 41
40 37 34 34 32 31 47 49 49 47 49 49 48 49 50 50 49 50 52 50 49 50 50 50 49 48 50 51 50 49 48 47 46 45 45 45 44 43 43 43 42 42 42 41
44 37 30 33 33 39 48 45 45 44 48 51 50 49 47 46 49 50 50 52 52 51 50 51 51 50 50 50 48 47 46 46 45 44 45 45 43 42 41 41 40 41 41 39
41 39 39 30 32 31 43 49 51 52 41 51 50 46 45 48 43 52 50 50 50 51 50 49 49 49 49 48 46 46 46 44 43 43 44 44 43 41 40 40 39 40 41 39
34 32 33 26 33 37 46 50 52 40 44 47 49 48 45 46 51 50 49 48 50 49 48 48 48 48 47 46 45 44 43 42 43 43 43 43 42 40 40 39 40 39 39 37
37 33 31 27 29 32 48 50 44 50 49 49 49 48 46 48 47 46 46 46 46 46 46 47 45 45 44 45 44 43 42 43 43 42 41 41 40 40 39 39 39 38 37 35
37 41 38 39 40 48 50 50 51 50 50 51 48 49 49 46 46 45 43 45 45 44 43 45 45 43 43 43 43 41 42 41 41 40 40 40 40 40 39 38 37 36 36 34
42 44 40 41 48 46 48 51 50 51 51 52 51 51 49 48 46 44 43 42 41 42 44 43 42 41 40 40 40 40 40 40 38 38 39 40 39 39 38 38 37 36 34 33
43 43 42 41 46 46 49 49 52 51 50 50 50 50 49 47 43 43 41 39 40 41 41 42 40 39 38 39 39 39 39 38 37 37 38 38 38 36 36 36 37 35 36 34
44 44 40 40 48 49 50 52 51 48 49 49 48 45 45 46 42 40 38 39 40 41 40 39 38 38 38 37 37 37 37 36 35 35 37 37 36 36 35 35 36 33 32 32

GFSCGP_sfc_temp_036.txt.gz
Temp
72 68 65 70 71 71 70 67 66 69 70 71 68 68 68 70 73 73 73 74 74 74 73 74 73 74 76 72 70 71 67 59 59 59 60 62 62 64 68 71 69 69 70 69
69 66 69 70 69 68 67 66 64 65 68 69 67 66 66 68 72 73 74 73 73 72 72 71 72 72 70 72 72 68 68 65 67 69 71 74 72 72 72 71 69 69 68 69
67 66 69 70 68 66 65 64 63 64 66 69 67 64 63 64 66 67 69 73 73 73 72 70 71 72 69 69 70 71 73 73 74 74 73 72 70 69 70 69 70 69 68 69
67 68 67 68 65 66 62 66 66 65 64 60 67 58 64 64 64 64 66 68 71 72 71 72 72 71 72 72 74 77 76 76 74 73 73 71 74 71 72 70 70 71 67 68
63 66 66 65 64 66 62 67 66 65 65 62 62 60 65 64 62 64 66 68 69 70 71 71 73 74 75 73 74 75 74 74 73 72 73 72 70 70 70 69 67 68 69 66
66 71 70 67 66 68 67 65 65 65 63 52 61 59 63 67 66 65 65 67 68 69 70 72 74 74 73 73 72 71 72 72 72 72 70 69 67 67 68 69 67 68 67 67
65 64 69 69 65 67 67 63 54 48 49 48 57 56 63 65 66 68 65 67 68 69 70 71 71 71 70 70 70 71 72 70 70 70 70 69 67 67 66 65 65 63 64 64
59 53 64 67 66 64 63 62 52 41 44 51 56 52 63 65 67 69 70 70 69 69 71 71 71 71 71 70 71 71 72 70 69 68 67 67 66 69 68 65 64 63 62 62
58 56 66 65 67 67 60 58 61 51 44 46 57 60 65 64 64 67 68 69 69 70 71 71 71 71 71 70 69 69 70 69 65 62 63 62 66 64 63 62 62 62 61 61
62 54 62 63 67 65 64 65 53 55 40 41 53 54 61 59 62 65 66 67 69 72 71 70 70 69 69 70 67 67 67 65 59 60 63 65 64 63 62 62 60 59 59 59
67 62 57 61 61 61 59 58 57 58 52 46 45 57 65 63 65 65 67 69 70 71 70 69 69 68 68 68 68 66 63 60 59 61 61 62 62 62 62 61 59 58 58 57
63 61 53 58 62 64 63 61 61 51 47 49 48 54 65 65 67 68 69 70 72 71 70 69 67 66 66 66 66 63 60 59 59 61 61 61 62 61 60 59 58 57 55 55
63 58 50 52 58 61 59 61 61 56 54 48 43 54 65 65 65 68 68 70 68 67 66 66 65 65 65 64 62 58 57 58 63 63 63 62 60 60 58 56 56 55 54 53
59 59 56 50 56 60 55 57 59 59 49 52 52 59 62 64 65 67 67 68 66 64 63 64 64 65 64 62 58 59 59 61 62 62 62 60 58 57 57 55 54 53 52 51
62 55 56 55 55 55 56 57 57 56 58 50 58 58 65 67 68 69 68 67 64 62 62 63 63 63 63 61 62 62 61 61 61 60 59 58 57 55 54 53 52 52 50 51
58 53 52 49 52 52 51 57 58 59 59 58 60 58 70 69 67 66 63 63 62 61 62 62 63 63 62 61 61 60 60 59 59 58 56 56 53 53 52 51 50 50 50 50
56 52 49 46 47 48 40 52 58 59 60 59 54 62 66 62 62 64 64 63 62 62 61 61 62 61 61 60 60 59 59 58 57 56 54 53 52 51 51 51 50 50 49 49
51 51 46 43 39 35 57 59 59 59 61 65 63 65 64 65 65 64 67 65 62 62 62 62 62 60 61 60 60 59 59 57 55 53 52 52 51 50 50 50 49 49 48 47
56 51 39 38 43 51 58 56 54 53 57 64 63 65 62 59 59 61 64 65 64 63 63 63 63 60 59 58 58 58 56 55 52 51 51 51 51 50 49 48 47 47 47 47
52 52 49 40 37 36 53 56 59 59 50 61 61 60 57 58 52 63 64 62 63 64 64 60 58 58 55 58 56 54 53 51 50 50 51 51 50 49 48 47 46 47 47 45
42 42 39 40 38 48 58 58 59 45 51 61 60 61 58 56 63 61 64 61 63 62 60 57 53 53 56 54 54 52 51 49 50 50 50 50 50 48 47 47 47 47 46 44
46 42 38 39 36 36 58 56 50 58 61 60 60 61 59 61 57 58 59 58 58 57 54 55 53 51 51 52 51 51 49 51 50 49 48 48 48 47 46 46 46 45 44 42
46 52 51 51 52 58 60 61 63 61 59 61 60 62 60 58 57 56 56 55 55 55 54 54 52 48 50 50 50 47 50 48 47 46 46 47 46 46 46 46 44 43 43 40
53 53 50 49 58 59 60 63 64 64 61 62 63 62 61 59 59 55 54 53 52 49 49 48 48 48 46 47 46 48 47 47 45 44 45 45 45 45 46 45 42 42 40 37
54 53 52 51 58 60 61 61 60 60 61 60 61 59 58 59 56 54 52 48 47 44 42 47 47 48 47 46 45 47 46 45 44 43 44 43 44 44 44 44 42 40 40 38
55 52 49 49 54 54 57 60 59 57 58 58 57 53 54 56 53 52 45 44 42 40 45 47 46 44 44 43 45 45 45 43 41 40 42 43 42 42 41 41 40 36 34 33

GFSCGP_sfc_temp_039.txt.gz
Temp
75 68 65 70 72 73 71 69 68 73 76 72 72 72 73 77 78 77 78 79 79 80 83 81 82 83 84 81 75 73 69 69 67 65 65 61 62 65 67 69 71 71 72 71
70 65 73 77 74 72 71 68 66 72 75 73 73 71 75 77 78 80 79 79 80 81 79 78 78 80 81 77 73 71 71 70 73 73 73 72 71 71 74 73 72 73 71 71
63 69 74 73 72 69 69 66 64 67 71 74 73 69 71 75 79 80 81 82 82 80 77 77 77 76 75 73 72 75 73 75 76 76 77 76 76 74 72 72 71 71 71 71
64 71 72 72 69 71 63 72 70 68 66 60 73 58 68 72 71 72 75 77 80 79 80 78 77 73 74 74 77 77 78 78 77 77 76 73 73 72 73 73 74 72 70 70
67 70 70 69 69 72 64 71 71 70 68 66 67 63 62 73 69 70 74 75 77 79 78 77 77 76 76 77 77 78 79 79 77 77 76 74 73 74 74 73 70 69 70 70
62 78 75 72 72 73 73 69 69 70 67 54 64 63 64 68 72 74 74 74 76 76 77 78 78 78 78 78 77 77 78 77 76 75 75 73 71 70 68 69 68 69 70 69
69 70 73 75 69 72 71 66 53 50 52 50 64 61 66 73 73 75 72 74 75 75 75 76 76 76 75 74 74 74 76 74 74 73 73 72 70 68 67 68 68 66 66 66
59 55 69 74 71 67 68 66 54 43 46 53 64 56 66 73 74 75 76 75 75 74 75 75 76 76 74 73 73 74 74 72 73 72 71 70 69 68 68 68 66 65 64 64
58 58 71 71 73 72 66 61 68 57 52 49 59 67 71 71 71 73 73 73 72 73 74 75 76 76 75 74 73 73 73 72 72 70 68 66 64 67 67 65 65 64 63 63
68 57 68 68 72 71 68 71 57 58 43 43 57 60 63 65 67 70 71 71 73 75 75 76 76 75 75 75 73 73 73 71 69 68 66 65 64 66 65 64 62 61 61 61
73 66 61 66 64 66 64 62 63 62 58 47 46 59 70 68 70 70 72 74 74 74 75 75 75 75 75 74 72 71 71 69 67 66 63 62 65 64 64 63 62 61 60 59
71 66 57 62 69 71 70 66 65 52 52 54 51 55 72 72 73 73 73 75 76 76 77 77 75 74 73 71 71 70 68 67 66 64 60 63 64 64 62 62 61 60 58 58
69 62 53 56 63 67 63 67 67 65 59 52 46 55 73 73 71 73 74 76 76 76 77 76 75 72 71 70 70 68 67 65 64 60 65 65 64 62 62 61 59 59 57 56
62 64 59 52 59 66 59 63 66 63 51 53 56 61 68 70 70 73 73 76 77 75 75 75 73 71 71 70 68 67 64 63 61 64 66 64 62 61 60 59 58 57 56 54
66 58 62 64 64 63 63 63 64 61 61 54 60 62 70 73 73 74 76 75 74 72 71 71 70 70 70 68 67 66 64 63 64 64 64 62 62 60 59 57 56 55 54 54
67 57 59 54 62 61 58 62 64 64 64 64 65 64 75 75 77 73 73 73 72 71 70 70 70 70 68 66 65 65 64 63 64 62 61 61 59 58 56 55 54 53 53 53
62 58 53 48 55 55 43 56 61 64 67 65 57 66 74 70 69 70 72 71 70 71 70 69 69 69 68 67 66 63 63 63 60 60 59 58 57 55 55 55 54 53 52 52
59 57 52 46 41 34 61 67 65 62 66 70 69 70 73 72 71 71 73 72 70 70 70 70 70 69 68 68 65 62 62 60 59 58 57 57 55 54 54 53 52 52 51 49
64 57 45 40 46 55 60 64 60 58 60 68 66 68 71 69 67 68 72 71 71 71 71 71 71 69 67 64 62 61 59 59 57 55 55 55 55 53 53 52 51 51 50 49
59 59 52 45 37 34 56 62 65 64 51 66 66 66 66 65 56 64 69 69 69 70 71 69 69 67 64 62 60 59 57 56 55 55 53 55 54 52 51 51 50 50 50 48
46 45 43 45 41 50 63 64 64 48 51 64 66 66 65 62 64 66 70 68 70 70 70 68 65 62 62 62 59 55 55 53 54 54 53 53 53 52 51 50 49 49 48 47
48 45 40 46 37 37 65 63 53 60 66 66 66 66 63 66 65 64 65 66 67 66 65 63 60 59 57 55 53 52 53 55 53 52 50 51 50 50 50 48 48 48 48 44
51 57 54 55 54 63 66 65 68 67 64 65 65 66 66 64 64 65 63 63 63 63 61 61 57 52 49 50 52 50 51 51 51 49 48 48 50 50 50 47 47 46 45 43
60 61 55 54 62 64 66 67 68 67 64 66 66 65 66 64 65 64 61 60 59 60 57 53 47 44 44 49 50 50 48 48 46 45 46 47 47 47 48 48 48 46 41 39
59 60 57 56 62 63 66 64 63 62 64 64 66 64 61 62 63 61 58 57 55 50 44 43 43 45 49 50 47 48 47 47 45 46 46 45 45 45 46 47 47 44 43 40
62 58 53 52 57 56 59 61 60 60 59 59 60 59 59 61 58 57 52 47 41 38 41 44 47 47 47 47 46 47 47 47 44 42 43 43 43 43 44 44 42 40 36 36

GFSCGP_sfc_temp_042.txt.gz
Temp
73 65 61 66 68 69 68 66 64 71 76 71 69 70 73 77 77 75 76 76 77 77 80 79 78 79 78 73 68 68 65 65 63 63 61 61 60 61 62 63 63 64 65 65
64 60 70 70 71 69 69 63 64 71 74 71 70 69 73 76 76 77 76 75 75 76 78 77 77 77 75 72 71 67 66 66 66 69 68 66 64 63 64 65 64 66 65 65
60 64 68 72 69 67 67 60 61 61 70 73 70 66 69 75 77 79 79 79 79 77 75 75 76 75 75 71 68 69 67 67 68 70 70 68 66 65 64 64 63 64 65 65
61 66 67 68 68 70 60 67 67 66 63 56 65 52 65 70 72 75 77 77 77 79 77 77 75 74 74 71 69 70 70 71 72 71 69 66 66 63 65 64 65 63 64 64
56 57 64 65 67 72 60 67 65 68 65 58 56 52 57 68 66 72 75 77 78 79 78 76 75 73 73 70 70 70 72 73 72 71 69 66 66 64 65 64 62 63 61 62
61 70 70 71 73 73 70 66 68 68 63 47 52 51 55 60 62 64 74 75 76 77 78 78 73 73 72 71 71 72 73 72 72 70 69 67 65 64 62 62 60 61 61 60
66 67 74 75 68 72 70 64 49 36 38 46 65 60 63 62 71 74 72 74 75 76 75 75 74 73 72 71 71 72 73 71 70 68 68 67 65 64 61 61 61 59 58 57
58 53 69 74 69 57 61 63 44 37 35 48 63 55 62 72 76 77 77 76 75 74 74 74 74 73 72 71 70 70 72 70 70 68 67 66 64 61 61 61 60 57 56 54
54 54 66 73 75 68 61 59 67 56 50 45 55 63 69 72 71 73 73 73 71 72 73 73 73 72 71 70 68 68 70 70 68 66 64 62 62 61 59 58 59 56 55 58
59 46 60 69 73 72 67 71 56 57 41 40 53 58 55 63 67 70 70 70 71 72 73 73 73 71 71 70 69 68 69 68 67 65 62 62 61 59 59 59 57 56 54 54
61 51 53 66 63 63 63 60 62 62 57 43 41 52 68 68 70 68 70 72 71 71 72 72 73 73 72 71 70 69 69 67 65 63 61 59 58 58 59 58 56 55 54 53
70 64 54 60 71 73 69 64 64 48 49 52 47 50 72 71 72 72 72 74 73 74 74 74 74 72 72 70 69 67 67 65 64 62 59 58 58 59 58 57 56 54 52 52
70 61 49 55 64 68 63 66 66 64 59 50 41 50 73 72 72 73 72 74 74 74 74 74 73 72 71 69 67 67 65 63 63 62 59 58 58 58 58 56 55 54 52 51
63 63 57 49 57 64 59 62 66 63 47 49 50 57 67 70 69 72 72 73 74 73 74 74 73 71 69 68 67 66 63 62 61 61 60 58 58 58 56 55 54 52 52 50
66 56 61 63 65 65 62 62 64 61 61 51 56 59 67 71 71 73 74 74 73 74 74 74 72 70 69 67 67 65 63 60 60 59 59 58 58 57 56 54 52 52 50 50
67 56 58 55 62 62 58 61 63 63 63 63 63 61 73 75 73 71 72 72 72 72 73 72 71 71 69 68 65 64 61 60 60 58 57 58 57 56 53 51 51 50 49 49
62 56 51 45 55 53 42 54 59 62 65 64 55 64 72 70 71 69 70 71 70 70 71 71 70 69 68 67 64 61 62 61 58 57 57 57 56 54 52 52 51 49 48 47
60 56 50 43 40 35 57 68 66 61 64 67 67 67 69 66 69 71 72 70 69 70 70 70 69 68 68 66 65 62 61 59 55 56 56 56 54 52 51 51 50 48 47 45
66 55 43 38 43 52 58 63 61 58 58 65 64 65 68 68 67 66 72 69 68 68 70 69 69 68 67 65 62 60 58 56 54 54 54 54 52 51 50 49 47 47 45 44
61 60 48 43 37 33 55 62 67 65 48 64 64 63 63 66 51 58 68 69 69 70 70 68 68 67 64 61 60 57 54 53 52 52 51 52 51 50 48 47 46 46 45 45
44 44 40 41 39 47 63 65 65 46 48 63 63 63 62 59 60 63 66 67 69 69 68 67 64 61 60 59 57 52 49 48 50 51 52 52 51 49 48 46 45 44 43 41
44 43 38 44 35 34 66 63 52 58 63 63 63 63 61 63 64 65 65 65 66 65 62 62 57 52 51 51 49 47 46 51 51 49 47 48 47 47 48 44 43 43 41 38
49 56 50 50 49 62 67 64 67 65 63 62 62 63 63 62 63 64 63 63 62 60 59 58 51 48 47 47 46 44 47 49 48 45 43 44 46 47 47 43 41 40 40 34
61 63 55 55 62 64 66 67 64 63 61 63 64 64 61 59 61 62 60 58 52 49 48 46 44 42 41 45 48 49 47 45 44 42 43 44 44 43 43 43 42 40 35 32
59 61 58 57 61 63 62 60 59 61 61 60 62 59 58 60 58 57 53 48 44 42 42 43 42 43 46 48 46 46 46 46 43 43 44 42 41 40 41 43 41 36 36 34
62 58 50 49 57 56 53 57 59 56 55 56 56 52 52 52 47 43 39 40 41 41 43 43 44 44 45 47 47 47 47 45 43 41 40 37 36 36 38 38 37 39 36 36

GFSCGP_sfc_temp_045.txt.gz
Temp
59 54 50 56 60 64 61 58 56 61 66 60 60 58 61 66 66 64 65 66 65 67 71 73 72 73 69 65 63 62 60 59 58 56 54 53 52 53 54 56 58 59 59 59
56 48 62 67 66 62 61 59 58 63 66 62 59 59 63 66 65 67 65 64 65 65 69 70 68 69 66 64 62 61 61 60 59 58 57 57 54 55 56 57 57 59 59 59
51 56 65 67 63 61 58 54 54 54 59 61 58 54 59 65 67 69 69 69 70 68 68 69 68 65 63 63 61 61 62 61 61 61 60 58 56 55 54 55 55 57 60 60
58 64 63 61 60 63 53 65 62 60 54 45 57 41 53 60 65 68 68 67 67 65 68 70 67 62 64 62 62 63 63 62 63 65 61 57 55 55 56 56 56 57 59 59
54 57 59 57 60 65 57 63 62 60 56 53 51 43 51 58 59 64 63 65 68 69 68 68 67 64 65 63 62 63 64 63 64 66 63 60 56 56 56 57 57 57 59 60
60 65 62 60 65 65 66 60 60 53 50 40 52 49 46 55 60 63 68 69 66 64 68 69 69 68 65 64 63 63 64 65 64 63 61 59 58 58 58 59 58 58 57 55
58 62 65 67 57 63 61 53 39 35 33 34 55 50 49 61 66 63 66 69 62 65 62 64 65 65 65 64 63 62 62 64 64 61 60 59 57 56 55 56 57 55 51 49
48 46 58 64 60 56 57 53 38 32 31 35 56 47 52 64 66 68 69 64 64 63 63 63 65 64 64 64 62 65 67 68 65 61 59 58 57 54 54 55 54 53 52 52
47 49 61 65 65 62 54 47 58 44 39 32 44 54 59 63 63 63 63 63 60 61 62 62 63 64 64 61 61 64 65 63 60 59 56 55 55 54 53 54 55 53 53 54
54 45 55 61 63 64 59 62 45 44 34 32 42 45 45 55 60 61 60 59 60 62 62 62 62 61 61 61 61 61 61 60 58 56 56 55 54 54 55 53 54 53 52 52
55 50 48 56 54 54 55 52 54 52 43 33 29 40 55 58 60 59 59 61 61 61 61 61 61 63 63 61 61 61 59 60 59 57 54 53 52 55 56 55 53 52 51 51
58 49 41 49 59 64 62 56 52 35 41 40 33 38 59 60 61 61 61 64 63 64 63 62 62 63 62 61 62 59 58 61 59 57 55 55 56 56 56 54 51 52 50 49
58 49 37 45 53 59 55 58 58 54 44 40 30 38 61 63 61 63 61 62 64 64 62 63 63 63 63 63 64 63 61 60 58 57 57 55 55 55 54 54 52 49 48 47
59 55 47 38 47 53 50 55 57 52 34 39 40 47 56 58 60 61 63 62 60 64 66 64 65 65 66 65 64 63 59 58 57 57 56 55 54 54 54 52 50 48 47 47
57 48 51 53 56 56 55 54 55 55 51 41 47 50 56 57 58 59 60 61 63 64 63 63 62 58 58 58 58 60 57 57 57 57 56 54 54 53 51 50 49 48 47 49
57 46 48 45 55 54 48 53 53 54 54 52 52 51 59 60 60 60 62 63 62 61 63 62 60 60 60 59 57 58 57 56 57 55 54 54 52 51 50 49 48 48 47 47
51 47 39 36 46 46 35 47 51 53 54 52 44 51 56 56 58 57 58 60 60 60 61 63 61 60 59 59 58 56 56 56 54 53 53 52 52 51 49 49 49 47 45 44
49 46 37 32 33 26 48 58 59 54 54 54 55 55 56 56 56 58 57 57 58 60 60 61 60 59 56 56 57 56 56 54 53 51 51 49 49 49 49 47 47 45 44 43
55 42 34 31 30 42 50 54 52 50 47 54 52 54 56 57 55 53 59 59 58 58 59 58 57 55 54 55 55 55 53 52 51 49 49 49 47 46 47 45 43 43 43 42
52 47 36 31 28 24 43 55 59 57 37 54 54 52 52 53 38 45 56 58 58 58 56 55 54 54 52 50 51 49 49 47 46 47 47 48 47 46 44 43 42 42 42 42
33 34 31 26 25 35 54 58 58 37 38 52 54 53 52 47 49 54 57 57 56 53 49 48 46 45 45 47 47 45 46 45 47 47 47 46 46 45 44 42 42 42 40 38
37 33 27 32 31 30 58 55 44 47 52 52 53 52 51 52 54 56 55 53 53 47 45 45 42 42 43 45 45 44 43 46 46 45 45 45 44 43 44 41 41 40 38 34
37 42 37 40 37 50 55 51 53 53 51 52 51 52 53 52 52 52 46 44 43 42 41 42 41 41 44 45 45 42 44 46 45 43 40 40 41 42 43 39 37 35 35 31
50 55 44 45 51 53 52 54 55 54 52 53 52 51 52 50 49 44 42 41 40 39 38 40 41 41 41 45 46 44 43 42 40 38 38 38 38 38 38 38 37 34 28 26
47 51 49 46 49 49 50 51 52 52 52 49 47 46 45 43 42 40 39 39 41 41 42 42 42 41 42 42 42 43 42 41 40 39 38 37 36 35 35 36 34 31 31 29
50 48 38 36 47 46 45 48 50 47 46 48 43 41 41 41 38 40 39 40 40 39 40 40 40 40 40 41 40 41 42 40 38 36 34 30 30 30 32 32 31 35 34 36

GFSCGP_sfc_temp_048.txt.gz
Temp
58 52 47 54 55 59 59 56 54 57 63 57 57 55 58 61 63 60 59 60 61 64 68 69 69 69 68 63 62 61 59 57 57 55 53 52 52 53 53 54 57 57 57 56
55 49 60 61 63 60 57 53 53 59 62 60 54 55 57 62 62 63 63 61 63 63 66 67 67 67 63 61 61 60 59 58 57 57 54 55 53 53 54 54 55 56 56 55
51 57 62 60 59 57 54 52 53 54 56 57 54 50 54 61 63 65 66 67 67 66 65 65 65 63 61 60 59 60 59 59 58 58 57 54 54 52 52 52 53 55 56 57
56 63 60 58 56 58 51 60 59 56 50 43 52 40 49 57 60 63 65 63 65 65 68 65 65 61 60 60 60 60 60 59 59 58 57 55 53 53 52 52 53 54 56 56
53 54 54 54 58 62 53 58 59 57 50 46 47 43 48 54 55 59 63 63 65 65 67 63 63 62 62 60 59 60 60 60 61 60 59 56 52 53 53 52 53 53 54 55
56 59 60 58 62 62 62 56 53 50 47 38 48 45 45 51 57 61 64 64 63 61 63 64 63 63 61 60 59 60 60 60 60 60 59 57 55 54 53 52 52 52 51 50
54 55 59 63 58 60 57 48 36 33 32 34 50 45 47 57 61 63 62 59 60 62 60 60 59 60 59 59 60 60 60 60 61 60 60 57 56 54 55 54 53 50 50 51
45 42 57 62 56 53 54 49 36 33 30 36 49 42 51 59 61 62 64 61 60 59 62 63 61 61 60 60 60 61 61 61 60 59 57 55 55 54 52 54 54 53 51 49
43 46 57 60 61 58 52 47 54 40 36 31 42 49 57 59 60 60 57 59 57 56 60 61 63 61 61 61 61 60 61 61 60 59 58 55 53 53 51 54 54 52 51 50
52 42 53 59 63 60 56 58 44 42 33 32 39 41 44 52 56 57 55 56 56 57 57 58 59 59 60 59 57 58 61 60 60 58 58 56 55 55 55 54 52 51 51 50
53 47 47 53 52 52 51 49 50 47 40 34 29 38 51 54 57 57 57 57 57 57 58 59 59 60 60 60 58 57 59 60 58 57 55 54 53 54 54 53 52 50 50 49
55 47 39 49 59 59 54 49 50 35 39 37 31 38 55 57 58 58 58 59 58 60 60 60 60 60 59 60 60 58 56 56 55 54 52 54 55 55 53 52 51 51 50 49
55 45 36 43 52 55 50 53 54 48 41 37 30 37 57 57 57 59 58 58 60 60 59 60 60 60 61 61 61 57 57 57 56 56 55 54 54 54 52 51 51 50 48 47
57 49 43 36 45 50 46 53 53 48 33 37 38 45 53 57 56 58 58 57 58 60 61 60 60 61 61 61 61 60 58 55 57 55 53 53 53 53 52 51 47 46 45 45
54 46 49 50 52 52 51 51 51 48 47 40 45 46 53 54 55 54 57 58 57 58 59 58 57 56 56 56 55 54 53 53 53 53 53 52 52 51 50 48 46 45 46 45
54 45 46 44 50 51 46 49 48 50 50 49 48 46 51 53 54 55 56 57 57 57 57 58 57 56 56 55 54 53 52 52 53 54 52 51 50 50 47 46 45 46 46 45
49 44 37 36 42 43 34 45 49 49 49 51 42 48 51 51 53 52 52 54 55 55 56 56 55 56 55 54 53 51 51 52 50 51 50 50 49 48 47 47 47 46 45 44
45 42 35 30 32 25 46 54 53 48 49 50 51 50 50 51 50 51 53 52 54 54 55 55 54 52 51 52 51 51 51 50 48 47 47 48 47 46 46 46 45 43 43 42
52 39 33 30 30 39 47 52 50 46 43 49 49 50 52 51 51 50 53 52 51 50 49 49 49 49 50 50 51 49 48 47 46 45 45 45 44 45 45 42 41 42 40 40
47 43 36 29 28 25 42 51 55 53 35 51 50 49 50 49 38 43 49 49 45 46 46 45 45 46 45 46 47 45 44 45 43 43 44 45 45 42 41 41 40 40 40 39
33 33 30 24 26 33 47 55 55 38 38 50 50 49 48 45 46 48 47 45 45 44 43 44 43 42 43 45 46 44 43 41 45 45 45 43 43 42 41 39 39 38 37 36
38 32 27 29 25 30 52 52 45 45 48 49 49 49 47 47 48 47 45 43 42 41 41 42 42 43 45 46 45 43 42 45 45 43 42 42 40 40 40 36 36 35 33 32
38 41 36 38 36 47 49 49 50 50 49 48 47 49 49 45 42 42 39 39 40 39 39 43 43 43 44 44 43 40 42 43 42 41 38 38 38 38 38 34 33 32 32 28
46 50 42 42 45 46 48 49 50 49 45 46 47 47 47 42 41 39 39 38 38 41 42 42 42 41 41 42 42 41 41 40 38 36 36 36 35 35 34 34 33 31 26 24
46 49 44 40 44 47 46 46 46 45 44 43 43 43 42 40 39 39 38 41 41 41 41 42 41 40 40 40 39 39 39 39 37 36 36 34 33 33 32 33 32 31 31 30
47 46 38 35 46 43 42 43 46 43 42 42 40 38 40 40 38 38 37 40 40 39 40 40 39 37 37 38 38 38 38 37 35 34 33 31 30 29 31 31 33 35 34 34

GFSCGP_sfc_temp_051.txt.gz
Temp
55 50 46 50 52 54 51 51 50 53 60 56 54 54 57 57 58 56 55 57 59 60 64 65 66 66 63 60 59 59 58 56 57 56 54 52 52 52 52 53 55 56 56 55
52 47 56 59 57 57 53 52 52 56 60 57 52 53 54 56 57 59 59 57 59 61 62 64 63 63 63 60 59 58 59 57 58 58 53 54 52 52 52 53 54 55 55 54
48 55 60 59 55 55 51 48 50 52 54 52 50 48 51 56 58 61 62 62 62 61 62 63 63 62 61 59 59 59 59 58 58 57 55 52 52 51 51 51 52 53 54 54
52 58 57 53 53 56 47 56 56 53 48 43 50 39 48 52 56 59 61 60 61 62 64 64 63 62 61 61 61 60 59 58 58 58 56 53 52 50 52 51 51 52 54 54
52 53 53 52 55 57 51 56 53 53 48 44 45 42 46 51 52 56 60 61 62 63 64 63 63 63 63 61 58 58 58 58 59 58 57 54 51 52 51 51 52 51 51 51
53 56 55 55 59 59 59 53 51 48 45 36 44 43 42 48 54 59 61 63 62 60 64 64 65 64 62 58 58 57 58 58 59 58 56 54 53 51 51 50 49 49 48 48
51 52 56 58 53 56 54 46 35 32 32 34 47 42 45 54 57 59 59 62 60 60 61 61 61 60 59 59 58 59 58 58 58 58 56 55 53 53 52 52 51 47 46 46
43 41 53 58 54 50 48 47 35 32 29 34 46 39 48 57 58 59 59 58 58 59 61 59 60 60 59 59 60 60 58 59 58 58 57 56 54 54 52 51 50 49 49 48
42 44 53 56 57 57 50 44 50 38 35 30 38 46 54 57 56 57 53 57 56 54 58 58 59 60 59 59 60 60 59 59 59 58 57 53 53 51 50 50 51 49 49 49
50 42 51 55 56 57 54 56 41 39 33 30 37 38 42 51 54 56 51 53 54 53 55 57 59 59 59 59 60 59 59 59 58 55 54 53 52 52 54 53 50 49 47 44
51 48 45 51 50 50 48 46 46 45 37 32 29 37 49 52 55 56 56 55 54 53 54 56 57 58 59 59 59 58 58 57 54 54 53 51 53 53 53 50 50 48 46 47
52 45 38 47 54 55 51 49 47 34 37 34 30 37 53 54 56 55 57 58 55 55 55 57 58 57 57 57 57 57 57 57 56 54 53 52 54 52 50 50 49 48 46 48
52 43 35 42 48 50 47 50 50 45 38 35 29 37 54 53 54 57 55 56 56 56 55 56 55 57 57 58 58 57 55 53 53 53 52 51 51 50 49 48 48 47 46 47
54 46 43 37 44 48 45 49 49 46 32 36 36 43 51 54 52 55 56 55 54 55 56 55 55 56 57 57 55 54 52 52 52 52 52 50 51 49 49 48 48 45 44 45
52 44 45 47 49 50 50 48 47 46 45 39 43 43 50 51 54 53 53 55 54 55 56 55 54 54 54 53 52 51 50 51 51 52 52 50 51 50 49 47 44 44 45 46
51 42 43 39 46 48 45 49 49 48 47 46 45 45 49 49 49 50 52 53 53 53 53 56 55 54 54 52 50 50 49 50 51 51 50 50 48 48 47 46 45 45 45 46
47 42 38 36 41 41 34 43 48 48 48 48 41 48 49 47 49 47 48 51 51 52 53 53 51 52 51 50 50 48 49 50 49 48 49 48 48 46 45 45 45 45 44 43
43 40 34 30 32 25 45 50 51 47 45 46 47 47 48 47 46 47 48 48 48 48 47 47 48 47 47 47 47 48 48 47 47 47 46 45 45 44 45 46 44 42 41 40
48 38 32 30 29 38 44 47 46 45 42 47 45 46 47 48 47 47 47 46 44 44 43 43 44 46 46 46 47 46 45 45 45 44 44 45 45 44 44 42 40 40 39 38
45 41 36 28 27 25 41 49 53 50 35 49 48 47 47 45 37 41 44 43 42 42 42 42 43 43 43 43 45 43 41 41 41 44 44 45 45 43 41 39 39 38 37 36
33 32 32 25 27 34 45 51 52 38 39 48 48 47 46 44 43 41 41 40 41 41 41 42 42 41 41 43 43 41 42 41 44 45 44 43 43 41 41 38 36 35 34 33
38 32 27 28 25 30 49 49 43 45 45 47 47 47 43 42 41 41 40 39 39 39 40 42 41 41 42 43 45 43 42 43 44 43 43 41 41 39 38 35 33 33 31 30
38 41 37 39 36 45 46 48 46 47 48 46 47 46 44 41 39 39 37 38 38 38 38 41 41 42 43 44 44 41 41 41 40 39 37 36 36 36 35 32 32 30 30 28
44 47 39 40 43 43 44 45 45 46 45 45 47 45 43 39 38 37 37 37 37 37 39 42 41 40 40 42 42 41 39 39 37 35 34 34 33 33 33 32 32 30 27 27
46 47 40 38 41 44 44 42 42 41 42 41 42 42 40 39 38 38 37 37 38 39 41 41 40 39 39 39 38 36 35 35 34 33 33 33 32 32 32 32 32 32 31 31
46 44 39 36 45 43 41 42 43 41 39 40 39 38 39 39 37 37 36 38 39 38 40 39 38 36 35 33 32 33 34 32 31 32 31 29 29 29 30 30 31 35 34 35

GFSCGP_sfc_temp_054.txt.gz
Temp
54 49 44 50 51 52 49 47 46 52 57 54 52 51 51 54 56 55 54 54 56 57 62 63 62 61 60 59 59 59 57 56 56 56 54 52 52 52 52 54 55 55 54 53
50 46 54 56 54 53 50 48 47 53 56 52 48 50 52 54 56 58 56 56 57 57 59 61 61 60 59 59 59 58 58 56 57 57 53 54 52 52 52 53 53 54 54 53
47 52 57 56 52 52 49 47 47 49 53 51 47 47 49 54 56 58 59 59 60 59 58 60 60 60 60 58 58 59 58 57 57 56 54 51 52 51 51 50 51 52 53 53
50 55 54 52 51 53 45 53 51 50 47 41 47 38 44 49 53 56 58 57 59 59 61 61 61 60 61 61 59 59 58 57 57 56 55 53 52 50 51 51 51 52 52 52
49 50 51 49 52 55 51 54 51 49 45 42 42 39 44 47 49 53 56 59 59 60 61 61 62 62 62 60 58 59 58 57 57 56 56 54 52 52 51 51 51 50 50 50
51 54 53 53 55 56 56 52 49 46 43 36 42 40 41 45 50 53 58 60 60 59 60 62 63 61 61 56 56 56 57 57 57 57 56 54 53 52 51 49 50 48 47 47
48 49 54 56 50 54 51 44 35 32 31 33 44 40 44 51 54 56 56 60 61 61 59 59 58 59 57 56 56 57 57 57 57 57 56 55 54 54 52 51 51 47 45 44
41 39 51 56 52 49 46 46 34 31 29 34 43 38 47 54 56 56 57 57 59 58 61 60 60 59 58 57 57 57 57 59 57 58 57 55 56 54 52 51 50 48 47 45
40 43 51 54 54 53 47 42 48 37 33 29 37 44 52 52 52 55 54 51 52 53 56 59 60 59 58 57 57 57 58 59 59 58 57 55 54 52 51 49 48 47 46 48
49 41 48 52 53 53 50 53 41 37 32 30 35 37 40 50 52 54 52 51 52 52 52 55 57 57 58 58 58 58 59 59 59 57 57 56 53 52 50 49 47 48 47 45
48 46 42 49 48 48 46 44 43 43 36 31 28 36 47 51 52 53 52 53 52 52 52 53 55 57 57 57 58 58 59 58 57 56 55 52 50 50 50 50 48 47 46 46
50 44 36 45 50 52 49 47 45 34 36 33 30 34 51 52 52 52 55 55 52 53 53 53 54 55 55 57 57 58 58 58 56 54 51 50 50 50 50 47 48 47 47 47
50 41 35 40 45 47 46 47 47 42 37 34 28 36 52 51 52 53 53 54 55 53 53 53 53 54 56 56 57 56 56 55 52 51 50 50 49 49 48 48 47 48 47 46
54 43 41 37 42 45 41 45 46 44 32 36 35 41 49 51 51 53 54 54 52 54 54 52 52 53 54 54 54 53 51 51 51 50 51 50 50 49 47 49 48 47 45 44
51 43 42 44 46 47 47 46 44 43 43 38 43 41 48 49 48 50 50 52 52 53 53 53 53 52 52 52 50 50 49 48 50 49 49 49 49 50 49 47 45 44 43 42
48 42 41 38 44 44 42 44 44 45 44 43 43 43 49 46 46 48 48 50 50 49 50 52 53 52 51 50 49 48 47 47 50 48 48 49 48 47 46 45 43 43 44 45
45 40 36 36 39 41 34 43 45 45 45 46 39 47 47 44 47 44 46 47 47 46 46 47 47 48 48 47 46 45 47 48 47 47 48 47 47 45 44 45 45 44 43 42
41 39 34 30 32 25 44 47 48 46 46 46 45 44 45 45 43 43 43 44 43 43 42 42 43 43 43 44 44 45 45 45 44 45 45 45 45 45 45 45 43 42 41 40
45 37 31 31 30 37 41 46 45 44 44 46 44 44 44 45 45 42 42 41 39 39 40 39 41 41 42 42 43 43 42 43 44 45 45 45 45 44 43 42 41 41 39 38
44 40 36 28 27 26 40 47 50 49 37 47 46 43 44 44 38 39 39 40 38 39 39 39 40 40 40 40 42 41 42 44 43 44 43 44 43 42 41 40 39 38 36 35
33 31 30 23 26 33 45 48 50 37 39 46 47 46 44 43 41 38 38 38 38 39 39 40 40 39 39 42 43 41 42 42 43 43 43 43 42 41 40 38 36 34 32 31
39 34 28 28 25 31 49 49 43 45 42 45 45 45 43 38 38 37 38 37 38 37 38 39 39 38 39 40 41 39 40 42 43 43 40 40 38 37 37 33 32 32 31 30
39 42 38 39 38 46 47 47 47 47 45 46 45 44 42 38 37 37 36 36 36 37 38 39 39 38 39 40 41 39 39 39 38 36 35 34 34 34 33 32 31 30 30 28
43 45 40 41 44 43 44 45 44 44 44 45 45 44 42 37 37 36 36 36 36 36 36 38 38 37 37 38 38 37 37 37 34 33 32 32 31 32 31 31 31 29 27 27
43 45 40 39 41 43 45 42 42 41 42 42 41 40 39 38 36 36 35 35 36 36 37 38 36 36 35 35 34 34 33 32 32 31 31 30 30 29 30 30 29 29 29 29
44 42 39 38 47 46 44 42 42 41 39 40 39 37 38 38 36 36 34 35 36 35 37 36 35 33 32 31 30 30 31 30 30 30 29 27 27 26 28 28 28 33 33 34

GFSCGP_sfc_temp_057.txt.gz
Temp
60 59 54 58 57 58 56 54 54 58 63 60 59 60 58 57 58 58 59 60 61 64 68 67 67 68 68 69 67 68 66 65 64 63 61 60 60 62 63 63 64 63 65 64
58 53 59 59 58 56 57 55 55 59 61 59 57 59 60 56 57 60 61 61 63 65 66 66 66 66 67 67 67 66 66 65 66 68 66 66 64 63 64 63 63 64 64 64
53 58 59 59 58 55 56 55 54 55 58 59 58 56 56 57 60 62 63 65 66 66 65 65 65 65 66 66 65 66 67 66 66 67 65 63 62 62 61 61 62 63 63 63
56 59 58 56 56 58 52 59 57 55 55 50 57 48 54 57 57 59 62 63 64 64 66 68 66 66 66 66 66 68 67 66 65 64 64 62 64 62 62 61 62 63 59 58
55 55 55 54 56 59 56 59 57 56 53 52 50 50 56 55 57 59 62 64 65 67 67 67 68 69 68 68 64 66 66 66 66 64 65 62 62 64 60 59 60 60 61 61
57 61 60 60 60 59 59 56 54 52 50 44 49 50 53 57 59 61 64 66 65 67 67 68 70 70 69 67 65 65 65 65 65 64 63 62 62 60 57 57 56 58 60 59
55 56 61 61 58 59 57 53 44 41 41 41 49 47 54 60 62 64 65 66 66 67 67 67 68 67 68 65 65 65 66 65 64 63 62 60 59 60 60 59 55 59 57 57
48 46 56 60 59 56 54 54 44 37 38 43 48 45 57 62 64 63 63 63 64 65 67 68 69 69 68 66 66 65 65 66 64 62 62 59 59 61 61 58 55 56 57 59
45 48 57 59 60 61 53 50 54 42 39 39 46 52 61 61 62 63 63 63 64 64 66 67 69 68 68 66 65 64 66 66 65 63 62 59 58 59 58 55 55 59 59 56
53 47 53 57 60 58 57 57 47 46 37 35 43 45 51 58 60 61 63 63 64 62 61 64 66 66 67 66 66 65 66 65 66 64 62 60 59 60 59 57 58 56 55 53
54 53 50 55 54 54 52 51 48 50 45 40 37 46 56 59 61 61 62 63 63 63 63 63 65 66 66 66 65 64 65 66 65 64 62 61 60 60 57 56 54 53 49 49
56 50 43 51 56 58 56 54 52 44 42 40 39 44 59 59 59 58 61 63 64 64 64 64 64 64 64 64 65 64 65 65 64 63 61 60 59 56 55 52 50 48 47 49
54 47 42 46 52 54 53 53 51 48 44 41 38 46 59 59 61 61 62 64 63 63 64 63 63 63 64 64 64 63 62 62 62 59 58 55 54 53 52 50 48 48 48 48
56 48 47 44 49 52 47 49 51 51 42 44 44 50 58 61 59 63 61 61 62 62 62 64 62 62 61 61 61 60 59 58 56 55 54 52 52 51 50 49 48 48 50 47
56 48 48 50 51 51 52 51 49 49 51 46 51 47 56 59 60 58 56 58 57 57 59 60 60 61 62 61 59 58 56 54 54 53 52 51 51 50 49 49 49 46 46 45
53 47 46 46 48 50 48 51 50 50 50 50 50 49 58 58 57 55 53 55 54 53 53 55 57 59 58 56 56 54 54 54 56 54 51 50 50 49 47 46 44 44 44 44
48 44 42 41 45 46 39 47 49 50 52 53 46 55 55 54 53 52 52 52 50 49 49 50 50 52 53 53 53 52 52 53 53 52 51 48 46 46 45 44 45 43 43 45
46 44 40 37 37 33 52 53 54 52 53 54 52 54 54 53 49 49 49 51 47 47 47 48 49 49 50 51 50 51 52 51 49 47 47 47 46 45 47 45 44 44 43 42
50 42 36 35 38 43 49 51 51 50 54 54 54 53 51 50 51 47 45 46 45 45 45 46 47 48 48 49 50 50 50 50 48 46 45 45 45 44 45 43 42 42 42 43
44 44 42 35 35 33 47 54 55 57 45 55 54 50 49 50 48 52 45 44 43 44 45 45 46 47 47 48 50 49 48 46 45 46 47 48 46 43 42 42 43 46 46 44
38 37 38 33 37 41 49 53 55 44 50 53 54 53 51 50 50 47 44 43 44 45 44 45 46 45 47 49 50 48 47 45 45 46 45 44 44 45 45 45 45 44 44 42
41 37 35 35 34 37 52 52 48 54 52 53 52 52 50 43 42 42 43 42 43 43 44 46 44 44 46 48 48 46 44 46 46 43 42 44 43 43 43 42 42 42 42 40
40 45 42 44 45 53 54 56 55 53 55 51 53 52 46 42 41 42 41 41 42 44 44 46 44 43 44 46 46 43 42 44 43 42 41 40 41 40 41 41 40 40 40 38
45 48 45 47 49 50 51 51 50 52 53 52 52 50 46 43 41 40 41 41 42 43 43 44 42 40 39 40 40 39 39 40 40 39 38 39 38 38 39 39 39 38 36 35
48 48 45 44 48 48 51 50 50 48 48 46 47 47 44 42 40 40 40 40 42 42 42 42 39 38 36 37 35 36 37 39 38 37 36 35 35 35 35 36 35 34 35 33
49 47 44 44 52 52 54 52 48 46 46 46 43 41 43 43 41 41 40 41 41 39 40 38 36 34 33 32 32 34 36 37 36 34 34 31 32 32 32 32 32 31 30 31

GFSCGP_sfc_temp_060.txt.gz
Temp
71 67 63 66 68 66 66 63 62 67 70 67 67 69 73 72 68 71 73 73 72 72 75 76 75 77 77 77 76 76 76 75 75 74 74 74 73 75 76 77 74 72 71 70
65 62 70 69 67 64 65 64 63 66 69 66 68 68 73 72 69 72 73 70 73 74 75 75 74 75 75 77 76 76 77 77 76 77 77 76 75 76 77 76 73 73 71 70
63 66 68 66 65 62 64 62 62 62 66 70 68 66 67 68 69 69 70 74 76 76 76 75 73 73 74 75 76 77 78 77 77 78 78 77 76 75 73 73 68 70 70 71
66 72 65 65 63 66 60 68 66 63 63 57 67 54 64 69 68 69 72 73 75 77 79 79 76 75 75 75 77 77 78 78 77 77 77 73 74 72 74 73 70 71 70 70
63 64 63 62 65 68 63 67 65 65 63 60 60 58 65 67 66 70 72 74 75 77 79 78 79 78 78 77 76 76 77 77 77 76 75 74 72 76 76 71 69 67 67 66
68 70 68 68 68 68 68 64 63 63 61 51 59 58 62 67 69 72 76 77 78 78 78 79 81 81 80 79 77 75 75 76 77 75 73 73 72 73 69 68 67 67 67 66
64 65 69 69 64 66 66 62 50 46 48 48 59 56 63 70 73 73 73 77 79 80 79 79 79 80 80 79 77 75 76 76 76 74 73 72 72 70 66 66 68 66 64 62
56 52 64 69 66 63 63 63 52 41 44 50 57 53 64 72 75 75 75 75 75 77 79 80 80 80 80 79 77 75 74 75 76 73 72 72 71 69 65 64 65 67 60 56
56 57 66 68 68 69 61 57 64 52 49 48 57 61 70 72 72 73 74 75 75 76 79 80 82 81 80 79 77 75 73 75 76 73 72 69 67 66 62 64 64 63 58 56
63 54 63 64 68 66 64 68 54 57 42 41 52 54 60 65 68 71 73 75 76 76 75 77 79 81 81 81 79 77 76 76 77 76 71 66 65 65 65 63 64 61 56 59
67 62 55 61 60 62 60 59 59 60 56 46 45 54 69 68 70 70 72 74 75 76 75 75 77 78 79 80 78 76 75 76 77 76 72 65 64 65 64 62 60 58 57 58
67 62 54 58 64 66 67 63 62 52 49 52 50 52 73 73 72 72 72 73 75 75 77 77 76 76 76 76 76 76 75 75 76 75 71 66 64 63 62 60 58 56 54 51
65 58 50 53 58 62 61 63 64 61 57 52 46 54 72 71 71 73 73 75 74 74 77 77 75 75 75 75 75 75 73 73 73 70 64 61 60 58 56 53 50 48 47 46
63 62 56 49 56 63 57 60 63 60 51 54 55 58 67 70 72 75 74 73 74 73 74 76 75 75 73 73 71 69 67 64 61 60 57 54 53 52 50 49 48 47 49 48
65 56 59 62 64 64 62 62 62 59 60 54 59 61 66 70 73 74 70 69 69 68 69 72 73 73 73 71 69 63 58 56 56 54 54 52 52 51 49 48 48 49 49 47
63 56 59 55 62 61 58 62 63 63 63 61 62 61 72 74 72 68 66 66 65 64 64 66 68 69 67 66 65 63 61 59 58 55 52 51 51 50 49 50 50 52 50 49
58 57 53 49 56 55 44 56 61 62 63 63 58 66 73 69 67 66 65 64 63 61 62 62 63 64 63 63 63 61 60 61 59 56 54 54 55 54 54 53 50 46 46 45
55 56 54 48 43 36 59 64 68 63 66 68 68 68 70 70 68 64 64 63 60 60 59 60 61 61 61 62 61 61 61 59 57 56 55 54 53 51 50 50 48 46 45 45
60 55 46 41 45 55 56 58 59 59 62 70 68 71 70 64 61 57 58 61 60 58 59 59 60 60 60 60 61 60 58 56 54 54 54 54 54 51 49 47 45 45 45 45
55 55 52 44 42 37 57 67 69 67 53 72 70 69 66 61 55 65 56 56 55 57 57 57 58 59 59 59 60 58 56 55 54 54 53 53 54 52 47 45 46 52 54 53
44 45 43 45 43 53 63 64 66 50 56 71 71 70 64 59 65 61 56 55 57 56 56 57 58 57 58 59 58 55 55 52 53 54 53 51 50 51 52 52 52 52 52 50
47 44 41 46 40 39 61 61 58 67 66 70 68 68 64 60 56 54 54 53 54 54 54 56 55 55 57 58 57 54 52 54 54 52 49 50 51 50 51 50 50 50 50 46
47 53 51 51 54 63 64 70 71 68 71 66 68 67 65 55 53 53 52 52 53 54 55 56 54 53 54 56 56 52 51 52 51 50 49 48 48 48 48 48 47 48 46 44
54 54 50 52 64 62 63 68 64 66 66 66 67 65 59 56 54 52 51 51 52 54 54 54 51 49 48 50 50 49 49 50 49 47 46 46 44 46 46 47 46 45 41 39
61 56 56 58 63 58 60 64 68 63 61 61 64 63 60 56 53 51 50 51 53 53 52 52 49 47 46 46 45 45 47 48 46 45 44 43 42 42 44 43 41 39 38 34
59 58 51 53 66 62 69 66 68 63 61 61 60 58 59 57 53 52 51 52 52 50 50 48 46 43 41 40 39 41 45 46 44 41 41 37 39 40 41 41 41 30 31 31

GFSCGP_sfc_temp_063.txt.gz
Temp
74 68 65 71 73 72 69 68 67 71 75 70 70 70 75 77 77 77 76 77 75 76 80 80 78 78 79 78 76 76 76 76 77 77 76 76 75 77 78 80 80 78 74 72
70 63 74 75 72 68 68 66 65 71 73 71 70 69 73 78 76 78 78 78 76 78 78 78 78 76 78 77 77 77 78 78 78 80 79 79 79 79 80 80 79 76 72 72
66 71 76 71 69 66 67 65 62 63 69 73 70 68 71 76 78 79 80 80 77 78 78 77 77 76 77 77 77 79 80 80 80 80 81 80 80 79 78 78 78 73 72 72
69 75 70 69 67 69 62 72 69 67 65 57 67 52 63 72 73 75 76 76 77 80 80 80 78 77 77 78 79 80 81 82 81 80 80 77 76 75 77 77 78 72 72 71
66 69 68 65 68 72 66 71 68 68 65 63 65 60 59 72 71 74 77 76 80 82 82 81 81 80 80 79 79 80 80 81 82 80 79 78 76 77 79 78 76 69 70 71
71 78 74 72 74 72 74 68 68 67 65 51 60 61 58 66 72 76 80 80 81 82 83 84 85 84 83 82 80 79 79 80 81 81 78 77 76 76 77 77 72 70 69 69
66 68 74 75 67 71 69 63 51 48 45 48 62 60 62 69 76 77 77 81 83 83 82 83 84 84 83 81 80 80 79 79 80 79 78 76 76 76 74 75 71 68 68 65
57 54 68 73 69 66 65 64 53 40 44 44 63 55 63 77 79 80 80 81 83 83 84 83 84 84 84 83 82 80 79 78 79 77 77 77 76 76 76 67 62 65 65 66
58 59 74 74 74 73 65 59 68 56 57 51 59 65 73 76 76 77 78 79 81 82 84 85 86 85 84 84 82 81 80 80 80 79 78 76 76 74 74 71 70 63 66 63
67 57 69 71 73 73 67 72 56 59 43 42 55 59 59 68 71 75 76 78 80 81 82 84 86 85 85 86 84 83 81 81 80 80 76 73 71 69 70 68 67 65 66 62
71 65 61 67 63 64 64 62 63 60 54 47 46 56 71 71 73 73 76 78 80 80 81 81 83 86 87 86 85 82 81 80 80 81 76 71 68 66 64 65 63 64 64 63
71 64 56 60 72 74 70 65 65 53 53 56 54 56 76 76 77 77 77 78 81 81 82 83 81 82 83 84 85 83 81 80 81 81 79 68 67 64 62 61 61 61 57 54
69 60 52 56 62 68 64 67 68 66 63 53 46 54 75 76 75 78 77 80 80 81 82 83 82 81 80 80 81 81 79 80 80 80 76 66 62 61 55 52 52 50 49 48
65 63 58 52 58 64 59 64 67 64 53 54 56 61 70 73 74 77 79 80 81 80 81 82 82 81 80 79 79 78 74 71 70 66 60 56 54 52 50 49 48 47 48 48
67 57 61 64 67 67 65 64 65 62 63 56 60 63 70 73 75 78 78 78 77 76 77 79 80 80 78 76 70 65 60 59 59 56 54 52 51 51 50 49 48 48 48 48
68 58 60 58 65 65 61 65 67 67 66 65 66 64 76 78 79 76 75 74 74 72 72 74 77 78 75 72 67 60 56 55 55 53 51 51 51 50 49 49 48 47 47 47
63 59 56 50 62 61 51 61 65 66 69 67 59 67 75 74 75 75 76 74 72 69 69 71 73 72 70 69 66 61 59 58 56 54 54 54 54 53 53 53 51 50 49 47
61 59 58 48 46 39 60 71 70 66 69 72 71 73 75 76 78 78 76 74 69 68 67 67 68 67 68 68 67 65 65 63 61 60 60 58 57 56 56 55 53 50 47 45
63 60 52 45 47 55 62 64 64 63 64 73 72 75 77 76 72 67 71 73 69 67 67 67 68 67 67 66 66 64 63 62 60 59 58 57 56 54 54 51 49 50 47 48
63 61 53 49 43 39 57 68 74 73 56 74 75 73 73 71 59 69 67 69 66 66 66 65 66 66 65 65 65 62 61 60 58 58 57 57 56 54 52 50 50 50 54 54
47 49 45 47 45 54 67 71 75 52 56 75 76 75 74 69 71 70 66 64 66 65 64 65 65 64 64 65 63 61 60 58 58 58 57 55 53 52 55 55 55 54 54 53
46 45 43 47 43 41 67 66 59 67 75 76 76 76 73 72 66 65 64 63 63 62 62 64 62 62 62 63 62 59 56 58 58 57 54 54 55 55 55 53 53 53 52 49
47 57 51 55 55 67 67 69 71 76 74 75 75 77 75 66 63 63 62 61 61 61 62 62 61 60 61 62 61 57 56 57 55 54 53 52 53 53 53 51 50 51 50 46
60 65 56 58 64 67 69 71 72 74 73 76 75 76 73 65 64 62 61 60 60 62 61 61 59 58 57 59 58 56 56 56 54 51 51 50 50 49 50 51 50 48 44 42
61 63 59 58 64 68 69 69 69 74 73 72 72 74 71 67 63 62 60 60 61 61 60 58 56 54 54 54 53 54 54 54 51 50 49 47 46 47 47 46 43 41 37 34
64 60 55 53 65 63 67 72 72 72 72 69 70 70 70 68 63 62 60 60 61 58 57 56 54 52 51 50 49 50 52 52 49 46 44 42 42 42 45 45 40 31 32 31

GFSCGP_sfc_temp_066.txt.gz
Temp
70 63 59 65 69 70 69 66 64 68 74 70 68 69 64 64 71 71 73 72 71 73 74 71 72 71 69 69 68 69 68 70 70 69 68 68 67 69 69 72 71 70 69 68
65 58 69 73 73 70 67 64 64 70 73 70 69 68 68 70 75 77 75 73 73 74 74 73 73 71 69 70 70 71 72 72 72 72 72 70 70 70 71 70 72 71 68 68
60 67 74 71 70 65 66 63 62 62 69 72 68 64 68 75 77 78 78 79 75 75 74 73 72 72 71 70 70 72 72 72 73 74 74 73 72 70 70 71 69 70 68 68
66 73 71 69 66 68 61 71 68 67 63 55 66 48 62 69 72 74 76 76 76 77 77 75 74 71 71 71 72 74 74 74 74 74 74 71 70 68 69 68 71 70 69 67
63 68 67 64 67 71 65 71 67 67 63 61 61 54 62 69 68 71 74 75 75 75 76 75 74 74 74 74 72 73 75 76 75 75 73 72 68 69 70 69 68 68 66 65
68 77 73 71 73 73 74 68 66 66 61 49 60 57 56 63 66 73 75 75 76 76 77 79 78 77 76 76 74 73 74 75 76 75 73 70 69 68 67 67 66 65 65 65
64 66 74 75 67 72 69 62 49 45 45 46 63 58 61 65 71 75 77 76 76 78 78 78 78 77 76 74 74 74 74 75 75 74 73 71 70 67 68 68 68 64 63 62
53 51 67 73 68 64 63 61 50 38 34 43 54 53 62 72 78 79 80 80 81 79 79 79 80 78 77 76 75 74 75 74 76 74 73 72 72 71 70 69 65 64 63 61
54 55 71 72 72 70 63 57 66 48 48 42 47 61 71 75 75 77 77 79 78 79 80 80 81 79 78 77 75 74 75 76 76 74 73 71 72 71 70 69 65 62 62 62
62 54 68 70 73 72 67 70 55 56 37 40 53 57 58 66 70 74 75 75 77 80 80 80 82 80 81 79 77 75 76 77 76 75 73 73 71 70 70 66 64 63 61 59
66 60 61 69 63 62 63 60 61 62 57 45 42 50 62 66 72 72 74 76 77 77 78 79 80 81 82 81 80 77 77 78 77 76 74 72 70 66 63 61 61 61 60 59
66 61 53 60 70 72 69 63 63 51 50 53 47 51 67 68 75 75 75 77 78 79 79 79 79 80 80 80 81 78 78 77 77 76 70 69 65 62 61 59 58 58 55 55
64 57 50 52 62 67 63 66 66 64 61 52 42 51 74 75 75 77 75 77 78 78 80 79 78 77 78 79 79 77 75 75 75 68 66 65 61 59 54 52 51 50 50 49
61 62 57 48 54 62 58 63 65 62 49 52 54 57 66 70 71 75 75 77 78 77 79 79 78 77 77 77 77 73 67 65 62 61 57 53 52 50 49 49 49 48 48 48
64 55 60 62 64 64 63 62 63 60 61 53 58 60 66 72 73 75 76 76 77 77 78 77 77 76 76 69 63 62 60 59 57 54 52 50 50 49 48 47 48 47 47 47
62 55 58 55 63 63 60 64 64 64 64 63 64 63 74 76 78 75 76 75 75 75 75 75 77 75 70 63 59 57 55 54 54 51 49 49 49 49 47 48 46 46 45 45
57 53 52 46 59 59 48 59 64 65 67 66 58 66 73 72 74 74 75 75 74 72 72 72 74 71 64 61 58 54 53 53 52 51 51 50 50 49 48 48 47 46 45 45
54 55 52 44 43 37 58 70 69 64 67 70 70 72 73 74 77 77 78 75 73 71 70 70 69 66 64 62 59 58 57 55 54 54 54 53 52 51 51 51 50 47 45 43
59 53 43 41 43 52 59 64 64 61 61 71 69 72 75 77 74 69 74 73 70 68 68 67 67 66 65 63 62 61 59 59 58 56 55 55 54 53 52 48 46 46 45 45
58 57 48 44 40 36 54 67 72 70 51 70 72 70 72 71 56 65 69 70 68 68 68 66 66 65 64 63 63 60 59 57 56 55 55 55 54 52 49 48 47 47 48 48
43 46 43 42 41 49 63 67 70 50 52 70 73 72 71 67 68 67 69 68 68 67 66 66 65 63 62 63 61 59 58 56 57 56 56 54 53 51 50 50 50 49 47 46
43 42 41 43 39 38 67 66 56 62 67 72 72 71 69 65 66 66 66 65 65 64 64 64 62 61 62 62 60 58 55 57 56 55 53 52 53 53 52 48 47 48 45 41
42 51 48 51 50 64 63 64 66 69 68 68 70 72 72 65 64 64 63 63 64 64 63 64 62 59 60 61 60 55 55 56 54 52 51 50 51 51 51 46 45 43 42 37
56 57 48 46 61 65 66 66 68 69 68 73 73 73 72 66 65 63 63 62 61 63 62 63 60 58 57 59 59 56 55 54 52 49 48 48 46 46 46 46 45 40 34 32
58 58 54 51 59 60 64 65 66 67 69 71 72 70 70 67 64 63 62 61 62 62 62 61 58 56 56 57 54 55 54 53 50 48 47 44 43 43 42 38 37 31 30 30
62 59 52 51 62 60 62 64 66 65 67 70 69 67 69 68 65 64 62 62 61 60 60 58 57 54 54 52 51 52 53 51 47 44 42 37 36 36 40 36 34 33 31 31

GFSCGP_sfc_temp_069.txt.gz
Temp
61 51 50 53 57 60 59 58 55 60 68 63 59 54 56 60 61 55 56 57 60 60 62 61 60 60 60 59 59 61 61 62 61 60 60 62 61 60 60 61 65 63 63 63
56 50 60 64 64 62 62 57 54 63 68 61 57 55 58 58 58 60 58 59 61 62 61 62 62 61 60 59 61 62 63 63 63 65 65 61 64 60 61 63 63 66 63 63
52 59 65 63 61 60 60 56 54 56 62 61 56 53 54 63 63 63 65 66 66 61 60 62 62 61 61 61 61 63 64 65 66 67 64 62 61 61 62 61 65 63 65 65
57 65 63 61 60 63 54 64 63 60 54 45 56 41 54 61 63 66 67 65 65 63 64 64 63 61 62 63 64 66 67 67 67 67 67 65 65 63 64 63 62 64 65 64
56 60 59 58 62 65 59 67 62 60 52 49 50 43 50 58 59 62 63 65 66 66 66 66 65 64 65 66 66 67 68 68 68 68 68 66 64 64 62 62 64 62 64 65
60 68 66 64 67 67 68 62 59 56 51 39 50 47 45 52 60 64 65 67 67 68 67 68 69 69 67 68 68 68 68 68 69 69 68 68 68 62 62 62 62 63 62 63
57 59 67 70 61 65 62 52 39 34 33 34 54 49 50 61 65 66 66 67 68 69 69 68 67 67 68 67 67 68 69 68 69 69 69 67 68 62 63 61 63 60 61 63
47 44 61 67 63 57 56 53 39 33 30 36 51 44 52 64 68 70 70 70 69 70 71 69 69 68 68 69 68 69 69 69 70 69 70 69 67 66 62 64 62 63 62 62
47 49 65 67 68 65 56 49 57 43 41 36 43 52 62 64 64 67 68 67 67 68 71 71 71 71 70 70 70 68 70 70 71 70 67 69 69 65 66 66 61 63 61 59
54 48 62 65 67 65 60 63 47 46 31 31 43 46 48 54 60 65 64 63 65 67 67 71 72 72 73 72 72 71 71 71 72 71 70 67 67 65 64 65 59 59 59 57
60 53 52 60 57 57 56 54 55 53 45 34 32 40 54 57 64 64 62 65 65 66 67 68 68 71 74 74 73 71 71 72 71 72 68 68 62 62 61 60 59 60 58 57
59 52 44 50 62 68 63 56 54 40 43 44 36 40 62 60 63 64 66 67 66 67 68 69 68 68 66 73 73 71 71 72 72 72 68 65 60 60 59 59 60 58 57 56
56 47 38 45 56 63 58 58 60 56 50 42 32 40 63 64 64 66 63 65 67 68 66 68 68 68 68 67 69 71 68 66 66 63 60 60 58 59 58 54 54 54 52 51
57 52 47 40 46 56 51 57 59 54 38 42 41 49 59 62 62 63 65 67 65 68 68 66 66 67 64 61 59 58 57 62 63 58 54 53 52 51 50 50 49 48 49 48
54 45 50 51 57 58 57 56 57 55 54 44 49 52 58 60 62 64 65 67 67 67 68 67 65 62 58 55 54 53 53 53 53 52 50 49 49 49 49 48 47 47 47 46
54 45 50 48 56 58 54 57 58 58 56 54 57 54 64 65 66 66 67 68 68 66 66 67 64 61 58 55 52 52 51 51 51 50 49 49 48 47 47 46 46 45 45 45
50 48 45 40 51 52 40 52 53 58 59 57 49 56 63 62 65 64 64 66 64 64 64 63 63 59 56 53 52 49 49 50 50 49 49 49 48 47 46 46 45 44 44 44
48 49 44 38 40 34 50 62 62 58 61 61 59 60 63 64 63 63 64 64 63 63 63 60 58 56 54 52 51 51 51 51 50 49 49 49 48 47 47 47 45 44 43 41
53 47 36 37 38 46 52 58 57 55 54 61 59 61 64 65 60 59 63 63 60 60 59 57 57 55 54 53 53 53 53 53 52 51 50 50 49 48 48 45 43 41 40 42
53 49 40 35 34 33 47 58 64 62 43 61 61 60 61 60 47 53 59 60 58 59 59 58 58 56 54 54 54 52 53 53 52 52 52 50 50 48 44 42 41 43 43 44
35 37 34 32 33 41 56 61 63 43 42 61 62 61 60 56 56 58 58 58 59 59 58 58 57 55 54 56 55 52 51 50 51 52 52 51 48 46 46 44 43 42 41 40
37 35 34 34 34 33 60 59 51 53 59 61 58 60 58 59 57 59 59 59 58 56 57 57 54 53 53 54 54 51 49 52 52 50 49 48 47 48 47 42 41 42 40 35
37 43 40 43 40 54 58 56 60 62 61 60 59 59 58 55 56 59 58 56 56 55 55 55 53 52 52 53 53 49 50 51 49 47 46 45 46 46 45 42 39 38 36 31
49 53 44 46 51 50 52 55 60 63 61 64 62 61 59 55 55 55 55 54 54 53 52 52 52 51 49 51 52 50 50 49 47 44 43 42 41 41 40 39 37 33 29 27
48 52 48 46 52 53 55 54 60 61 61 62 62 64 60 57 55 55 53 53 53 53 52 53 50 49 48 49 48 49 47 47 45 42 41 38 37 35 32 31 31 29 27 29
51 48 43 41 53 51 54 59 61 61 62 60 60 60 61 58 57 56 53 53 53 51 51 50 48 47 46 47 46 47 47 44 40 38 35 31 30 30 32 30 29 32 31 32

GFSCGP_sfc_temp_072.txt.gz
Temp
57 50 48 51 52 55 53 51 49 56 64 61 57 51 54 53 57 54 55 55 56 55 58 58 56 56 57 59 60 60 60 61 61 62 60 61 61 57 58 59 62 61 61 62
52 49 58 59 57 55 54 51 50 58 64 59 55 53 53 55 57 58 58 56 56 56 55 56 55 55 55 56 57 58 59 59 59 61 61 62 59 57 62 60 61 63 61 61
50 55 62 58 55 54 54 51 52 53 58 56 52 48 50 58 58 59 60 62 58 57 54 56 56 55 55 56 56 58 60 60 61 61 60 58 58 58 58 57 59 61 62 62
52 61 58 56 54 57 49 60 59 56 51 43 51 39 48 54 57 59 59 58 59 59 59 58 58 56 55 56 58 60 62 62 62 62 63 60 63 60 63 60 60 60 62 62
50 54 54 53 56 62 54 61 60 58 50 45 46 41 47 54 54 56 59 60 61 61 59 58 59 59 59 59 59 61 62 63 64 64 64 62 61 62 59 58 59 60 61 62
55 63 60 59 63 63 65 59 56 51 47 37 45 43 42 47 55 58 62 62 63 61 61 61 62 62 61 61 61 61 61 63 64 64 64 63 63 58 58 60 59 57 60 62
53 54 61 63 56 61 60 50 38 35 33 33 50 44 48 57 60 62 62 63 63 62 61 61 60 60 61 61 61 62 62 62 65 65 64 63 63 58 61 60 61 60 60 60
42 39 55 62 58 55 54 51 38 33 30 35 46 41 49 61 66 65 66 65 65 63 63 62 62 62 62 62 63 63 63 64 65 65 65 65 64 65 62 63 63 62 62 62
43 44 59 64 65 63 54 46 55 41 39 33 40 48 56 59 59 62 62 64 64 64 64 64 65 65 64 64 64 64 65 65 66 66 66 66 64 64 64 63 61 61 60 61
50 42 57 60 63 63 57 60 44 44 32 29 39 41 44 53 57 59 59 58 63 65 65 66 66 66 67 67 66 66 66 67 67 67 67 66 66 63 64 60 57 58 57 56
55 47 47 56 54 52 52 51 50 50 43 33 30 38 51 54 59 60 60 61 61 64 63 66 67 68 68 69 68 67 67 67 66 68 67 66 66 66 62 59 58 58 58 58
55 48 41 48 58 61 57 55 52 39 39 41 35 40 56 57 62 61 60 63 62 63 63 65 68 68 68 68 69 68 68 68 66 62 62 61 60 60 60 60 59 59 58 57
53 44 37 42 53 57 53 56 56 51 46 40 34 39 59 59 58 61 59 61 63 64 64 62 62 64 69 68 69 69 68 65 63 61 61 59 59 60 59 59 58 57 56 56
57 46 46 39 44 51 47 54 58 52 38 41 41 49 56 58 59 61 60 62 61 63 65 63 62 59 58 58 62 66 65 64 64 61 57 56 55 56 57 56 54 54 54 51
53 42 47 49 52 53 51 52 54 52 49 44 49 50 56 58 59 62 63 63 62 63 63 63 60 55 54 55 55 55 54 53 55 53 52 50 50 50 49 49 49 49 48 48
51 42 45 42 51 52 48 52 55 54 53 52 52 50 60 63 60 61 64 64 62 63 62 63 61 56 53 54 53 53 52 51 52 51 49 49 48 48 48 47 46 46 45 45
47 44 40 35 48 47 38 46 50 52 54 54 47 54 62 62 61 60 61 62 62 61 60 59 60 58 53 53 52 51 51 52 51 49 49 49 48 47 46 46 45 44 44 44
44 44 40 32 39 29 44 57 56 52 56 58 58 59 59 61 62 61 62 61 61 61 60 59 57 53 51 52 52 51 52 51 50 49 49 48 48 46 46 46 45 44 43 42
48 45 34 33 34 40 47 54 54 53 52 60 58 61 62 60 57 54 60 61 64 58 56 55 54 51 50 49 51 51 50 51 50 49 48 48 48 46 46 44 43 42 41 42
47 44 40 31 31 27 43 57 62 60 43 60 61 59 59 56 46 52 58 59 57 56 55 53 52 52 51 50 51 49 49 49 49 49 49 49 49 47 45 43 42 40 41 43
34 34 32 29 29 36 50 58 61 44 43 59 62 60 58 53 55 58 57 57 57 56 54 54 53 51 50 51 51 49 49 48 51 51 50 49 47 44 42 42 41 40 39 38
39 35 32 32 28 30 54 56 49 51 56 58 59 60 59 58 55 55 56 54 54 53 53 53 51 49 50 51 50 47 46 49 50 48 46 45 44 45 43 41 39 39 37 33
36 41 37 39 38 50 51 53 54 55 54 57 57 59 59 55 54 54 54 54 54 53 51 52 50 48 49 50 50 46 46 47 46 45 44 43 43 42 41 38 36 35 34 32
45 49 42 43 47 50 52 55 55 55 55 58 58 60 56 55 53 53 52 51 50 50 51 51 51 49 46 48 49 47 46 46 44 42 42 40 37 35 35 35 34 32 28 28
43 46 45 43 47 51 51 54 56 56 56 57 59 58 58 55 54 51 51 53 52 49 50 51 49 47 45 46 45 46 45 45 42 41 39 35 33 32 31 29 29 28 28 29
46 44 40 38 52 50 52 54 56 55 57 58 57 58 56 56 54 51 49 49 51 48 49 46 45 43 40 41 42 44 45 44 40 36 34 32 31 30 31 30 29 32 32 32

GFSCGP_sfc_temp_075.txt.gz
Temp
55 48 46 50 51 51 50 47 45 50 58 54 53 50 53 50 52 51 52 53 53 55 55 57 59 59 59 59 59 59 58 58 59 58 58 58 58 59 60 62 61 60 61 60
50 45 56 56 54 52 50 46 46 52 58 54 52 53 52 51 53 55 54 52 53 54 56 54 53 57 57 57 59 59 58 59 61 62 62 62 61 59 60 58 59 61 59 59
48 52 59 56 52 50 49 46 47 49 53 53 51 48 49 54 54 56 57 56 55 54 54 53 53 53 57 55 58 58 58 58 60 64 61 60 60 59 57 55 56 58 60 59
49 58 55 52 50 52 45 55 54 51 46 40 48 37 46 50 52 54 57 55 54 54 55 55 53 51 52 55 55 57 58 58 59 59 59 59 57 56 57 57 57 58 59 59
47 51 51 50 52 55 50 57 54 52 46 43 43 39 45 49 50 53 58 58 56 56 55 54 54 54 54 55 55 56 57 60 61 60 58 57 56 57 56 56 57 56 58 59
51 56 55 54 59 58 60 54 52 48 45 35 43 42 40 46 52 57 59 60 59 56 56 57 58 57 55 53 54 56 57 58 60 60 58 58 56 55 55 55 56 55 57 58
48 51 54 59 51 55 54 46 35 33 32 32 47 41 44 53 56 59 59 59 60 59 57 56 56 56 56 54 55 56 57 58 60 60 60 59 59 56 57 58 59 57 56 57
40 36 52 57 54 49 49 47 35 32 30 34 43 38 47 58 60 61 62 63 63 59 59 58 58 58 58 57 57 58 58 59 61 61 61 61 61 61 60 61 61 59 58 59
38 40 54 58 59 59 49 43 54 38 36 32 38 46 54 58 58 58 58 59 57 59 59 59 60 59 59 59 58 58 60 61 61 61 62 62 61 61 62 60 58 58 56 59
46 39 53 56 59 59 55 56 43 40 31 29 36 38 42 52 55 57 55 56 59 61 60 61 61 61 61 61 61 61 61 61 62 63 63 63 63 61 61 58 57 57 57 57
50 44 44 54 50 48 49 47 47 46 39 32 29 36 49 52 56 58 56 57 59 60 60 62 62 63 63 63 62 61 62 62 62 63 63 61 59 59 59 58 56 56 56 57
51 44 39 45 54 57 55 50 49 37 36 37 33 37 55 55 56 56 58 58 59 62 63 64 64 64 63 64 64 63 63 63 62 62 62 61 62 62 61 59 58 58 58 58
49 41 34 40 48 53 49 51 52 48 43 36 31 38 58 57 56 58 57 58 58 61 62 63 64 64 64 64 65 65 64 63 63 62 63 63 62 62 61 58 58 58 59 59
50 43 43 37 41 49 45 49 53 50 37 38 40 47 55 58 55 58 58 59 58 58 61 62 63 64 65 65 65 65 63 62 62 62 62 61 61 59 59 59 59 59 59 58
50 41 43 48 52 51 49 49 50 46 49 44 47 48 54 57 58 59 59 59 59 59 58 59 60 58 56 57 58 61 60 60 61 61 60 58 54 54 54 55 57 54 53 53
48 41 44 43 49 52 48 50 48 47 49 49 49 48 56 61 58 56 60 61 61 60 61 59 58 55 54 54 52 52 53 53 55 53 53 51 51 50 49 49 48 47 47 47
42 39 38 35 45 45 35 43 50 48 49 48 43 50 58 56 59 58 59 59 61 61 61 58 59 57 54 52 54 54 52 53 52 52 50 50 49 48 47 47 46 45 46 46
40 40 36 33 38 27 42 53 54 50 52 55 54 56 58 59 63 60 60 61 59 60 60 60 60 54 52 52 54 52 52 52 51 50 50 50 49 47 47 46 45 44 44 43
46 41 34 31 32 39 43 49 50 47 47 55 54 57 58 59 56 56 59 58 60 60 60 56 54 52 54 54 52 52 51 51 50 49 49 49 48 46 46 44 43 43 42 42
43 43 37 32 29 24 40 54 59 55 38 56 57 55 54 54 45 52 58 57 57 57 53 51 50 52 52 52 52 51 50 50 49 49 48 48 48 46 44 43 42 43 44 43
33 32 32 32 31 36 48 54 58 39 39 56 58 60 57 51 54 58 54 54 55 53 53 51 50 49 50 51 52 50 50 49 50 50 49 48 47 45 44 43 42 43 42 39
35 32 27 31 29 30 52 51 46 49 53 56 54 57 56 54 55 57 56 54 54 51 50 50 49 48 49 49 49 47 48 50 50 49 46 45 44 44 43 42 40 39 37 34
33 39 35 40 36 50 51 52 53 54 54 54 53 54 55 54 54 52 53 52 51 50 49 49 49 47 48 49 49 45 45 48 47 45 43 42 42 41 39 39 36 34 34 31
41 46 40 41 48 49 52 52 53 54 55 56 55 55 55 55 55 51 50 49 48 49 48 49 48 46 44 47 47 46 45 45 44 41 39 39 37 35 35 35 35 34 32 31
41 45 44 43 47 50 51 52 54 54 56 56 57 56 55 55 54 51 50 49 49 48 47 48 47 44 43 45 45 45 45 44 40 38 37 35 33 32 31 31 32 31 30 32
41 40 38 40 49 49 50 54 55 53 55 57 55 56 57 56 53 49 48 47 47 46 46 43 41 41 41 42 41 42 43 42 38 35 34 32 32 31 32 30 29 32 32 32

GFSCGP_sfc_temp_078.txt.gz
Temp
51 44 42 48 48 49 47 44 42 46 52 51 50 48 54 50 50 49 50 52 52 54 55 59 59 57 58 59 59 59 58 58 58 57 57 57 58 59 60 61 61 58 60 59
46 43 53 53 51 50 48 44 45 49 55 52 48 50 54 50 51 51 51 51 52 53 55 57 58 57 57 58 59 59 58 58 59 60 59 58 58 58 61 61 61 62 59 58
46 49 56 53 48 47 47 45 45 45 49 50 47 45 49 53 52 53 54 53 53 54 56 55 56 57 57 57 58 59 59 59 60 61 58 58 58 57 57 56 57 57 58 58
46 56 52 51 49 50 42 51 51 48 43 37 45 35 45 50 52 52 53 52 52 53 55 56 56 56 57 57 60 60 60 59 61 62 60 58 59 58 59 56 57 57 58 58
44 48 49 46 49 52 48 53 50 48 43 39 42 36 43 46 50 53 55 54 53 54 54 53 54 55 57 58 56 55 57 57 59 60 62 59 56 58 57 57 56 56 57 58
48 53 52 52 55 55 57 50 48 45 41 32 42 39 39 44 51 54 57 57 54 53 54 55 55 54 53 55 54 53 55 56 58 58 56 58 55 56 55 55 56 57 56 57
46 48 51 55 48 52 50 43 33 30 30 31 44 39 46 52 55 56 57 58 56 55 53 54 53 52 52 51 52 53 54 55 57 57 58 56 57 55 56 56 57 53 55 54
39 35 49 54 51 47 47 45 33 30 29 34 41 37 45 55 57 58 59 60 56 53 55 55 55 55 53 53 53 54 54 55 56 57 58 59 56 58 57 56 55 54 54 55
37 38 52 55 56 57 47 42 49 37 34 32 37 44 52 56 55 56 56 56 55 53 54 55 56 57 56 54 54 54 55 57 57 57 58 59 57 56 56 56 55 55 55 56
44 36 49 53 55 56 51 53 40 37 29 28 34 37 41 51 55 55 55 53 55 55 54 56 56 57 58 58 57 56 57 57 58 58 58 59 57 56 56 56 55 55 56 56
45 41 42 49 46 45 45 47 45 45 38 33 30 35 48 52 53 53 55 56 55 55 54 56 57 58 59 59 57 56 57 57 57 59 59 56 56 56 57 58 59 58 58 57
47 41 35 42 51 53 52 47 48 37 35 34 33 40 53 54 53 52 55 58 55 56 55 57 58 59 58 58 58 57 58 58 58 58 59 59 60 60 60 61 62 61 59 58
46 37 32 38 47 48 46 48 49 47 41 34 32 39 54 54 54 56 55 57 57 55 55 56 57 57 59 59 59 59 59 58 59 59 60 60 60 61 61 60 60 58 58 57
47 40 36 34 38 44 41 47 50 48 35 35 36 43 50 55 56 57 57 57 56 56 56 56 56 57 59 60 60 60 59 59 59 59 59 59 59 60 59 56 55 57 57 57
44 34 39 43 46 49 47 46 48 45 43 40 43 44 54 55 57 60 58 57 57 57 57 56 56 56 58 57 57 59 59 59 59 59 59 59 60 60 58 55 55 55 55 57
44 34 38 38 44 46 44 47 46 45 45 44 44 45 57 57 58 56 59 59 58 58 58 57 57 56 55 55 54 54 55 56 58 58 57 59 56 55 54 53 52 52 51 50
40 35 32 32 42 43 34 43 45 46 47 46 39 46 55 55 55 56 59 58 59 58 60 61 60 60 59 53 52 51 52 51 55 56 55 53 52 51 50 49 48 47 46 46
38 35 33 30 33 25 41 51 53 50 51 51 50 52 56 58 59 57 59 59 57 60 60 59 60 57 51 51 50 52 53 52 52 52 51 50 50 48 47 47 46 44 44 44
44 40 32 30 29 35 41 47 48 44 44 51 51 54 57 58 53 54 58 59 62 61 63 60 59 50 51 52 52 52 52 51 51 50 49 49 49 47 46 45 43 43 43 43
44 43 36 32 29 26 39 49 54 52 36 53 53 51 52 52 43 50 56 56 58 56 54 50 50 51 51 51 52 51 50 50 49 49 48 48 48 47 44 43 42 43 43 42
34 34 34 32 29 35 46 51 53 36 39 53 55 54 51 49 52 57 55 56 53 52 49 49 51 51 50 52 52 50 50 48 49 49 48 47 46 44 44 43 43 43 39 36
32 30 30 33 30 29 50 51 43 46 50 52 53 54 53 53 52 54 53 54 51 49 49 49 49 50 52 53 52 49 48 49 49 47 45 44 44 44 43 41 39 38 36 33
32 36 34 36 35 46 49 50 52 53 51 53 53 54 55 53 54 53 52 50 49 48 50 49 48 48 48 50 51 47 47 47 46 44 42 41 41 41 41 39 36 35 34 32
39 43 37 39 44 46 49 51 54 53 53 56 56 55 54 54 52 51 48 48 47 48 47 48 48 46 45 46 45 44 45 46 43 41 39 39 37 36 36 36 36 35 33 31
38 41 38 38 44 46 49 51 53 55 53 53 55 55 56 54 52 51 48 46 47 46 46 46 45 44 43 44 43 43 42 43 41 39 38 35 35 34 32 31 32 31 31 33
39 37 33 32 41 39 43 51 54 51 52 54 54 54 55 52 48 47 45 45 44 43 43 41 41 39 38 38 39 40 41 40 36 33 31 31 31 31 31 29 28 31 30 31

GFSCGP_sfc_temp_081.txt.gz
Temp
55 51 47 53 55 55 54 52 51 56 59 57 57 58 63 66 58 58 59 59 59 58 64 64 61 61 60 60 60 59 57 58 59 58 58 58 58 59 59 62 63 65 66 66
50 47 54 56 55 54 54 51 51 55 59 57 58 57 64 64 64 62 61 60 61 62 59 60 60 59 59 59 60 59 59 59 60 59 59 60 59 59 60 60 61 65 66 65
49 52 57 55 52 50 51 50 51 51 54 59 55 54 59 64 61 60 61 64 64 63 60 58 58 57 58 58 60 59 60 60 60 60 58 58 58 58 58 59 60 65 65 67
51 58 54 52 51 53 47 55 53 52 49 45 56 44 55 62 63 61 61 60 62 63 63 62 59 57 58 60 60 61 60 60 61 59 59 58 60 58 61 60 64 67 66 66
48 50 51 50 51 54 51 57 54 53 50 48 51 47 52 56 59 65 68 62 63 64 64 63 60 61 60 61 60 60 61 61 62 61 61 59 59 62 65 64 65 65 65 66
51 57 56 56 57 56 58 54 53 50 48 39 48 48 50 57 60 64 67 67 63 63 64 65 64 62 59 61 60 60 60 62 63 63 63 61 62 63 62 62 65 65 66 65
48 51 56 58 52 55 55 49 40 37 37 38 50 46 53 59 62 65 68 70 65 63 63 63 60 57 57 58 58 58 59 60 62 62 62 63 63 64 64 65 66 65 64 64
40 39 52 56 55 50 50 50 41 34 36 42 47 43 53 63 66 66 66 68 66 62 63 63 63 61 59 56 57 57 59 61 62 62 62 62 64 64 65 64 65 64 66 66
40 41 54 56 58 58 48 44 54 42 40 39 46 51 59 64 62 65 66 65 65 63 62 63 63 63 62 59 57 57 61 62 62 62 63 63 63 64 64 64 65 64 65 65
47 40 52 55 58 59 55 56 42 45 35 34 42 44 51 57 61 63 62 65 65 64 62 63 63 63 63 63 61 60 61 62 63 63 63 63 63 64 65 64 63 63 64 64
49 45 45 51 49 48 50 48 49 50 45 39 37 44 57 60 63 60 61 64 64 63 62 63 64 65 64 64 63 61 62 62 62 63 63 63 64 64 64 63 63 64 65 65
46 42 39 45 54 56 56 51 51 43 40 43 44 47 61 61 63 60 63 64 65 65 64 64 64 64 64 64 63 63 63 63 63 62 62 61 62 63 63 62 64 65 65 65
45 40 35 40 49 54 50 52 54 52 47 44 39 46 61 60 62 64 63 66 67 65 63 64 63 63 63 64 63 64 63 63 63 62 60 59 60 60 61 62 63 66 65 65
48 39 35 34 39 46 45 50 52 51 42 45 45 50 57 61 62 65 63 65 67 65 63 64 64 64 64 64 64 64 63 63 63 63 62 61 60 63 62 62 63 65 65 65
46 37 40 40 43 44 45 48 52 49 50 45 49 51 57 60 63 65 63 65 66 66 64 63 65 65 65 64 63 64 64 63 63 63 63 62 63 63 65 65 63 64 63 64
46 34 36 36 43 44 41 48 50 51 51 50 50 50 61 64 65 63 64 62 66 66 65 65 65 64 63 63 64 63 63 63 63 63 62 64 64 65 64 63 61 59 59 61
38 35 34 33 39 37 36 45 49 52 53 53 47 55 62 60 59 62 63 61 63 65 66 65 66 65 65 65 63 63 63 63 62 62 63 63 63 63 63 61 56 56 55 52
38 37 34 31 33 27 46 53 55 52 55 56 55 57 61 62 63 62 65 64 63 63 65 66 66 66 65 63 63 62 63 62 62 62 62 62 60 57 52 52 51 48 47 46
42 38 32 30 30 33 43 49 50 49 50 57 56 58 60 63 60 63 64 63 62 64 65 67 68 65 60 59 58 59 58 59 59 57 54 53 53 51 50 48 46 45 44 44
41 42 35 33 29 27 40 50 57 56 43 55 56 55 56 58 51 56 59 61 61 62 62 63 63 59 59 57 58 57 54 53 52 51 51 52 51 49 47 45 44 44 43 41
34 35 32 32 31 38 48 52 55 41 45 55 57 58 56 54 59 60 57 58 58 57 56 54 56 56 57 57 57 54 53 50 50 50 49 48 47 46 45 44 43 41 38 35
36 33 32 34 31 30 51 52 45 51 53 55 57 57 56 56 55 57 55 54 53 52 51 53 53 52 54 56 55 52 49 49 49 48 46 45 44 44 43 41 39 38 36 33
36 40 37 39 39 49 51 53 55 55 53 58 56 58 59 56 55 57 54 51 49 49 50 51 50 50 52 53 53 47 47 47 45 44 42 41 41 41 41 38 36 35 35 33
43 46 41 42 47 46 50 54 55 56 55 57 57 58 58 54 55 54 52 48 48 49 48 48 47 45 44 47 48 47 46 46 44 41 40 39 38 36 37 37 37 35 34 32
44 45 42 41 46 48 52 52 51 51 51 54 58 58 56 56 54 52 49 47 47 46 47 47 45 43 42 43 43 45 45 46 42 40 38 36 35 34 31 31 32 32 32 34
43 42 39 39 43 42 44 49 48 46 48 52 55 55 51 53 48 47 44 44 43 42 42 40 39 38 38 39 40 41 43 42 38 35 35 34 33 32 32 31 29 31 31 31

GFSCGP_sfc_temp_084.txt.gz
Temp
62 58 54 60 61 64 65 61 62 69 69 64 66 67 73 78 77 75 75 74 74 73 76 76 68 66 67 67 61 59 58 62 63 59 59 59 58 59 60 63 65 66 71 71
58 53 64 64 64 60 61 59 60 67 68 64 66 67 73 76 78 78 78 76 75 74 73 73 68 67 66 66 62 59 59 59 60 62 61 60 60 60 61 63 65 66 66 68
52 59 64 62 58 56 58 57 59 60 66 68 64 62 68 75 77 77 77 79 79 77 74 71 68 67 67 67 63 60 60 60 61 61 60 59 60 60 59 62 62 66 68 70
54 59 60 59 56 59 53 64 62 59 58 53 63 53 67 71 73 75 77 76 77 77 77 73 70 67 67 67 66 63 61 62 62 62 60 58 58 58 61 64 64 65 69 70
54 54 54 53 57 61 56 64 62 60 58 57 58 54 64 70 67 72 77 78 78 78 78 75 72 70 70 68 66 64 62 62 62 62 60 59 58 62 64 63 62 63 67 70
55 62 59 57 62 63 63 60 59 59 57 46 55 56 59 67 68 73 77 80 79 78 78 78 75 71 71 68 65 65 62 62 61 62 62 61 61 60 60 61 61 66 71 73
52 54 61 62 58 62 60 56 47 44 44 44 59 55 59 69 73 74 76 79 80 79 78 77 74 71 70 66 64 64 63 62 62 61 62 64 63 62 60 65 64 65 72 73
44 43 53 60 57 55 55 56 49 39 43 49 58 50 60 73 77 78 79 79 79 78 77 77 76 74 70 68 67 63 63 62 63 63 64 66 68 65 65 64 64 71 72 73
47 47 61 62 63 63 57 51 62 51 52 44 54 60 67 72 73 75 77 78 78 78 78 77 77 74 71 69 68 63 63 65 66 65 66 67 68 69 70 69 69 71 73 73
52 44 57 59 62 64 61 64 49 51 38 38 51 54 57 63 69 73 74 75 77 79 78 78 77 75 73 71 69 66 67 68 71 69 68 69 69 69 71 71 70 71 72 72
53 50 51 56 53 52 54 52 55 56 52 44 43 54 68 67 71 71 73 76 75 76 77 77 78 77 76 74 71 68 69 71 72 71 71 69 69 69 70 70 70 71 71 71
51 48 43 50 60 62 60 56 56 47 47 51 49 52 70 70 72 72 74 75 75 75 76 77 77 77 75 74 73 70 71 72 72 71 71 70 70 70 69 69 70 71 70 71
52 42 41 45 53 59 54 57 58 57 55 48 44 52 71 73 73 74 74 77 78 75 75 76 75 75 75 75 74 73 71 71 72 71 69 69 68 69 68 68 69 70 71 72
52 47 39 37 42 48 45 51 56 55 46 48 51 55 64 68 69 74 74 77 79 77 74 75 75 75 76 75 75 74 73 72 71 71 69 68 68 68 69 69 69 69 71 71
51 42 46 48 50 51 50 50 52 52 55 50 54 56 63 68 71 73 75 75 75 77 76 74 74 75 76 75 75 75 74 73 72 70 69 68 68 69 69 69 69 68 69 71
48 38 42 40 48 50 47 51 53 54 55 58 59 57 69 72 74 73 74 74 73 74 75 76 75 76 75 74 75 74 73 72 72 71 70 71 70 70 70 70 70 69 68 69
42 40 35 35 47 45 41 49 51 56 59 58 52 61 69 67 69 71 73 74 73 74 72 72 75 76 76 75 74 74 74 74 71 71 71 71 71 71 71 71 71 70 67 66
41 41 38 35 38 29 47 50 53 55 60 63 63 65 69 70 73 74 73 71 70 69 71 70 73 75 77 78 76 76 76 73 71 71 71 71 71 70 71 71 71 67 63 59
48 43 35 32 36 43 41 44 45 49 55 65 64 67 69 71 71 69 70 69 69 69 69 72 73 74 76 78 79 75 75 73 71 70 71 71 70 69 67 62 58 54 49 47
49 46 40 37 32 31 44 50 53 56 45 61 63 62 63 66 57 65 66 68 69 69 68 63 63 68 70 69 71 73 73 72 70 70 70 66 62 59 57 51 47 45 44 41
38 37 33 35 31 42 53 55 57 36 39 55 59 63 63 61 63 66 65 66 66 64 63 61 61 63 67 67 68 68 68 66 64 61 59 57 55 51 47 45 43 41 38 36
34 35 34 35 32 32 56 56 45 46 56 59 57 62 61 64 66 67 63 62 61 58 55 59 58 57 60 64 65 61 55 54 53 51 48 46 46 45 43 41 39 38 36 33
39 41 36 43 44 54 55 53 57 58 55 56 59 63 64 64 66 66 61 58 54 51 51 54 52 51 53 57 57 49 47 48 46 45 43 42 42 42 41 39 37 35 35 33
50 53 46 46 51 52 53 56 53 56 55 59 60 62 64 63 66 63 58 55 54 50 48 49 47 45 44 47 47 46 46 46 43 41 40 40 38 38 39 38 38 36 34 33
53 52 49 49 54 54 59 55 52 52 54 55 59 63 63 64 63 60 55 51 49 48 46 45 43 42 41 43 44 45 44 43 40 38 37 35 34 34 32 32 33 32 33 34
54 48 46 46 44 45 51 53 52 49 49 50 52 58 57 59 56 53 47 46 44 42 41 38 38 37 38 39 41 43 44 43 40 37 35 34 33 33 33 32 30 32 31 32

GFSCGP_sfc_temp_087.txt.gz
Temp
66 60 57 63 65 66 65 64 65 71 78 71 70 71 76 81 82 82 81 82 83 82 85 84 80 78 77 75 66 64 61 60 61 59 58 58 58 59 60 61 61 62 66 68
64 55 66 69 67 64 62 61 62 68 74 71 69 69 75 79 81 82 83 83 83 83 83 81 78 74 73 72 69 63 62 62 61 61 60 59 59 60 61 62 66 70 67 68
59 64 69 64 61 56 59 59 60 61 70 73 68 65 70 77 81 82 84 85 86 84 81 79 76 72 69 70 68 65 63 65 64 61 60 60 60 59 59 59 63 67 68 70
63 68 64 62 60 60 53 65 63 62 62 56 70 55 67 75 78 80 81 82 83 85 84 81 77 74 71 71 70 69 66 63 65 62 60 59 58 57 61 61 65 65 67 67
58 60 60 56 60 63 58 66 62 63 62 60 61 58 64 73 72 76 80 82 83 85 84 82 78 77 76 75 69 67 65 64 64 64 60 59 58 60 62 63 64 67 66 67
60 69 64 63 64 63 64 61 62 62 60 48 58 59 61 68 73 76 81 83 84 85 85 84 82 79 77 75 71 66 64 63 63 62 61 59 58 60 60 61 61 63 64 63
54 58 65 65 57 62 59 55 46 45 45 45 63 60 63 74 77 78 79 81 84 85 84 83 81 78 77 73 71 65 64 62 62 62 63 61 60 60 62 61 61 61 61 62
47 45 58 65 60 57 56 54 45 39 44 51 65 55 63 76 80 82 83 83 83 83 84 83 82 79 77 74 70 65 65 64 63 62 63 64 63 63 64 63 63 62 63 64
51 51 66 64 64 62 58 51 60 52 55 48 56 63 72 76 76 78 79 81 82 84 84 83 83 80 78 75 71 68 65 65 64 64 63 63 64 66 66 64 64 64 65 68
55 47 60 62 65 63 58 66 50 53 40 39 52 56 60 67 71 76 77 78 81 85 85 83 83 80 80 76 74 71 69 68 66 66 65 66 68 67 68 68 65 68 67 71
58 52 53 59 56 55 55 54 57 56 52 44 44 55 72 71 74 74 76 78 80 82 85 84 83 83 80 78 76 73 72 71 70 67 66 66 66 69 70 69 69 70 69 72
56 51 46 52 63 66 63 59 58 47 47 54 52 53 75 74 75 76 77 78 79 80 84 85 84 83 79 77 77 74 72 72 74 72 69 67 66 67 68 70 71 71 71 72
54 47 42 47 55 60 56 59 60 59 57 50 46 53 75 76 75 76 77 79 80 80 80 83 83 82 80 78 77 75 73 74 75 75 73 71 70 70 69 70 72 72 72 73
52 49 45 39 43 53 50 56 58 56 49 50 52 57 66 69 72 74 76 79 81 81 79 81 81 81 81 79 78 76 74 75 76 76 74 72 72 72 72 72 70 70 70 71
52 42 48 51 53 53 53 53 55 53 54 49 54 58 65 69 72 74 78 79 78 79 80 80 80 81 81 80 79 78 77 76 76 75 74 72 73 73 73 72 72 70 68 70
51 42 47 45 52 52 49 54 56 57 56 57 58 58 71 74 76 75 76 77 77 78 80 80 81 81 80 80 78 79 78 76 76 75 74 74 73 73 73 72 72 71 71 72
45 42 39 36 49 48 42 52 55 56 58 57 53 61 70 70 71 72 73 75 76 77 78 79 79 81 82 81 80 79 78 79 76 74 74 74 73 72 72 72 72 71 70 70
43 42 40 36 41 29 51 58 54 51 53 59 61 67 70 71 74 77 78 76 74 76 76 77 78 79 81 83 83 80 81 79 76 75 75 75 74 73 73 72 72 72 71 67
49 43 34 33 36 44 50 56 51 48 46 59 62 69 71 74 74 73 78 75 72 73 74 74 74 76 78 79 83 82 80 78 77 75 75 76 75 74 74 73 72 72 65 53
52 48 40 38 33 32 47 56 57 56 43 51 56 63 65 67 56 60 71 71 71 73 72 70 71 71 74 77 78 80 77 78 75 75 76 77 75 74 72 71 58 54 50 43
42 40 34 36 35 42 53 58 58 39 38 50 51 59 54 62 65 67 71 71 72 69 68 69 69 68 68 74 73 74 76 76 77 76 75 74 73 69 56 50 47 43 39 37
39 36 34 38 35 32 58 56 44 46 51 51 50 52 54 53 68 70 69 68 66 66 65 64 60 58 62 66 68 67 63 58 58 54 51 48 47 46 45 42 40 38 38 34
38 44 41 45 45 50 58 54 55 55 53 56 56 59 59 60 66 69 67 65 62 59 59 57 53 50 50 56 56 49 48 49 47 44 43 42 41 41 41 39 38 36 34 32
53 53 39 41 46 48 55 55 56 57 53 56 59 64 64 64 68 69 65 62 57 52 51 49 46 43 43 45 46 46 45 44 41 38 38 37 36 36 38 38 36 35 33 32
53 52 52 51 49 53 51 54 53 55 56 54 56 61 60 63 63 63 59 54 50 45 44 44 42 39 39 42 42 42 42 41 37 36 35 33 33 33 31 31 32 31 31 32
51 45 46 42 48 48 52 54 52 52 53 52 52 54 56 57 56 53 45 42 40 39 40 38 36 36 35 35 36 40 40 39 36 34 33 33 32 31 31 30 29 31 31 31

GFSCGP_sfc_temp_090.txt.gz
Temp
65 56 52 58 62 62 62 60 59 64 72 70 70 70 74 79 79 79 79 80 81 82 84 83 80 77 76 69 65 61 62 61 60 58 57 56 56 56 57 57 59 59 59 61
60 53 62 65 65 63 61 58 57 62 68 68 68 67 73 76 77 79 80 80 80 82 83 80 77 74 73 68 63 61 62 62 60 60 59 59 58 58 57 57 58 59 59 60
56 61 67 64 62 59 60 56 57 54 62 68 66 63 67 74 77 80 81 83 84 82 81 78 75 72 71 66 62 61 63 63 61 60 59 58 58 57 56 57 57 59 59 60
60 67 65 63 60 61 54 63 59 55 52 46 65 50 64 70 73 77 79 79 81 83 83 79 76 71 69 68 64 63 63 63 61 61 59 58 57 55 57 58 61 64 63 63
56 60 60 58 60 64 58 64 58 54 50 53 56 53 59 69 68 73 78 80 81 81 82 79 77 73 71 70 65 63 63 63 62 61 60 58 57 59 58 59 60 62 63 64
59 68 64 64 65 66 66 60 58 56 51 40 52 54 56 62 68 74 80 81 80 81 82 81 79 75 72 71 67 63 62 62 62 61 61 59 58 58 57 58 59 61 63 63
54 56 63 66 57 62 61 54 42 36 36 37 56 54 58 68 74 77 78 80 81 81 81 80 76 75 73 69 66 64 63 61 62 61 60 60 59 59 59 59 61 61 62 61
47 43 57 64 58 55 55 52 43 32 34 38 53 48 59 74 77 80 81 81 82 81 80 80 78 75 74 70 67 65 64 62 62 61 61 61 61 59 60 61 62 62 62 63
49 50 65 64 64 62 55 48 57 47 48 40 47 55 66 74 75 77 78 80 78 80 81 81 79 76 74 71 68 64 64 63 62 61 62 61 61 61 62 62 63 62 62 63
54 45 60 63 64 63 58 61 46 48 35 34 45 51 54 64 70 74 75 76 78 81 81 80 81 76 75 73 69 65 65 63 63 62 62 63 62 62 63 63 62 62 63 63
56 52 51 60 54 52 53 50 51 52 50 40 38 46 62 60 66 72 74 76 76 78 79 80 80 77 76 74 70 66 65 65 63 63 63 63 63 62 63 63 63 63 63 63
52 49 42 50 62 65 61 53 53 42 44 50 46 45 68 68 72 74 74 76 77 79 79 81 81 77 76 73 71 68 66 66 65 64 63 63 63 64 63 63 63 64 63 64
50 47 38 45 54 59 55 58 58 56 54 46 40 47 69 70 70 73 72 77 77 78 79 81 80 79 76 73 73 70 68 68 68 65 64 63 63 64 63 64 64 65 65 64
52 46 42 36 39 48 45 52 58 56 46 48 49 53 61 65 64 65 67 76 77 78 77 79 79 79 77 75 74 72 69 69 69 67 65 63 63 64 65 65 66 66 66 66
51 41 45 48 51 52 50 51 53 52 54 47 51 54 61 65 68 70 73 74 76 77 78 78 77 77 78 76 74 74 71 70 70 70 67 65 65 65 65 66 66 66 66 67
52 40 46 43 50 50 48 51 53 53 54 55 56 55 66 69 71 71 73 75 75 76 78 79 79 79 78 78 76 75 73 70 71 70 69 69 68 67 66 66 66 66 65 66
45 42 39 34 46 46 39 48 52 53 57 56 48 55 62 63 67 69 72 73 74 75 76 76 75 77 78 77 76 75 74 73 71 70 71 70 70 68 67 68 67 66 64 64
43 42 40 34 38 28 48 59 57 55 56 58 57 59 62 59 67 72 73 72 74 73 72 73 72 72 73 75 77 77 78 75 71 71 71 71 70 68 68 68 67 66 65 63
50 43 34 31 34 41 47 54 54 50 50 51 49 52 54 60 68 69 72 72 70 70 70 69 70 70 70 70 75 77 77 76 74 71 71 71 70 69 67 66 65 64 63 62
50 48 39 36 30 29 46 50 57 57 42 51 47 47 50 55 52 56 68 70 69 69 68 67 68 68 68 70 72 72 75 74 74 73 72 72 71 69 66 65 62 52 47 42
40 38 33 34 32 40 52 49 49 39 39 50 52 47 48 46 51 53 57 69 69 68 66 65 64 61 61 64 67 67 66 67 72 71 67 61 60 58 52 47 45 42 39 36
36 35 33 36 33 30 53 54 41 46 53 53 53 50 49 53 57 58 57 63 63 60 59 57 55 52 53 57 59 54 50 52 52 50 47 47 47 46 44 40 39 38 36 34
37 44 39 41 42 49 45 49 54 55 51 51 51 53 54 55 58 58 54 55 53 52 50 49 47 45 45 47 49 47 45 46 45 43 41 41 41 40 40 39 37 35 34 31
48 54 43 41 48 49 47 52 54 55 52 52 53 54 56 54 55 54 53 50 47 44 42 43 41 39 38 41 42 41 42 42 40 38 36 36 35 35 36 36 35 34 32 30
45 45 46 44 47 48 48 50 50 51 53 52 53 52 53 53 51 47 43 42 40 40 39 38 37 36 36 38 38 39 38 38 35 34 33 32 32 31 31 31 31 30 31 31
42 40 39 36 44 46 44 47 49 48 49 51 50 49 51 48 44 42 37 36 36 34 35 35 35 34 34 35 35 36 36 36 34 32 31 30 30 30 30 29 28 31 30 31

GFSCGP_sfc_temp_093.txt.gz
Temp
55 45 42 46 50 53 53 51 50 55 62 61 58 58 62 71 69 67 65 67 67 69 71 73 71 67 61 59 58 58 58 59 59 57 57 56 55 56 57 59 60 61 63 62
51 45 53 57 56 54 53 50 49 56 62 61 57 55 59 66 68 69 67 65 67 68 69 70 69 62 60 58 58 58 59 60 59 58 58 57 56 57 56 57 57 58 60 61
48 53 60 56 54 52 52 50 50 51 55 54 51 50 54 65 69 72 71 71 69 71 68 67 67 62 58 57 57 58 60 60 60 59 58 57 56 56 55 54 55 57 58 60
52 59 58 56 53 55 47 57 56 55 46 38 53 35 49 57 63 71 72 72 72 69 71 68 66 61 57 57 58 59 61 60 60 59 57 55 55 53 55 56 56 56 57 58
49 52 51 51 54 58 52 57 56 51 44 42 45 39 44 57 59 66 69 71 73 69 70 66 66 65 59 58 57 59 62 60 59 59 58 56 55 56 57 56 55 56 57 58
52 59 55 54 58 59 59 55 53 49 46 33 42 42 40 51 59 67 71 73 69 68 70 67 67 66 60 59 58 59 61 60 60 59 59 56 55 56 56 56 57 57 59 60
47 50 56 59 50 56 53 48 34 31 32 31 49 44 44 57 66 70 70 73 71 72 69 67 64 63 61 58 57 58 60 59 60 59 58 59 58 57 57 58 58 58 58 59
37 35 49 57 52 49 51 49 35 28 29 34 47 39 46 61 63 73 74 71 70 66 70 67 65 64 63 60 58 59 60 59 60 60 59 60 60 59 59 59 59 60 60 60
41 43 55 57 58 56 49 44 53 42 44 36 42 48 56 62 66 71 71 70 68 66 70 69 67 66 64 61 59 58 59 60 60 60 60 60 60 60 59 59 59 60 61 62
48 39 53 57 58 57 53 57 42 42 30 29 40 45 43 54 60 63 67 65 66 68 70 69 69 67 65 63 61 61 61 61 61 61 61 61 60 61 60 61 59 61 61 63
47 42 45 55 48 48 49 48 48 48 41 31 32 40 57 57 60 59 62 65 66 66 67 68 70 69 67 64 62 61 62 62 61 61 61 61 60 61 61 61 61 61 60 61
46 43 37 44 55 56 55 51 50 38 38 42 40 42 62 61 61 61 58 60 69 69 69 67 71 69 66 64 61 60 61 61 61 62 62 61 61 61 60 61 61 61 60 60
46 39 33 39 47 50 46 53 53 49 47 40 33 39 63 64 62 61 60 58 66 67 68 67 70 69 66 64 62 61 61 61 63 63 61 61 61 60 60 59 61 62 61 60
49 41 37 31 37 42 40 46 51 46 38 40 42 47 56 60 58 59 60 63 65 66 70 67 68 69 68 66 64 62 61 62 62 61 61 60 61 61 61 60 60 60 61 61
46 36 40 43 46 47 46 46 47 46 45 38 43 48 55 58 58 62 65 70 67 67 72 70 66 69 68 67 66 65 63 63 63 61 60 60 63 63 63 62 61 61 60 61
48 36 40 38 45 46 44 48 48 48 49 49 50 48 57 59 61 59 60 66 69 69 73 70 70 68 69 68 67 67 65 64 65 63 60 62 61 62 61 61 61 61 61 61
40 37 33 31 41 40 33 42 47 49 52 50 42 47 50 50 53 53 55 60 65 65 65 64 65 64 63 63 67 67 66 66 65 64 63 62 62 61 61 62 61 60 60 62
39 37 34 28 33 21 42 53 53 50 46 46 47 47 49 49 53 57 56 61 63 61 61 62 62 63 63 63 62 63 67 66 65 65 65 65 63 62 62 62 61 61 61 60
45 38 27 26 26 36 43 46 43 39 40 46 45 46 49 51 53 54 55 54 60 59 60 59 59 58 58 58 60 63 63 67 66 65 66 66 65 64 63 62 61 61 60 60
45 41 32 28 26 23 40 46 50 50 34 48 48 45 45 48 42 45 53 54 56 54 55 53 52 51 50 50 56 57 53 56 60 66 67 65 63 64 62 61 57 47 48 41
34 34 29 28 27 34 44 46 50 34 34 47 48 47 47 43 46 52 55 53 52 50 49 51 49 46 46 47 52 47 48 46 48 49 59 60 60 61 57 48 45 42 39 36
33 30 28 28 28 25 44 46 38 39 47 45 45 48 48 49 50 53 52 48 47 45 45 46 44 42 44 44 46 43 42 45 45 45 44 45 47 46 44 42 40 39 37 34
31 37 31 35 33 41 44 44 50 48 44 44 45 48 49 47 46 45 44 44 42 41 41 42 40 40 41 42 41 38 39 40 41 40 39 39 41 42 42 39 35 34 35 33
42 45 39 37 43 42 44 47 49 49 47 47 48 49 48 43 43 42 41 39 39 38 37 39 39 37 37 39 39 38 37 37 35 34 34 35 35 34 35 36 36 34 33 31
39 40 40 39 42 43 44 44 45 46 48 48 48 46 44 42 39 38 36 35 35 35 35 35 34 33 33 36 37 37 37 36 33 32 32 31 31 31 30 30 31 30 30 31
39 34 33 31 35 40 40 43 46 44 43 46 44 42 40 39 36 35 32 32 32 32 32 31 31 31 31 32 33 35 37 36 33 30 30 29 29 28 29 28 28 31 30 31

GFSCGP_sfc_temp_096.txt.gz
Temp
54 44 39 45 50 50 48 46 44 45 56 54 53 55 57 58 61 61 64 66 65 64 65 68 64 61 59 59 58 58 58 59 59 58 57 57 57 57 58 60 62 63 64 63
47 42 50 52 51 49 48 45 45 51 56 55 52 52 55 57 60 61 62 66 64 61 63 65 62 58 58 57 58 57 58 58 59 59 58 57 57 56 57 57 59 62 63 62
44 51 56 52 49 47 46 44 45 46 52 52 48 50 54 60 60 63 66 68 69 65 64 63 59 57 56 56 56 57 57 58 59 58 57 56 55 55 54 55 56 58 62 62
47 55 53 52 49 50 42 53 51 49 44 39 47 38 50 55 57 60 63 67 68 64 68 64 60 56 56 56 57 57 58 59 59 57 57 55 54 53 55 55 55 56 59 61
44 47 48 48 50 53 47 54 51 50 42 39 41 35 44 49 51 56 62 67 72 66 67 64 60 57 57 56 56 57 58 60 59 57 57 56 55 56 55 55 55 55 56 58
47 54 50 50 55 55 56 51 50 45 41 30 39 39 44 43 51 57 64 69 71 64 66 66 64 59 57 56 56 56 58 59 58 58 57 56 55 55 54 54 54 55 56 56
43 47 52 55 47 52 50 43 32 28 29 29 45 39 44 52 57 59 61 66 69 71 65 64 59 55 56 55 55 56 57 57 58 57 57 54 55 54 55 55 55 55 55 55
34 32 47 52 49 44 44 43 32 27 27 32 44 35 42 57 61 64 65 68 70 70 65 63 60 57 56 56 56 57 57 58 58 57 57 56 55 56 57 57 57 57 57 56
35 37 51 53 56 52 45 41 48 38 37 32 37 43 52 58 56 59 62 63 66 67 66 63 62 59 57 56 56 57 57 59 59 57 58 58 56 57 58 58 59 58 58 59
44 36 50 53 52 51 50 52 38 38 29 27 35 38 42 49 50 57 57 59 61 64 64 64 63 61 59 58 58 58 58 58 60 59 59 59 57 58 59 59 56 58 58 60
46 40 42 49 44 43 44 42 45 44 37 30 27 36 50 48 51 50 57 61 61 62 63 64 64 63 62 59 58 57 58 58 60 60 60 59 59 59 59 59 59 58 59 59
44 40 36 42 51 52 48 46 44 33 34 36 34 38 56 53 53 54 55 60 62 63 65 66 65 64 60 58 58 58 58 58 59 60 61 60 60 60 59 59 59 60 59 59
45 38 33 37 44 45 40 44 47 46 42 36 29 37 59 59 57 57 54 57 61 63 66 64 66 64 60 59 59 59 59 59 60 60 60 60 59 59 59 59 60 60 59 58
48 40 35 30 34 39 37 38 45 41 32 34 36 43 52 53 55 54 53 57 59 64 68 62 64 64 62 60 59 59 59 59 60 60 60 59 59 60 59 60 60 60 59 58
45 34 38 40 43 43 44 40 43 42 41 35 41 43 50 51 54 55 58 59 62 64 66 63 61 63 62 60 60 60 59 59 59 59 60 61 61 61 61 60 60 60 59 58
45 35 37 36 42 42 40 44 44 46 47 46 47 45 49 52 53 53 53 55 61 62 60 61 62 62 63 62 60 60 59 59 60 59 59 61 61 61 60 60 59 59 58 59
38 34 30 29 37 38 32 40 44 46 42 44 39 42 48 47 50 49 50 55 57 57 56 57 56 57 57 57 61 60 59 60 59 59 59 59 60 60 61 61 60 59 59 59
36 35 31 28 31 20 41 50 48 42 43 44 43 44 46 47 52 52 53 51 51 52 51 51 50 51 51 52 56 58 64 62 60 60 59 60 59 59 60 60 61 60 60 59
42 35 28 25 23 34 41 42 42 41 38 46 43 45 46 50 52 49 54 51 48 48 49 48 48 48 48 49 51 52 51 57 61 61 61 60 59 59 59 58 59 60 59 59
41 38 32 27 25 22 36 46 50 48 34 44 44 44 45 47 39 43 52 50 48 48 48 47 46 46 46 47 49 48 47 47 48 49 51 57 61 60 59 59 58 58 58 55
30 30 28 28 25 32 41 44 47 31 32 43 44 45 45 42 41 44 46 45 46 45 45 47 46 44 43 45 47 44 43 42 44 46 46 48 50 54 57 58 52 45 42 41
31 28 27 29 26 24 44 44 36 39 43 44 44 45 44 44 45 44 43 42 41 41 42 43 42 40 41 42 43 40 38 40 41 41 39 39 41 45 45 43 41 40 39 35
31 36 31 34 32 42 42 42 46 46 43 42 41 43 43 41 41 41 39 39 38 37 38 40 38 37 38 39 39 36 36 38 37 36 35 35 36 37 39 40 38 36 36 34
39 43 35 36 40 41 43 45 45 46 43 43 42 42 41 38 39 38 37 36 35 35 34 36 36 34 34 36 37 36 36 36 35 33 32 32 31 31 33 34 35 34 32 32
37 39 35 36 37 40 39 42 43 42 43 42 40 39 38 37 36 35 33 33 32 32 33 33 32 32 32 34 34 36 36 35 33 32 32 31 30 30 30 30 31 31 31 32
37 33 31 29 34 37 37 40 43 40 40 39 38 36 36 35 34 33 30 30 30 30 30 30 30 30 30 32 32 34 34 33 31 29 28 29 30 29 30 29 28 32 31 32

GFSCGP_sfc_temp_099.txt.gz
Temp
49 42 39 42 47 50 47 43 41 42 53 50 48 50 53 56 57 55 56 57 59 62 65 61 61 61 59 59 58 58 57 59 60 58 58 58 58 58 60 62 63 63 63 62
44 39 47 49 49 46 45 42 40 46 52 50 49 50 55 54 55 57 57 57 59 60 60 59 57 58 58 58 58 57 58 60 60 60 59 56 57 57 58 59 61 63 63 62
40 45 52 49 45 44 43 41 41 43 46 47 45 46 48 54 57 60 61 61 64 62 59 58 57 57 57 58 57 57 60 60 60 57 55 55 55 55 55 56 58 59 63 62
44 51 50 46 45 46 39 49 48 45 40 33 44 34 47 50 55 57 60 61 64 62 61 61 58 57 58 57 57 58 59 59 59 57 55 55 55 53 55 55 56 57 60 62
42 44 44 44 46 48 43 50 47 46 40 37 39 33 41 49 48 55 59 60 62 64 61 60 59 59 58 58 56 58 59 58 57 57 54 54 55 56 55 55 55 56 57 60
44 49 47 46 50 50 52 46 45 42 38 28 38 36 41 44 48 52 58 61 63 63 60 63 63 60 58 58 57 58 59 58 58 57 54 53 55 54 53 54 54 55 56 57
40 44 46 51 43 47 46 40 30 27 28 29 42 37 44 50 56 55 55 57 61 63 61 60 59 56 57 56 57 58 58 58 57 56 54 54 54 55 55 54 55 54 55 55
31 31 43 49 47 41 41 40 30 26 26 32 41 33 41 52 55 57 58 59 61 62 64 62 61 57 58 57 57 57 57 57 57 56 54 56 55 56 56 56 56 56 56 56
33 34 47 49 51 50 42 38 46 37 34 30 34 40 49 51 50 52 53 55 56 59 63 62 61 57 57 57 56 56 58 58 57 56 53 53 54 55 56 55 57 57 56 56
41 33 47 50 50 49 48 50 35 35 28 27 32 34 37 44 46 49 50 50 55 60 62 63 60 57 57 57 56 57 59 58 58 57 54 54 54 55 56 58 56 56 57 56
42 39 40 48 42 40 41 40 42 41 34 31 28 31 44 45 48 49 49 51 55 59 62 61 61 59 58 58 57 57 58 58 58 58 55 54 54 55 55 56 57 56 57 57
42 37 31 39 46 47 44 41 41 32 32 33 31 34 53 49 52 52 51 51 56 60 61 61 62 58 58 56 57 56 58 58 60 59 56 55 55 55 55 55 56 58 56 56
38 34 30 33 39 44 40 42 43 41 37 32 29 33 53 55 54 54 50 51 54 58 62 62 62 60 57 57 57 56 57 59 60 60 57 56 55 55 55 55 57 58 58 57
41 35 31 30 32 41 35 40 40 38 31 31 34 39 48 49 50 52 53 52 53 59 59 57 60 61 58 58 57 57 57 58 59 60 59 56 55 56 56 58 58 58 59 57
41 30 35 40 42 42 40 40 40 39 39 33 38 41 46 46 48 51 55 56 55 56 54 53 57 59 58 57 57 57 56 57 58 58 58 58 57 57 57 58 58 58 58 58
43 32 37 34 38 39 37 41 42 42 44 43 41 42 47 50 52 50 51 55 54 53 52 51 52 52 56 57 56 57 56 57 57 57 57 58 58 58 57 57 58 58 58 58
38 35 30 29 34 35 31 37 40 39 40 41 37 41 47 46 48 47 48 49 49 49 49 48 48 48 49 51 54 56 57 58 57 57 58 58 58 57 59 59 58 58 57 57
36 34 30 26 30 19 38 47 45 42 42 43 44 44 45 46 49 50 49 47 46 47 47 46 47 47 48 49 50 51 57 58 58 58 58 58 58 57 58 59 59 58 58 57
40 34 26 22 23 31 38 41 41 39 35 43 41 44 46 47 51 43 46 47 46 46 47 46 47 46 46 48 48 48 48 53 57 54 57 59 58 58 58 57 58 58 57 57
39 37 30 25 24 18 35 43 46 45 33 42 42 43 42 45 37 39 44 44 44 45 45 45 44 43 42 44 48 46 45 46 45 46 47 49 52 58 58 58 57 58 58 57
29 29 27 25 23 30 41 42 45 31 31 41 42 42 44 41 42 43 44 42 42 42 41 43 41 39 39 42 43 40 40 39 42 43 42 42 43 46 49 57 57 57 56 44
31 28 27 29 23 23 42 42 35 37 41 42 42 42 42 42 42 42 41 40 38 37 37 39 38 37 39 39 39 36 35 38 39 38 38 37 38 39 42 41 41 40 40 36
30 34 29 32 31 40 41 39 42 43 39 40 40 40 40 38 39 39 37 37 36 35 34 37 36 35 36 37 37 34 34 36 35 34 33 33 35 35 36 36 35 35 35 33
34 40 36 35 39 38 40 42 42 43 39 39 39 38 38 36 37 36 35 34 32 33 32 34 33 32 32 35 36 35 35 35 33 31 31 32 31 31 33 34 34 33 32 30
35 36 33 34 34 37 37 39 39 40 40 37 37 35 35 37 34 33 31 31 31 31 31 32 31 30 31 33 33 33 33 34 32 31 31 30 31 30 30 30 31 31 32 33
35 31 30 26 33 35 33 39 40 35 34 34 35 34 34 34 32 31 29 29 29 28 30 29 29 29 30 31 30 31 31 30 29 29 29 29 30 30 30 30 29 31 32 32

GFSCGP_sfc_temp_102.txt.gz
Temp
50 44 37 40 45 47 43 41 39 40 49 48 47 48 48 53 54 52 53 55 56 57 62 62 60 59 57 57 58 59 59 58 58 59 59 58 59 60 61 62 63 63 63 61
44 39 46 48 46 45 43 40 38 43 49 48 46 48 50 51 52 54 56 54 56 57 61 60 57 55 56 57 58 60 59 59 59 60 60 59 59 58 59 61 62 63 63 61
41 46 50 47 43 42 40 39 38 41 43 42 41 43 46 50 52 56 56 57 57 57 58 60 57 54 54 57 59 60 58 60 60 60 58 56 56 56 56 57 59 61 63 61
44 51 48 44 43 44 37 45 45 42 38 31 40 30 40 48 51 53 56 56 56 57 63 59 58 54 55 57 60 60 58 59 60 59 57 56 54 53 55 57 57 58 61 61
42 45 43 43 43 46 41 47 43 42 36 33 35 31 37 47 48 52 56 56 56 58 60 60 59 58 57 57 59 59 60 59 59 58 57 56 57 57 55 55 56 57 58 60
44 48 47 46 48 47 49 44 42 39 35 26 35 34 34 41 46 52 54 56 56 56 59 61 63 57 56 58 58 60 59 58 58 57 57 55 53 54 54 54 54 56 57 59
40 44 46 50 42 45 43 37 29 26 26 28 39 34 41 47 51 51 51 52 53 56 57 59 61 54 55 57 57 59 58 56 57 55 55 52 53 54 54 55 55 55 55 56
32 32 42 48 45 41 39 38 29 25 26 28 38 30 38 48 50 52 51 52 53 54 57 59 61 59 56 57 57 58 58 57 57 56 55 53 53 54 54 55 56 56 56 56
32 33 45 47 48 48 39 34 43 34 33 29 33 38 46 48 48 49 49 51 51 54 56 58 62 61 57 57 57 58 59 58 57 57 55 53 53 54 54 54 55 56 57 56
39 32 45 47 48 47 45 46 34 32 26 26 30 31 35 42 45 48 47 47 49 54 55 57 62 57 59 59 59 59 59 58 57 57 56 53 53 53 53 53 53 56 56 56
38 36 37 45 40 38 39 37 39 38 33 28 27 31 42 43 46 46 46 48 49 52 54 56 61 60 58 59 58 57 59 59 57 57 56 52 52 52 53 53 54 55 56 56
38 34 30 36 45 46 43 39 39 31 30 32 31 34 49 47 48 48 47 50 52 53 54 58 59 59 57 57 57 57 59 58 58 57 55 52 52 53 52 53 54 56 54 56
39 32 29 33 38 41 38 39 40 39 35 32 27 31 49 48 48 49 47 51 52 52 54 55 54 57 56 57 57 58 58 58 58 58 56 53 52 52 52 53 53 55 54 54
43 34 29 27 29 35 33 38 38 37 31 31 31 35 43 43 44 48 50 52 52 52 53 52 52 57 57 57 58 57 57 58 59 59 57 54 52 53 53 53 53 54 55 56
40 28 31 34 35 37 39 36 38 35 36 32 36 36 40 43 45 47 50 55 52 51 51 50 49 50 55 57 57 57 57 58 58 58 57 56 53 54 53 53 53 53 54 55
39 31 32 30 37 38 36 38 38 39 40 39 40 38 44 47 48 47 48 49 48 48 48 48 48 48 49 50 56 56 56 57 58 57 57 57 56 54 53 53 53 54 55 56
34 34 29 27 35 34 30 36 38 37 38 38 35 39 45 45 46 45 45 46 45 46 46 45 45 45 46 48 49 53 57 57 57 57 57 57 57 56 54 54 55 56 56 56
33 34 29 28 30 18 34 43 43 39 41 43 42 44 46 44 43 45 45 44 43 43 43 43 43 43 44 47 47 50 56 57 57 56 57 57 57 57 57 56 56 57 57 56
38 34 27 25 23 30 37 40 39 38 35 41 40 44 43 46 47 44 45 44 43 42 42 42 42 41 42 44 46 47 47 49 50 50 51 52 55 57 57 56 56 56 56 55
37 37 31 27 24 18 33 41 44 42 32 41 41 43 41 43 37 39 43 42 41 41 41 40 40 40 39 41 43 42 41 41 41 42 43 45 47 49 52 56 56 57 56 55
29 30 27 27 25 30 37 41 44 28 29 39 41 42 42 40 40 41 42 39 39 38 39 40 39 37 37 39 40 37 37 36 38 39 39 39 39 41 42 45 52 55 55 49
29 27 25 28 25 22 38 39 32 35 38 38 38 38 38 40 40 40 39 37 36 35 36 37 36 36 37 38 38 34 33 36 36 36 35 35 36 37 39 38 38 38 38 35
29 32 29 32 31 38 38 38 39 40 36 36 36 37 38 37 38 36 35 34 32 32 32 35 34 34 35 35 35 32 33 35 34 34 32 33 33 34 35 35 34 35 35 33
35 36 32 34 35 36 37 38 38 38 35 35 36 36 38 35 35 34 33 32 30 30 30 32 32 31 31 33 32 32 33 34 33 31 31 32 31 31 32 32 33 32 32 31
34 34 32 32 34 35 35 36 36 36 37 35 34 34 34 34 32 31 30 29 29 29 30 30 30 29 30 31 31 31 30 32 31 31 31 31 31 30 29 30 30 30 31 32
34 29 29 27 32 33 32 34 36 32 31 31 31 31 30 31 29 30 28 28 28 27 29 29 29 29 29 30 29 29 29 29 29 28 28 29 29 29 28 28 27 31 31 32

GFSCGP_sfc_temp_105.txt.gz
Temp
51 44 42 47 50 52 50 48 48 51 56 55 55 57 58 62 63 64 65 66 67 68 74 73 72 73 71 70 69 68 67 67 64 61 60 61 61 62 62 64 64 64 64 64
46 39 49 52 50 49 49 47 47 50 54 54 55 53 59 60 62 65 65 66 67 67 70 71 71 71 68 69 67 66 67 65 67 65 64 65 64 63 63 64 64 64 64 64
41 49 53 49 47 44 46 45 46 46 51 53 50 50 56 59 60 62 64 66 66 66 67 68 68 69 68 66 65 65 67 64 68 67 65 65 62 61 60 60 62 63 65 62
45 52 48 45 45 47 41 49 48 47 45 40 50 41 51 58 58 61 64 65 64 64 66 67 67 68 68 66 66 65 65 63 66 65 63 63 63 61 61 61 62 63 63 62
44 46 46 44 46 48 44 49 48 48 45 43 45 42 48 53 55 59 62 61 61 63 64 64 65 68 69 67 65 65 63 63 64 64 64 63 61 63 62 63 61 61 62 62
48 52 51 50 51 51 53 48 46 44 43 34 42 44 45 51 55 57 58 59 60 61 62 64 67 68 69 65 65 64 60 61 62 63 62 59 59 62 62 60 59 60 59 59
44 46 51 53 46 50 50 45 35 31 32 33 44 40 48 55 55 56 56 59 59 60 61 63 64 65 66 67 64 63 60 60 60 61 59 59 60 62 61 59 58 58 58 59
35 34 46 51 49 44 45 45 38 28 30 36 42 38 48 55 56 56 58 58 59 60 61 63 64 64 65 67 65 62 61 59 60 59 58 58 62 63 64 62 60 60 63 60
36 37 48 49 53 52 43 39 48 39 39 35 41 45 52 52 52 54 55 56 57 58 60 62 64 64 65 66 64 61 60 60 59 58 58 58 62 63 63 62 59 59 61 61
41 36 47 49 52 51 48 51 39 39 29 28 37 39 43 47 51 53 55 55 57 58 61 61 63 64 65 65 64 61 61 59 59 58 61 60 60 62 63 62 58 60 62 61
40 40 41 48 45 43 44 42 44 44 40 34 31 39 50 51 54 54 54 54 55 56 58 60 62 62 61 62 64 61 61 60 59 59 61 56 58 61 61 60 60 61 61 60
40 37 35 40 49 50 49 45 45 37 35 39 39 40 54 53 55 54 54 54 55 56 57 57 56 56 59 60 60 60 60 59 58 59 58 56 58 60 60 60 60 61 59 59
40 35 32 36 41 46 42 44 45 43 42 39 35 40 52 53 52 54 54 56 54 55 57 53 52 52 56 59 58 58 58 58 58 59 56 55 56 58 59 59 60 61 61 57
43 36 32 32 33 37 37 41 43 43 38 39 40 43 47 49 49 51 52 56 55 55 54 50 49 49 51 57 58 58 58 58 58 58 57 54 55 58 59 60 60 60 61 60
39 31 34 36 38 38 39 40 41 40 41 38 41 41 47 48 49 49 52 53 52 50 50 47 46 45 47 49 55 58 58 58 58 58 57 55 56 57 59 59 60 60 60 61
37 31 32 33 38 39 37 41 41 42 42 42 43 43 47 51 50 47 46 47 46 46 46 45 45 43 43 45 48 55 56 57 58 58 57 57 56 57 58 59 59 59 60 61
35 34 33 30 36 37 33 39 41 41 42 41 38 42 47 46 43 42 43 44 43 43 42 42 41 40 41 43 46 49 54 58 57 57 57 57 56 56 57 59 59 59 59 60
34 33 34 31 33 23 37 45 46 43 42 42 44 45 45 44 43 43 43 41 40 40 40 40 39 39 39 42 44 46 54 57 57 57 58 58 57 56 57 58 58 58 59 57
39 35 31 28 29 34 38 41 40 39 37 42 40 44 45 47 45 40 42 41 39 39 39 39 39 38 39 40 41 42 43 44 45 44 45 47 50 54 57 55 56 58 58 57
38 38 34 30 26 23 35 42 46 46 33 43 43 43 44 47 37 37 40 39 38 38 38 38 38 37 37 37 39 39 38 38 38 39 40 42 43 45 45 46 53 56 57 56
31 32 29 30 28 34 38 41 46 32 33 40 42 40 41 38 38 38 39 37 36 35 36 38 37 35 36 37 38 35 35 34 37 38 38 38 39 40 40 42 42 43 52 40
31 29 29 31 27 25 39 41 37 36 38 39 38 39 38 39 38 38 36 35 33 32 33 34 35 34 35 36 37 34 33 35 36 36 35 35 36 37 38 38 38 38 37 35
30 33 31 33 32 37 38 37 39 42 38 37 37 38 39 36 35 34 33 33 31 30 31 33 33 34 34 34 34 33 33 35 35 34 33 33 33 34 35 34 34 34 34 32
37 37 33 33 35 35 35 37 38 39 36 37 37 38 38 34 34 32 31 31 30 29 29 31 31 31 30 32 32 32 34 36 35 33 32 32 31 31 32 33 32 32 32 32
34 35 31 31 33 35 34 34 34 35 36 35 34 34 34 34 31 30 29 29 29 28 29 29 29 29 29 31 31 32 33 35 33 33 32 31 31 31 30 30 30 30 31 31
33 28 28 27 31 32 31 32 33 30 31 32 32 30 30 32 30 31 28 28 28 27 28 28 28 28 28 29 29 31 32 33 33 31 31 30 31 31 30 29 28 31 31 32

GFSCGP_sfc_temp_108.txt.gz
Temp
58 51 48 56 58 59 59 56 54 60 65 62 62 65 70 75 73 73 75 77 79 80 85 87 82 84 84 84 83 82 81 79 77 70 67 65 63 66 67 70 72 74 72 73
53 47 59 61 59 54 50 46 52 58 61 60 62 63 69 72 72 73 75 77 79 80 82 81 80 81 80 81 81 80 80 79 77 71 69 71 66 67 68 68 72 71 72 70
49 55 58 55 52 50 50 46 45 49 58 59 59 57 63 70 73 75 76 77 78 77 77 77 77 78 79 79 79 79 80 79 77 76 68 70 68 67 64 65 67 68 70 68
54 59 55 52 49 51 47 57 54 50 46 46 60 48 60 64 67 71 73 74 75 74 74 76 76 77 78 78 79 79 79 79 77 76 67 68 68 65 70 67 68 66 68 66
49 52 51 50 52 54 50 57 52 51 50 48 53 48 57 63 62 67 71 72 72 73 74 73 75 77 79 79 77 76 76 77 74 73 68 70 72 75 75 73 70 64 65 66
55 60 59 56 55 55 56 51 52 52 50 40 50 51 54 60 64 67 68 69 70 71 72 74 77 77 78 79 77 75 73 74 71 67 68 70 73 74 72 68 64 62 63 64
52 52 57 59 51 52 53 48 39 36 37 39 53 49 55 62 65 68 66 68 70 71 71 72 75 76 75 75 75 75 73 71 68 64 66 70 74 72 72 71 69 63 64 63
43 39 52 57 54 49 48 48 42 30 36 41 50 41 53 65 68 67 68 69 70 70 71 72 73 74 75 74 75 74 73 68 66 63 63 68 70 74 74 72 70 67 66 68
44 44 55 58 59 58 49 44 55 44 45 41 48 52 57 62 62 63 66 66 68 70 71 71 72 72 72 71 71 72 70 67 65 62 61 63 67 72 72 72 70 68 68 67
47 41 52 54 57 58 54 57 42 46 34 33 45 47 52 54 58 61 63 66 66 68 68 69 69 68 69 69 67 70 70 65 65 62 60 60 67 71 72 71 64 66 65 67
48 48 45 52 49 47 47 46 48 50 47 39 39 46 59 59 61 61 63 64 64 65 66 67 66 66 65 67 62 70 67 64 63 61 59 61 67 70 70 68 64 63 66 67
45 43 41 46 52 58 55 50 50 41 40 45 44 46 61 60 61 62 62 63 65 65 66 66 64 61 61 55 51 65 64 63 63 61 60 62 65 68 66 65 63 63 64 66
42 40 37 40 46 52 50 53 54 52 51 44 41 46 61 60 60 61 60 63 63 62 63 63 62 58 54 49 49 60 61 62 61 61 59 60 60 64 63 64 64 64 64 66
46 41 37 36 40 47 43 48 52 50 44 46 47 50 55 57 57 58 59 56 53 55 57 55 55 55 49 47 47 50 59 60 59 59 59 58 58 62 63 64 63 64 63 63
41 37 41 44 44 44 45 46 49 48 49 43 49 49 54 54 56 53 52 51 52 50 51 49 48 48 45 44 45 46 58 58 58 57 57 56 58 62 64 64 63 64 63 62
40 37 37 38 45 44 42 47 49 50 49 49 50 50 55 54 51 48 49 48 46 46 47 48 45 44 42 41 42 45 55 57 58 57 56 57 58 60 61 63 63 62 62 63
37 37 37 35 42 41 37 44 48 50 50 48 45 48 51 49 44 42 44 45 43 42 43 43 40 39 39 40 41 41 47 57 57 56 57 58 60 59 60 62 62 61 61 63
36 37 39 36 39 26 43 52 52 50 49 50 47 46 50 46 43 42 43 41 39 39 39 41 39 37 37 39 41 41 48 54 54 53 55 57 57 59 61 61 61 62 63 62
46 39 35 32 34 40 44 41 44 45 39 45 41 46 51 47 44 38 41 40 38 37 37 38 39 37 35 36 38 37 40 42 43 43 44 45 49 52 56 57 59 61 61 62
44 42 36 37 30 27 38 40 51 51 34 45 44 44 46 50 38 35 40 39 38 37 37 36 38 36 34 34 36 36 36 36 36 39 39 42 44 45 44 45 47 54 58 57
35 34 32 34 33 40 43 43 47 35 34 41 43 42 43 38 37 39 40 37 36 35 34 36 37 35 34 34 34 34 34 33 34 37 38 38 39 40 40 41 41 43 45 39
36 34 34 36 31 29 42 47 38 38 42 42 41 42 40 39 38 37 36 34 33 32 32 34 33 34 34 36 37 35 33 33 34 35 36 36 37 37 39 38 37 38 36 34
32 37 32 35 34 38 39 37 42 45 44 43 42 42 41 39 36 35 33 33 31 30 30 32 32 32 34 36 35 35 36 37 36 36 34 34 35 36 36 36 36 35 35 33
41 39 34 34 34 34 35 37 39 43 43 44 44 43 42 37 36 34 33 32 30 30 29 30 30 30 30 33 35 34 37 38 37 35 34 33 32 32 33 33 33 33 32 31
37 39 32 32 33 33 33 34 35 37 40 41 40 41 40 39 35 35 33 31 31 30 30 29 28 28 28 30 32 35 36 39 37 37 36 35 33 32 30 30 30 30 30 31
37 30 30 30 32 32 31 33 36 34 35 38 39 37 37 38 36 36 34 34 32 30 31 29 28 28 28 29 29 32 35 36 38 36 34 34 33 32 32 30 29 31 31 32

GFSCGP_sfc_temp_111.txt.gz
Temp
59 53 51 57 60 63 62 58 58 64 71 67 66 67 71 76 78 77 79 80 81 83 88 91 91 89 89 89 88 89 87 87 85 82 81 80 70 71 73 81 80 79 76 73
55 49 60 64 64 61 60 56 55 63 67 64 64 64 71 74 77 80 79 79 81 83 86 88 88 87 85 86 86 87 87 86 86 84 83 76 69 70 71 75 78 78 74 73
51 56 63 62 60 58 58 55 54 55 60 59 61 59 64 72 75 78 79 80 82 83 84 86 84 83 84 83 84 85 86 86 85 83 80 72 71 69 67 68 73 75 74 74
57 63 61 59 57 60 52 61 56 53 49 41 56 45 60 67 70 75 77 78 80 82 83 84 82 82 82 82 83 83 84 85 85 83 78 70 68 66 69 70 73 73 74 73
54 57 57 55 57 60 55 59 54 53 50 50 53 48 58 69 66 70 74 77 79 79 80 80 81 82 83 84 83 81 81 83 84 83 79 71 67 73 76 74 73 70 71 69
57 66 61 60 63 62 61 54 53 53 51 41 51 52 54 58 64 71 75 75 76 77 78 79 81 82 83 83 81 80 80 80 81 81 78 71 68 74 77 76 74 70 68 69
51 51 63 64 56 60 56 49 34 32 35 37 55 50 55 66 68 71 71 73 73 75 75 76 78 79 80 80 79 79 80 79 79 77 75 69 69 72 77 76 74 71 69 67
44 39 53 61 58 52 52 51 38 29 32 38 54 45 56 68 72 74 73 74 73 74 75 76 77 77 77 78 77 76 76 78 79 76 68 70 68 70 74 75 75 72 71 70
44 45 61 61 62 61 52 48 57 44 47 42 49 55 62 68 69 69 70 71 72 73 74 75 75 74 73 73 72 74 72 75 78 75 67 68 68 68 72 75 77 74 72 72
50 43 57 60 62 62 57 61 46 47 34 35 47 49 52 58 61 65 66 67 70 71 72 72 73 71 70 70 69 70 69 72 76 73 67 66 65 70 72 75 73 73 71 70
51 48 49 57 51 52 53 51 53 53 49 39 37 45 60 59 62 62 66 69 69 69 70 71 70 69 68 67 66 65 63 71 75 68 66 64 63 68 70 72 72 71 69 69
46 44 43 48 60 63 60 54 54 45 43 48 44 39 65 65 66 66 66 67 69 70 63 66 68 67 66 64 62 59 55 62 68 65 62 61 62 65 69 70 69 69 68 70
42 43 32 36 50 58 53 56 55 54 53 43 39 45 65 65 64 65 63 60 62 62 61 63 63 62 61 61 58 53 51 49 63 62 60 60 60 63 66 67 67 66 68 67
45 41 36 33 35 49 47 53 56 53 44 47 48 43 53 61 61 56 57 56 58 58 57 57 57 57 59 58 54 48 47 46 60 61 60 59 60 63 64 66 66 63 67 66
45 38 43 44 45 49 45 47 53 50 51 44 48 49 51 52 54 52 52 53 53 52 52 52 51 51 53 52 49 45 46 47 58 59 58 57 59 62 64 64 64 63 65 66
46 37 44 43 50 49 46 51 52 54 54 53 55 53 60 57 55 50 49 50 48 47 47 48 48 47 47 46 43 42 43 44 48 56 56 57 57 60 64 63 62 61 63 66
41 38 39 37 46 46 40 48 51 53 56 54 47 51 56 48 47 44 44 43 43 43 45 43 42 42 43 42 40 39 41 42 49 56 56 56 57 59 61 61 62 62 61 62
41 40 41 37 41 29 47 56 56 54 52 53 52 53 55 48 43 41 41 42 42 41 42 38 39 39 40 39 39 39 39 41 50 52 53 56 57 59 60 61 61 61 63 61
48 41 37 34 36 43 48 46 42 43 39 48 47 48 49 45 43 38 42 44 42 39 39 37 39 37 36 36 37 37 36 36 40 41 43 45 49 54 60 59 61 62 61 61
49 48 39 38 32 28 34 46 49 48 34 43 46 45 47 47 38 35 43 44 42 41 38 36 37 36 34 33 35 34 33 33 34 36 37 40 42 44 45 46 49 52 60 57
37 37 34 37 35 40 46 50 48 33 32 43 46 45 46 40 39 41 43 42 41 38 35 35 35 34 33 33 33 32 32 32 32 34 36 36 37 39 40 41 42 43 40 37
36 34 33 39 33 29 45 47 35 35 42 44 44 44 41 41 40 39 39 40 37 35 33 34 33 33 33 33 32 32 32 32 33 33 32 34 33 34 38 37 37 37 36 34
35 39 32 35 31 38 41 37 42 45 44 45 45 46 44 43 40 39 38 37 34 32 31 32 31 31 32 33 32 32 32 34 33 32 32 32 32 33 34 34 34 34 34 32
43 46 38 38 32 33 35 38 42 45 46 47 48 47 46 41 41 40 38 35 34 31 31 31 30 29 29 32 32 34 39 40 37 34 32 32 30 30 32 32 31 32 31 30
42 43 34 33 33 36 37 35 37 39 44 45 45 45 44 44 42 42 39 37 36 33 32 31 29 28 28 30 30 34 36 39 37 36 36 34 32 31 30 30 30 29 30 30
40 31 32 30 32 34 32 34 36 35 38 42 43 41 42 43 41 42 39 39 38 36 36 33 31 30 29 30 31 32 35 36 35 34 33 32 32 32 31 29 28 31 31 32

GFSCGP_sfc_temp_114.txt.gz
Temp
51 49 45 49 55 58 57 57 56 62 69 66 65 66 71 76 75 75 77 79 80 81 85 87 84 83 83 82 81 82 81 78 77 76 74 75 74 74 74 74 73 71 71 70
40 40 53 56 58 55 56 55 56 64 68 62 60 59 69 73 74 74 76 77 78 80 83 85 85 81 80 80 80 81 81 80 78 78 77 76 76 73 73 71 73 74 72 71
33 45 56 54 54 53 55 53 56 57 56 53 57 53 59 70 74 76 78 79 80 78 79 82 83 78 77 78 78 80 80 80 78 78 77 74 69 68 67 67 70 73 72 71
39 48 52 51 50 56 51 61 59 58 51 37 55 40 56 63 66 71 73 75 77 78 80 82 80 77 76 77 79 79 79 79 80 77 76 69 66 65 67 67 69 71 70 70
37 42 50 50 52 59 55 63 59 57 50 44 47 43 51 60 58 63 71 75 76 77 77 79 78 79 79 78 76 77 77 77 77 77 74 69 68 69 69 67 66 67 69 69
42 53 54 57 62 62 64 57 55 53 48 35 44 44 47 55 59 63 71 75 75 75 75 76 78 79 78 78 74 75 75 76 76 75 74 71 67 68 67 67 65 66 66 67
46 50 56 62 56 61 57 50 36 31 33 32 49 44 49 63 68 69 71 73 73 73 73 72 75 76 74 73 73 73 73 73 74 73 72 71 69 68 68 69 68 67 65 64
38 30 46 58 57 53 51 49 36 28 29 36 49 42 51 65 71 74 72 72 72 72 72 73 74 72 70 70 69 68 68 69 71 70 71 70 69 68 69 70 71 67 66 65
37 40 51 55 62 59 50 44 53 43 43 38 46 51 63 67 66 69 68 69 68 71 72 71 72 69 67 66 66 64 65 66 68 67 69 68 66 66 68 70 69 69 68 68
43 35 50 49 61 60 55 57 41 44 32 30 36 45 46 57 60 64 63 67 69 71 70 70 68 66 67 66 64 62 62 63 63 63 65 67 66 67 67 68 67 68 68 67
47 42 44 55 46 48 50 48 50 49 46 36 33 36 55 58 60 53 65 66 62 64 64 65 66 66 65 65 63 61 59 57 56 57 60 66 65 66 66 66 66 67 67 66
46 40 35 46 59 62 58 52 52 41 40 45 42 41 57 58 64 65 58 62 60 61 61 62 62 61 61 61 60 57 55 54 52 52 62 64 63 64 65 64 65 65 66 66
44 37 30 38 48 57 52 55 55 53 51 41 37 42 54 56 51 59 56 57 58 57 57 58 58 57 56 56 56 54 52 50 49 51 57 60 60 62 61 62 64 65 65 65
48 41 33 28 32 41 45 53 55 52 42 43 43 45 52 49 50 52 52 54 53 53 53 53 53 52 52 52 51 50 48 48 47 49 56 58 58 60 61 61 63 64 64 65
47 36 38 42 45 36 39 42 50 50 50 44 42 44 47 46 44 49 52 52 50 49 50 49 48 47 47 47 46 45 45 45 45 45 51 57 59 60 61 60 62 63 62 63
48 35 40 41 49 46 38 42 43 42 46 49 48 47 47 49 51 48 47 46 45 46 46 45 44 43 42 42 41 42 42 42 43 45 49 58 58 58 58 59 60 61 60 61
42 37 37 36 46 46 40 48 50 52 55 52 43 45 49 46 44 42 43 44 42 42 43 40 39 39 39 38 39 39 40 42 41 46 54 57 57 57 58 59 59 59 59 60
42 40 40 35 40 29 43 49 49 49 49 50 49 48 47 42 41 42 43 42 40 40 39 38 38 37 37 37 37 38 40 40 38 39 43 51 56 56 58 58 58 58 59 58
50 43 35 32 33 42 38 42 41 39 38 45 46 47 44 43 42 37 43 44 40 39 38 37 37 36 35 35 36 37 37 37 36 35 37 40 44 55 56 57 57 58 58 57
49 48 39 36 30 27 35 46 52 50 31 35 44 46 46 45 37 34 42 42 40 38 36 35 36 35 34 33 35 34 33 32 32 33 34 37 39 43 47 49 51 51 52 46
38 38 34 35 33 33 39 46 51 34 30 38 40 42 41 37 37 40 42 40 39 36 35 36 37 33 33 33 33 33 32 31 32 32 33 35 35 37 39 40 42 42 39 36
33 31 29 32 32 27 39 45 34 35 39 39 40 42 40 41 41 41 40 38 35 33 33 33 32 32 32 33 32 32 31 32 32 32 32 32 33 33 36 36 36 37 35 33
32 38 33 32 30 35 37 36 39 42 42 44 44 45 44 42 41 40 37 36 33 32 31 32 30 30 31 31 31 30 32 32 32 31 30 30 31 32 32 32 33 32 32 31
42 46 36 36 33 35 35 37 37 39 40 45 46 46 45 42 42 41 39 37 33 32 31 31 30 29 28 30 31 31 33 33 32 31 30 29 29 29 31 31 31 30 30 29
41 42 34 32 35 37 34 35 35 37 40 42 44 43 43 44 42 41 38 38 37 34 33 31 29 29 28 29 30 31 32 34 32 31 32 30 29 28 28 29 29 29 29 29
38 31 31 28 31 33 31 34 35 33 33 39 41 41 41 41 40 40 37 37 36 34 34 32 30 30 29 29 30 31 32 32 32 31 31 31 30 29 27 27 27 31 31 32

GFSCGP_sfc_temp_117.txt.gz
Temp
48 40 34 40 44 46 46 45 45 51 59 58 57 59 63 65 68 66 66 68 68 74 78 80 78 76 73 70 72 70 72 73 71 68 67 65 69 68 65 67 69 69 70 70
43 35 44 47 45 44 44 41 44 53 60 58 58 55 62 61 63 69 68 64 67 68 72 79 79 70 71 70 70 70 71 70 71 71 71 68 66 67 70 66 66 68 67 67
38 39 48 45 40 38 43 42 43 45 48 52 50 47 51 59 63 67 71 70 68 69 69 72 72 68 67 68 70 71 70 70 69 71 68 64 64 63 62 63 64 66 67 67
35 43 38 39 38 40 38 48 49 48 46 37 50 33 47 56 58 61 64 63 65 69 72 73 70 66 66 67 68 69 70 70 71 69 66 64 63 60 61 62 63 68 67 68
36 40 35 33 38 46 43 49 48 50 44 39 42 36 40 51 51 57 60 64 66 69 72 70 70 69 68 66 65 67 69 69 70 68 66 64 62 64 61 61 62 63 66 68
39 48 44 40 47 50 53 47 48 47 41 29 38 36 36 44 52 57 62 67 70 68 68 71 71 67 64 64 63 63 63 65 66 66 65 63 62 62 60 61 61 63 65 65
44 45 50 50 44 50 50 43 31 27 28 26 44 38 42 52 58 61 62 66 66 68 67 66 64 62 62 60 60 63 63 63 62 62 62 62 63 62 62 62 62 62 64 65
33 29 42 49 45 44 46 42 28 22 23 29 44 34 41 55 61 63 67 66 64 63 65 63 61 61 60 60 59 58 60 60 60 61 60 60 62 64 64 65 65 64 65 65
32 34 46 50 49 48 44 39 45 36 38 31 37 43 53 59 60 63 63 62 60 62 61 61 62 61 59 58 58 56 56 57 57 56 56 56 59 62 64 65 66 64 67 67
40 32 43 44 48 53 49 51 34 36 27 26 34 38 41 51 54 55 51 54 58 59 59 59 58 58 59 58 56 54 54 54 54 54 52 54 56 58 64 63 62 63 66 66
42 38 38 44 42 44 44 43 44 39 40 30 27 31 52 51 55 51 50 51 52 53 54 54 55 56 55 55 55 53 52 51 51 51 50 50 50 56 63 61 61 63 65 65
43 35 31 38 48 54 49 44 45 34 34 38 34 32 51 50 52 52 52 52 52 52 52 52 52 51 51 51 51 49 48 48 48 48 48 49 50 61 61 61 61 64 65 63
41 34 26 33 41 46 42 47 50 47 44 38 31 34 50 49 47 50 48 49 50 50 50 49 47 46 47 47 46 46 45 44 45 45 45 47 49 59 60 60 60 63 63 62
45 38 31 24 29 34 33 41 47 47 37 38 38 39 40 45 45 45 47 47 47 47 47 45 43 42 43 44 43 42 42 43 44 44 43 45 47 58 59 60 59 62 63 61
41 32 37 39 42 34 35 40 42 41 43 39 40 39 40 40 41 42 45 45 44 43 42 41 40 40 40 40 39 40 40 41 43 42 43 44 48 57 59 59 59 61 62 62
41 32 36 35 44 41 40 41 43 43 43 44 43 39 45 44 44 41 42 42 40 40 40 40 39 39 38 37 37 38 39 40 41 41 41 44 50 57 58 58 59 59 59 61
36 34 32 30 41 40 32 35 38 38 40 45 36 39 43 39 39 38 39 39 38 38 38 37 37 36 36 36 36 36 37 39 39 40 41 42 43 57 58 59 59 58 58 59
36 35 34 29 34 25 35 45 45 36 36 38 41 40 39 38 39 40 40 37 36 36 36 35 35 35 34 35 36 37 38 37 37 37 38 39 40 46 57 58 58 57 58 57
43 37 28 26 27 35 36 37 36 36 33 36 38 40 39 39 39 36 40 39 35 35 35 35 36 35 34 34 35 36 35 35 35 34 35 36 38 40 54 56 56 57 57 56
44 40 31 27 26 22 30 36 43 42 27 36 36 35 38 40 33 31 38 38 35 35 34 33 35 34 33 32 34 33 32 32 31 32 33 35 36 37 39 51 55 55 49 43
30 30 27 26 26 30 34 38 43 29 28 38 37 36 37 33 34 37 38 35 35 34 33 33 33 31 31 32 32 31 32 30 31 32 32 33 34 36 35 39 45 43 38 35
29 25 21 27 25 22 36 38 30 34 38 39 38 38 38 39 38 38 36 34 33 31 31 32 31 30 31 31 31 30 31 32 32 31 30 30 32 33 34 34 35 36 35 32
29 33 28 28 27 34 35 34 36 38 37 39 41 42 41 40 38 37 35 33 32 31 30 31 30 29 30 30 30 29 31 32 32 30 28 28 29 31 32 32 32 31 32 31
38 40 30 31 32 33 33 35 36 36 36 40 41 40 43 40 39 37 36 34 31 30 29 29 29 28 27 29 30 31 32 33 32 30 28 28 27 28 30 31 31 30 30 29
34 34 27 30 32 32 32 33 34 35 36 38 40 38 37 39 38 36 35 34 33 31 29 29 27 26 26 29 29 31 32 32 31 31 30 28 27 27 28 29 29 29 30 30
34 29 28 26 31 31 30 33 34 32 33 35 36 37 38 38 36 35 33 33 32 30 29 28 27 27 27 28 29 30 32 32 31 30 30 29 29 27 27 27 27 31 31 32

GFSCGP_sfc_temp_120.txt.gz
Temp
44 35 31 38 41 41 40 37 35 42 49 47 50 52 58 61 61 64 65 63 64 67 73 72 73 74 70 68 66 72 73 73 73 70 69 66 66 65 66 68 69 68 68 68
37 32 42 45 44 41 39 35 34 42 48 47 47 50 57 61 62 65 64 61 64 63 69 72 73 67 66 67 66 69 72 72 73 71 71 66 65 65 67 66 67 69 67 67
34 39 47 43 40 37 36 34 34 35 44 47 45 43 49 56 61 62 62 63 64 64 66 71 73 65 64 64 63 66 68 69 70 70 65 63 63 62 62 62 64 66 67 67
34 44 42 40 38 40 27 41 40 38 37 30 43 30 42 51 54 57 60 58 59 63 66 67 62 61 64 61 65 67 66 65 67 65 64 62 64 65 62 64 64 64 66 66
35 38 36 34 38 41 32 40 39 39 39 36 38 33 38 47 49 55 57 58 59 62 65 65 61 61 60 60 60 61 63 63 64 63 64 63 63 63 61 61 63 64 65 67
39 48 43 41 45 46 44 39 40 41 38 27 37 35 34 42 52 54 57 59 61 62 62 62 62 61 57 57 59 59 60 59 60 60 59 59 60 61 60 60 61 61 62 65
39 44 47 48 41 45 41 36 25 23 24 26 39 34 40 48 52 55 57 57 61 63 61 58 57 56 56 55 57 59 58 57 58 57 55 54 55 57 60 61 62 62 61 60
29 28 43 49 38 38 39 37 26 20 25 27 39 31 38 52 57 57 56 57 59 58 59 56 55 55 54 54 53 54 54 54 55 54 52 53 54 54 57 61 62 62 63 65
31 33 47 49 47 44 40 33 43 36 35 29 33 39 49 52 51 53 54 54 53 54 52 53 54 53 52 52 51 50 51 52 52 52 51 50 50 51 54 56 63 63 64 64
39 29 44 45 46 49 43 47 34 35 25 23 29 32 34 41 43 47 46 47 48 49 49 50 49 50 50 50 50 50 49 48 48 48 48 49 49 50 51 53 57 63 63 63
40 35 38 44 36 36 39 37 37 38 32 26 26 31 45 46 45 43 45 46 45 46 46 46 47 48 49 48 48 47 46 45 45 45 46 46 46 48 51 51 54 62 63 63
40 35 30 37 47 48 46 39 39 30 29 32 32 30 45 46 46 45 45 45 45 45 45 45 45 45 44 44 43 43 43 43 43 44 44 44 45 47 49 52 57 62 62 62
39 33 26 31 39 43 35 39 41 38 37 32 29 31 44 45 44 45 41 43 43 43 43 42 42 41 41 41 40 40 40 40 42 43 44 43 44 45 47 49 60 61 61 61
43 35 30 25 29 35 33 36 40 38 31 36 36 34 39 38 36 39 40 42 41 41 41 40 39 38 39 39 38 38 39 40 41 41 42 41 42 45 46 50 57 60 61 61
38 29 33 36 40 36 35 35 38 38 39 36 38 36 36 36 37 37 36 39 39 39 38 38 37 36 37 37 37 38 39 39 39 40 41 41 42 44 46 50 56 59 60 61
38 29 34 33 42 35 33 39 37 36 36 38 38 35 39 39 40 38 36 36 36 36 36 36 36 36 35 35 35 36 37 38 38 37 38 40 41 43 45 47 57 58 59 61
33 31 30 28 38 38 29 30 33 34 34 38 34 36 37 35 35 34 35 36 35 35 34 34 34 34 34 34 35 34 36 37 36 36 37 39 39 40 43 44 57 58 58 58
33 32 31 27 32 23 32 38 36 32 33 34 36 34 35 34 36 36 35 34 33 34 34 34 34 33 33 35 34 35 37 35 34 34 34 36 37 38 41 43 50 58 57 57
39 33 27 25 26 31 33 34 33 32 30 35 34 36 36 36 38 33 36 36 33 33 33 33 34 33 33 32 33 33 34 34 33 32 32 33 34 36 39 39 41 58 57 56
41 38 29 27 25 21 30 34 40 39 26 36 35 34 35 37 30 30 34 35 33 33 33 32 33 33 30 30 32 32 31 31 30 31 31 32 33 34 35 37 38 56 53 45
30 29 25 25 25 29 32 35 39 27 27 36 36 35 36 31 33 33 35 34 34 32 32 32 32 29 29 30 31 30 31 29 31 31 30 30 32 32 34 36 36 41 39 37
27 24 25 25 23 20 34 35 29 32 35 37 38 39 36 36 36 34 34 32 31 30 30 31 29 28 29 29 30 29 29 32 32 31 28 28 30 31 32 33 32 34 35 33
28 31 27 29 27 33 34 33 35 36 34 34 35 38 40 37 35 35 32 32 30 29 28 28 29 28 30 30 30 29 30 32 31 29 28 27 29 30 30 31 31 30 32 31
36 36 29 30 31 31 32 34 35 35 35 37 35 36 40 36 36 34 32 31 29 28 26 25 25 26 26 29 30 30 31 32 31 29 28 28 27 28 29 30 30 30 29 29
32 31 29 29 31 32 32 33 33 34 35 37 37 36 35 35 32 31 30 29 29 27 25 24 23 23 24 27 29 30 31 31 31 30 29 28 27 27 28 29 30 30 30 30
33 29 24 19 25 30 30 32 33 30 33 34 33 32 33 34 31 30 27 27 27 25 25 24 24 24 24 25 27 30 31 30 30 30 29 27 27 27 26 27 28 30 31 32

GFSCGP_sfc_temp_123.txt.gz
Temp
42 33 30 34 38 40 38 35 32 37 44 41 40 42 46 52 54 58 62 64 64 67 70 72 71 69 68 69 68 69 69 70 69 69 66 64 65 66 65 67 67 67 67 67
35 30 41 43 42 39 37 33 32 39 43 41 39 38 46 51 51 58 61 64 62 64 64 69 70 68 67 65 67 68 69 70 70 71 71 68 68 65 67 66 67 67 67 67
32 38 45 42 39 36 36 33 33 34 40 41 37 34 40 49 54 59 63 65 68 62 65 69 70 69 63 62 60 68 70 70 70 70 65 63 63 62 62 63 65 67 66 67
34 41 40 38 36 38 29 41 40 34 29 23 36 22 36 43 49 54 60 60 59 60 62 65 62 60 56 54 59 60 61 61 63 64 63 63 63 61 64 65 66 65 66 66
33 37 36 33 36 42 35 42 36 34 30 29 30 27 33 43 44 50 53 58 57 56 57 55 56 57 56 57 58 58 59 59 60 60 62 61 61 61 61 61 62 62 64 65
38 44 41 40 45 44 45 39 35 35 30 20 28 29 27 38 45 49 53 55 54 54 54 55 57 57 55 56 56 56 56 56 56 56 56 56 55 56 58 60 60 61 62 64
38 38 42 45 38 44 39 31 20 18 18 20 36 31 33 44 48 49 50 53 55 56 54 53 51 51 51 51 52 54 53 52 52 52 52 53 53 54 54 58 60 60 60 61
27 25 39 47 39 37 36 33 25 14 20 25 38 28 36 47 55 55 55 53 52 49 49 49 49 49 50 49 49 50 50 49 50 50 49 50 50 51 52 55 58 60 62 63
30 30 45 46 47 42 36 31 42 32 31 26 31 38 43 46 47 47 47 47 45 46 46 46 48 48 47 47 47 47 47 47 47 48 48 47 47 47 48 50 53 55 62 63
36 28 42 45 45 43 39 43 32 33 22 23 26 28 34 39 40 42 41 41 42 43 43 45 45 45 45 46 46 46 46 45 46 46 46 47 45 46 47 48 49 52 56 62
37 33 35 42 34 33 36 34 36 37 32 26 24 30 44 40 40 39 40 40 40 40 41 42 43 44 43 43 43 43 42 42 43 43 43 43 43 44 45 46 49 51 54 57
38 33 28 35 44 47 43 35 36 28 29 32 30 30 42 42 42 42 41 41 41 41 40 40 41 41 41 40 40 39 40 39 40 41 41 42 43 44 44 45 47 51 54 57
37 31 23 28 36 41 35 39 38 37 35 31 27 29 37 39 38 38 38 38 39 40 40 39 39 38 38 39 39 39 39 40 39 40 40 41 41 42 42 43 46 50 51 59
41 33 25 19 28 33 31 36 39 37 30 33 32 31 32 33 33 34 35 35 36 38 38 37 37 36 37 37 37 38 38 39 38 39 38 39 40 40 41 43 45 49 52 59
36 27 32 34 38 34 33 34 35 33 35 32 33 31 32 33 33 32 33 36 33 34 35 35 35 35 36 35 36 37 38 38 38 37 37 38 40 40 41 43 45 47 51 58
35 27 31 31 39 35 31 34 34 34 33 36 34 31 35 35 36 35 35 33 34 34 34 35 35 35 34 34 34 35 36 37 37 36 36 38 38 39 39 41 43 46 48 57
31 29 29 27 36 34 27 28 31 32 33 34 31 33 33 32 31 31 33 33 32 33 33 34 33 32 33 32 33 33 35 36 36 35 36 36 36 37 38 40 42 44 46 56
31 31 30 26 31 21 30 34 34 31 32 32 33 33 32 32 33 33 34 32 31 31 32 32 32 31 31 32 32 34 35 34 34 33 33 34 34 34 36 38 40 42 44 52
36 31 26 24 26 29 34 33 30 30 29 34 33 35 36 36 38 31 34 34 31 31 31 32 32 31 31 30 32 33 33 33 32 31 31 31 32 33 34 36 36 39 42 46
38 34 30 27 24 19 27 33 38 36 25 34 34 33 34 36 30 29 33 33 32 32 32 30 29 30 29 29 32 31 31 31 29 30 29 31 31 32 33 33 35 37 40 49
28 28 24 25 26 27 31 34 37 25 24 34 36 34 34 30 31 32 34 33 32 31 30 31 29 28 29 30 31 29 29 29 31 30 29 29 31 31 33 33 35 35 36 37
28 26 24 25 22 17 33 34 27 31 33 33 33 36 34 34 34 33 33 31 30 27 27 27 26 28 29 30 30 28 27 30 31 30 27 28 29 31 32 32 32 33 33 33
21 31 28 28 25 32 33 33 34 35 33 33 32 35 38 34 33 33 31 30 28 27 25 25 24 24 26 29 29 27 28 30 29 27 26 26 27 30 30 30 30 31 31 31
32 33 28 29 31 31 32 35 35 34 33 34 34 34 36 32 32 30 28 27 27 25 22 22 22 23 24 27 29 29 29 31 30 26 25 26 26 27 29 29 30 29 29 29
32 31 29 29 31 31 32 33 32 34 33 34 33 32 33 31 28 27 26 26 25 23 23 21 21 22 22 25 27 30 30 31 30 28 26 26 26 26 27 28 27 28 29 30
32 28 23 15 29 30 29 32 32 28 33 31 31 30 30 30 27 26 24 25 25 23 24 23 23 23 23 24 27 28 29 30 29 28 26 26 26 26 26 26 26 29 29 30

GFSCGP_sfc_temp_126.txt.gz
Temp
41 34 28 32 36 38 36 33 31 36 42 39 38 38 42 47 48 48 50 53 56 60 68 71 70 70 71 72 71 69 68 68 67 66 64 64 64 66 65 66 66 66 66 66
34 29 39 40 38 36 34 30 30 37 42 40 37 37 43 45 46 48 49 51 55 57 64 69 70 64 64 67 69 69 69 69 68 69 68 64 66 66 66 67 66 66 66 66
31 37 43 40 36 34 34 31 33 33 39 40 36 33 37 43 46 49 51 54 56 57 61 65 67 65 63 61 64 67 68 70 68 69 65 61 62 63 64 64 65 66 66 66
33 39 38 35 34 36 28 39 39 36 32 26 34 21 34 39 41 46 49 52 55 58 63 66 65 55 54 53 56 59 61 62 63 64 65 63 64 63 63 65 66 66 66 66
32 36 33 30 34 39 32 41 37 37 31 27 30 23 31 38 37 42 48 52 56 60 62 53 53 53 53 53 53 55 56 56 58 60 63 62 60 61 60 61 63 63 64 65
37 42 39 38 42 42 44 38 36 32 27 19 30 25 28 32 40 46 46 47 48 50 51 52 53 53 52 53 52 53 53 54 55 56 56 57 57 57 60 61 60 61 62 64
35 36 40 43 36 41 37 30 21 18 17 22 36 26 30 41 46 48 46 44 46 46 45 45 45 45 46 46 49 50 50 50 51 51 52 51 52 54 55 57 61 60 61 62
24 22 36 43 38 37 36 32 25 13 22 24 36 25 33 44 46 46 45 44 44 42 43 42 43 43 45 46 46 47 47 46 48 49 48 48 49 50 52 53 54 57 60 61
26 26 41 44 45 43 35 31 37 30 32 24 28 37 43 43 41 42 41 41 40 41 42 41 41 42 43 42 42 43 44 45 46 46 46 46 47 47 46 47 49 51 54 59
33 24 38 42 44 45 39 41 29 30 19 21 28 28 27 36 36 37 37 37 39 41 41 41 41 41 41 41 41 42 43 43 43 44 44 44 44 45 45 45 46 48 50 53
33 30 33 39 35 34 34 33 34 35 30 25 23 28 32 35 37 36 36 37 37 38 39 39 40 41 41 41 42 41 41 40 40 41 41 42 42 43 44 44 45 46 48 50
35 31 27 32 42 43 39 35 34 29 28 31 29 25 34 34 35 35 37 38 39 39 37 38 37 39 38 38 38 38 39 38 39 40 41 41 43 43 42 42 44 45 46 49
35 29 21 26 35 40 34 37 36 36 35 30 27 25 34 34 33 35 34 35 35 36 37 37 37 36 37 37 37 37 38 38 38 39 38 39 39 39 39 40 42 44 45 47
40 31 23 16 24 32 30 34 36 38 29 31 29 27 30 31 31 32 32 33 34 34 34 34 34 34 35 36 36 36 37 38 38 38 38 36 36 37 39 41 41 42 45 46
37 27 30 32 36 33 31 31 31 31 33 31 29 27 29 30 31 32 32 32 32 32 33 32 32 32 33 34 34 35 36 37 37 37 36 36 37 38 39 39 40 41 43 46
34 27 30 29 36 35 29 31 33 32 31 34 32 28 33 33 33 32 32 31 30 31 32 32 32 32 32 32 32 34 35 35 36 35 35 36 36 36 37 38 39 40 42 45
30 28 28 27 35 33 26 28 30 30 31 32 26 30 33 30 30 29 30 31 30 30 31 30 30 30 31 30 32 32 34 35 34 34 33 34 34 34 35 37 38 39 40 42
30 30 30 25 30 21 30 35 34 31 31 31 32 32 31 30 31 31 31 30 29 30 30 30 30 30 30 31 32 33 34 34 33 32 32 32 32 32 34 35 36 37 39 39
34 31 27 23 26 28 33 31 29 28 29 33 31 32 34 34 35 30 32 31 29 29 30 29 30 30 30 30 32 32 32 32 32 30 30 30 31 31 33 33 34 36 37 38
34 32 29 26 23 18 27 32 36 35 25 32 35 32 32 34 27 27 31 31 30 29 29 28 29 30 29 30 31 30 29 29 28 30 29 30 31 31 31 32 33 35 36 37
28 28 25 24 25 27 31 32 36 24 22 32 32 34 31 29 30 31 32 30 30 28 26 27 27 27 27 29 30 28 28 27 29 28 28 28 30 30 31 32 33 34 33 35
28 26 25 27 21 16 32 33 26 30 33 33 32 33 33 33 33 32 31 28 26 24 24 24 23 25 27 29 29 27 26 29 28 26 25 27 28 30 30 30 30 32 32 32
21 31 28 28 26 32 33 31 33 34 32 32 32 32 35 32 30 28 27 28 25 22 21 22 21 24 27 27 28 26 27 30 29 25 24 24 27 28 28 27 28 28 30 30
32 34 29 28 30 31 31 33 34 33 32 32 31 31 31 29 28 26 27 26 23 21 21 21 21 21 22 25 28 28 29 30 29 26 25 24 25 26 27 27 26 26 27 27
32 32 28 29 30 31 31 31 31 32 32 32 31 30 29 29 26 24 23 24 23 22 22 22 21 21 21 23 27 28 28 29 28 27 25 24 24 23 24 25 25 24 25 27
32 29 23 25 29 30 29 32 33 29 31 30 30 29 28 27 26 24 23 23 23 22 23 23 23 22 22 23 25 26 28 29 28 26 25 24 23 23 23 23 23 28 27 27